<?xml version="1.0" encoding="UTF-8" standalone="no" ?>
<gpx xmlns="http://www.topografix.com/GPX/1/1" xmlns:xsi="http://www.w3.org/2001/XMLSchema-instance" xsi:schemaLocation="http://www.topografix.com/GPX/1/1 http://www.topografix.com/GPX/1/1/gpx.xsd" version="1.1" creator="VisuGPX - https://www.visugpx.com">
  <metadata>
    <name>RANDO VOREY 28KM</name>
    <desc><![CDATA[RANDO EN BOUCLE 28 KM. DEPART CHAMALIERES.VIASPRE.TARRIER.LE BOIS.ROCHE EN REGNIER.VOREY( table de picnic en bord de loire) .CHANGEAC.DONAZE.AUNAS.CHOMEIL.GRANOUX.LA FAYOLLE.ATTENTION PARTIE VERS SUC DE BARTOU DESCENTE TRES RAIDE POSSIBILITEE D EVITER LE SUC ET REJOINDRE CHOMEIL DIRECTEMENT MAIS VOUS N'AUREZ PAS LA SUPERBE VUE]]></desc>
  </metadata>
  <trk>
    <name><![CDATA[20180526085430-bLBu7]]></name>
    <trkseg>
      <trkpt lat="45.20121" lon="3.98715">
        <ele>541</ele>
        <time>2018-05-24T07:30:01Z</time>
      </trkpt>
      <trkpt lat="45.20141" lon="3.98706">
        <ele>537</ele>
        <time>2018-05-24T07:30:13Z</time>
      </trkpt>
      <trkpt lat="45.20143" lon="3.98705">
        <ele>536</ele>
        <time>2018-05-24T07:30:24Z</time>
      </trkpt>
      <trkpt lat="45.20141" lon="3.98704">
        <ele>537</ele>
        <time>2018-05-24T07:30:47Z</time>
      </trkpt>
      <trkpt lat="45.20148" lon="3.98709">
        <ele>536</ele>
        <time>2018-05-24T07:31:07Z</time>
      </trkpt>
      <trkpt lat="45.2016" lon="3.98702">
        <ele>534</ele>
        <time>2018-05-24T07:31:23Z</time>
      </trkpt>
      <trkpt lat="45.20186" lon="3.98713">
        <ele>522</ele>
        <time>2018-05-24T07:31:36Z</time>
      </trkpt>
      <trkpt lat="45.20188" lon="3.98713">
        <ele>522</ele>
        <time>2018-05-24T07:31:47Z</time>
      </trkpt>
      <trkpt lat="45.2019" lon="3.98714">
        <ele>522</ele>
        <time>2018-05-24T07:32:01Z</time>
      </trkpt>
      <trkpt lat="45.2019" lon="3.98714">
        <ele>522</ele>
        <time>2018-05-24T07:32:14Z</time>
      </trkpt>
      <trkpt lat="45.2019" lon="3.98713">
        <ele>521</ele>
        <time>2018-05-24T07:32:27Z</time>
      </trkpt>
      <trkpt lat="45.2019" lon="3.98713">
        <ele>521</ele>
        <time>2018-05-24T07:32:39Z</time>
      </trkpt>
      <trkpt lat="45.2019" lon="3.98713">
        <ele>521</ele>
        <time>2018-05-24T07:32:56Z</time>
      </trkpt>
      <trkpt lat="45.20191" lon="3.98713">
        <ele>521</ele>
        <time>2018-05-24T07:33:13Z</time>
      </trkpt>
      <trkpt lat="45.20192" lon="3.98714">
        <ele>521</ele>
        <time>2018-05-24T07:33:38Z</time>
      </trkpt>
      <trkpt lat="45.20193" lon="3.98721">
        <ele>522</ele>
        <time>2018-05-24T07:33:54Z</time>
      </trkpt>
      <trkpt lat="45.20194" lon="3.98732">
        <ele>522</ele>
        <time>2018-05-24T07:34:01Z</time>
      </trkpt>
      <trkpt lat="45.20198" lon="3.98751">
        <ele>530</ele>
        <time>2018-05-24T07:34:14Z</time>
      </trkpt>
      <trkpt lat="45.202" lon="3.98758">
        <ele>530</ele>
        <time>2018-05-24T07:34:19Z</time>
      </trkpt>
      <trkpt lat="45.20206" lon="3.98781">
        <ele>530</ele>
        <time>2018-05-24T07:34:33Z</time>
      </trkpt>
      <trkpt lat="45.20208" lon="3.98786">
        <ele>531</ele>
        <time>2018-05-24T07:34:37Z</time>
      </trkpt>
      <trkpt lat="45.20218" lon="3.98808">
        <ele>531</ele>
        <time>2018-05-24T07:34:52Z</time>
      </trkpt>
      <trkpt lat="45.2023" lon="3.98832">
        <ele>527</ele>
        <time>2018-05-24T07:35:08Z</time>
      </trkpt>
      <trkpt lat="45.20241" lon="3.98852">
        <ele>538</ele>
        <time>2018-05-24T07:35:21Z</time>
      </trkpt>
      <trkpt lat="45.20247" lon="3.98866">
        <ele>544</ele>
        <time>2018-05-24T07:35:31Z</time>
      </trkpt>
      <trkpt lat="45.20265" lon="3.98887">
        <ele>527</ele>
        <time>2018-05-24T07:35:47Z</time>
      </trkpt>
      <trkpt lat="45.20288" lon="3.98898">
        <ele>525</ele>
        <time>2018-05-24T07:36:03Z</time>
      </trkpt>
      <trkpt lat="45.20301" lon="3.98902">
        <ele>523</ele>
        <time>2018-05-24T07:36:13Z</time>
      </trkpt>
      <trkpt lat="45.2031" lon="3.98904">
        <ele>522</ele>
        <time>2018-05-24T07:36:21Z</time>
      </trkpt>
      <trkpt lat="45.20319" lon="3.98903">
        <ele>521</ele>
        <time>2018-05-24T07:36:28Z</time>
      </trkpt>
      <trkpt lat="45.20322" lon="3.98875">
        <ele>520</ele>
        <time>2018-05-24T07:36:44Z</time>
      </trkpt>
      <trkpt lat="45.20322" lon="3.98845">
        <ele>516</ele>
        <time>2018-05-24T07:36:59Z</time>
      </trkpt>
      <trkpt lat="45.20322" lon="3.98843">
        <ele>515</ele>
        <time>2018-05-24T07:37:00Z</time>
      </trkpt>
      <trkpt lat="45.20324" lon="3.9881">
        <ele>513</ele>
        <time>2018-05-24T07:37:15Z</time>
      </trkpt>
      <trkpt lat="45.20324" lon="3.98808">
        <ele>513</ele>
        <time>2018-05-24T07:37:16Z</time>
      </trkpt>
      <trkpt lat="45.20338" lon="3.98793">
        <ele>516</ele>
        <time>2018-05-24T07:37:28Z</time>
      </trkpt>
      <trkpt lat="45.20355" lon="3.98782">
        <ele>517</ele>
        <time>2018-05-24T07:37:42Z</time>
      </trkpt>
      <trkpt lat="45.20368" lon="3.98765">
        <ele>518</ele>
        <time>2018-05-24T07:37:56Z</time>
      </trkpt>
      <trkpt lat="45.20374" lon="3.98756">
        <ele>519</ele>
        <time>2018-05-24T07:38:04Z</time>
      </trkpt>
      <trkpt lat="45.20391" lon="3.98736">
        <ele>527</ele>
        <time>2018-05-24T07:38:22Z</time>
      </trkpt>
      <trkpt lat="45.20403" lon="3.98718">
        <ele>528</ele>
        <time>2018-05-24T07:38:38Z</time>
      </trkpt>
      <trkpt lat="45.20413" lon="3.98697">
        <ele>532</ele>
        <time>2018-05-24T07:38:57Z</time>
      </trkpt>
      <trkpt lat="45.20412" lon="3.98696">
        <ele>532</ele>
        <time>2018-05-24T07:38:58Z</time>
      </trkpt>
      <trkpt lat="45.2041" lon="3.98687">
        <ele>533</ele>
        <time>2018-05-24T07:39:04Z</time>
      </trkpt>
      <trkpt lat="45.20415" lon="3.98662">
        <ele>541</ele>
        <time>2018-05-24T07:39:19Z</time>
      </trkpt>
      <trkpt lat="45.20415" lon="3.98661">
        <ele>541</ele>
        <time>2018-05-24T07:39:20Z</time>
      </trkpt>
      <trkpt lat="45.20423" lon="3.98665">
        <ele>545</ele>
        <time>2018-05-24T07:39:30Z</time>
      </trkpt>
      <trkpt lat="45.20433" lon="3.98675">
        <ele>542</ele>
        <time>2018-05-24T07:39:43Z</time>
      </trkpt>
      <trkpt lat="45.20439" lon="3.98676">
        <ele>543</ele>
        <time>2018-05-24T07:39:52Z</time>
      </trkpt>
      <trkpt lat="45.20443" lon="3.98675">
        <ele>543</ele>
        <time>2018-05-24T07:39:56Z</time>
      </trkpt>
      <trkpt lat="45.20457" lon="3.98676">
        <ele>546</ele>
        <time>2018-05-24T07:40:11Z</time>
      </trkpt>
      <trkpt lat="45.20468" lon="3.98682">
        <ele>547</ele>
        <time>2018-05-24T07:40:24Z</time>
      </trkpt>
      <trkpt lat="45.20479" lon="3.98689">
        <ele>548</ele>
        <time>2018-05-24T07:40:37Z</time>
      </trkpt>
      <trkpt lat="45.2049" lon="3.98697">
        <ele>548</ele>
        <time>2018-05-24T07:40:49Z</time>
      </trkpt>
      <trkpt lat="45.20507" lon="3.98699">
        <ele>556</ele>
        <time>2018-05-24T07:41:03Z</time>
      </trkpt>
      <trkpt lat="45.20524" lon="3.987">
        <ele>556</ele>
        <time>2018-05-24T07:41:22Z</time>
      </trkpt>
      <trkpt lat="45.20527" lon="3.98692">
        <ele>557</ele>
        <time>2018-05-24T07:41:36Z</time>
      </trkpt>
      <trkpt lat="45.20525" lon="3.9869">
        <ele>557</ele>
        <time>2018-05-24T07:41:40Z</time>
      </trkpt>
      <trkpt lat="45.20512" lon="3.98668">
        <ele>561</ele>
        <time>2018-05-24T07:41:57Z</time>
      </trkpt>
      <trkpt lat="45.20509" lon="3.98647">
        <ele>570</ele>
        <time>2018-05-24T07:42:11Z</time>
      </trkpt>
      <trkpt lat="45.20513" lon="3.98637">
        <ele>572</ele>
        <time>2018-05-24T07:42:19Z</time>
      </trkpt>
      <trkpt lat="45.20518" lon="3.98634">
        <ele>573</ele>
        <time>2018-05-24T07:42:25Z</time>
      </trkpt>
      <trkpt lat="45.20523" lon="3.98633">
        <ele>573</ele>
        <time>2018-05-24T07:42:30Z</time>
      </trkpt>
      <trkpt lat="45.2053" lon="3.98621">
        <ele>575</ele>
        <time>2018-05-24T07:42:45Z</time>
      </trkpt>
      <trkpt lat="45.20537" lon="3.98603">
        <ele>577</ele>
        <time>2018-05-24T07:43:03Z</time>
      </trkpt>
      <trkpt lat="45.20547" lon="3.98589">
        <ele>578</ele>
        <time>2018-05-24T07:43:20Z</time>
      </trkpt>
      <trkpt lat="45.2055" lon="3.98585">
        <ele>578</ele>
        <time>2018-05-24T07:43:38Z</time>
      </trkpt>
      <trkpt lat="45.2055" lon="3.98579">
        <ele>587</ele>
        <time>2018-05-24T07:43:59Z</time>
      </trkpt>
      <trkpt lat="45.20548" lon="3.98567">
        <ele>587</ele>
        <time>2018-05-24T07:44:14Z</time>
      </trkpt>
      <trkpt lat="45.20544" lon="3.98532">
        <ele>589</ele>
        <time>2018-05-24T07:44:34Z</time>
      </trkpt>
      <trkpt lat="45.20535" lon="3.98494">
        <ele>597</ele>
        <time>2018-05-24T07:44:52Z</time>
      </trkpt>
      <trkpt lat="45.20533" lon="3.98482">
        <ele>597</ele>
        <time>2018-05-24T07:44:59Z</time>
      </trkpt>
      <trkpt lat="45.20529" lon="3.9844">
        <ele>600</ele>
        <time>2018-05-24T07:45:19Z</time>
      </trkpt>
      <trkpt lat="45.2053" lon="3.98415">
        <ele>606</ele>
        <time>2018-05-24T07:45:34Z</time>
      </trkpt>
      <trkpt lat="45.20533" lon="3.98389">
        <ele>608</ele>
        <time>2018-05-24T07:45:51Z</time>
      </trkpt>
      <trkpt lat="45.20539" lon="3.98364">
        <ele>609</ele>
        <time>2018-05-24T07:46:07Z</time>
      </trkpt>
      <trkpt lat="45.20547" lon="3.98342">
        <ele>611</ele>
        <time>2018-05-24T07:46:25Z</time>
      </trkpt>
      <trkpt lat="45.20559" lon="3.98316">
        <ele>617</ele>
        <time>2018-05-24T07:46:41Z</time>
      </trkpt>
      <trkpt lat="45.20573" lon="3.98297">
        <ele>618</ele>
        <time>2018-05-24T07:47:00Z</time>
      </trkpt>
      <trkpt lat="45.20587" lon="3.98272">
        <ele>624</ele>
        <time>2018-05-24T07:47:20Z</time>
      </trkpt>
      <trkpt lat="45.20601" lon="3.98251">
        <ele>625</ele>
        <time>2018-05-24T07:47:38Z</time>
      </trkpt>
      <trkpt lat="45.20618" lon="3.98232">
        <ele>629</ele>
        <time>2018-05-24T07:47:58Z</time>
      </trkpt>
      <trkpt lat="45.20635" lon="3.98222">
        <ele>630</ele>
        <time>2018-05-24T07:48:15Z</time>
      </trkpt>
      <trkpt lat="45.20644" lon="3.98216">
        <ele>630</ele>
        <time>2018-05-24T07:48:23Z</time>
      </trkpt>
      <trkpt lat="45.20662" lon="3.98204">
        <ele>631</ele>
        <time>2018-05-24T07:48:40Z</time>
      </trkpt>
      <trkpt lat="45.20666" lon="3.98201">
        <ele>631</ele>
        <time>2018-05-24T07:48:52Z</time>
      </trkpt>
      <trkpt lat="45.20679" lon="3.98193">
        <ele>636</ele>
        <time>2018-05-24T07:49:07Z</time>
      </trkpt>
      <trkpt lat="45.20694" lon="3.98179">
        <ele>637</ele>
        <time>2018-05-24T07:49:25Z</time>
      </trkpt>
      <trkpt lat="45.20707" lon="3.98173">
        <ele>638</ele>
        <time>2018-05-24T07:49:41Z</time>
      </trkpt>
      <trkpt lat="45.20721" lon="3.98168">
        <ele>639</ele>
        <time>2018-05-24T07:49:54Z</time>
      </trkpt>
      <trkpt lat="45.20724" lon="3.98166">
        <ele>640</ele>
        <time>2018-05-24T07:49:58Z</time>
      </trkpt>
      <trkpt lat="45.20745" lon="3.98155">
        <ele>642</ele>
        <time>2018-05-24T07:50:16Z</time>
      </trkpt>
      <trkpt lat="45.20767" lon="3.98135">
        <ele>645</ele>
        <time>2018-05-24T07:50:34Z</time>
      </trkpt>
      <trkpt lat="45.20786" lon="3.98125">
        <ele>646</ele>
        <time>2018-05-24T07:50:52Z</time>
      </trkpt>
      <trkpt lat="45.20797" lon="3.98122">
        <ele>646</ele>
        <time>2018-05-24T07:51:01Z</time>
      </trkpt>
      <trkpt lat="45.20801" lon="3.98121">
        <ele>646</ele>
        <time>2018-05-24T07:51:03Z</time>
      </trkpt>
      <trkpt lat="45.20817" lon="3.9812">
        <ele>647</ele>
        <time>2018-05-24T07:51:15Z</time>
      </trkpt>
      <trkpt lat="45.20831" lon="3.98119">
        <ele>647</ele>
        <time>2018-05-24T07:51:24Z</time>
      </trkpt>
      <trkpt lat="45.20842" lon="3.98117">
        <ele>650</ele>
        <time>2018-05-24T07:51:34Z</time>
      </trkpt>
      <trkpt lat="45.20854" lon="3.98113">
        <ele>651</ele>
        <time>2018-05-24T07:51:44Z</time>
      </trkpt>
      <trkpt lat="45.20855" lon="3.98114">
        <ele>651</ele>
        <time>2018-05-24T07:51:46Z</time>
      </trkpt>
      <trkpt lat="45.20872" lon="3.98117">
        <ele>651</ele>
        <time>2018-05-24T07:51:56Z</time>
      </trkpt>
      <trkpt lat="45.20889" lon="3.98122">
        <ele>652</ele>
        <time>2018-05-24T07:52:07Z</time>
      </trkpt>
      <trkpt lat="45.20907" lon="3.98129">
        <ele>652</ele>
        <time>2018-05-24T07:52:20Z</time>
      </trkpt>
      <trkpt lat="45.20921" lon="3.98132">
        <ele>655</ele>
        <time>2018-05-24T07:52:32Z</time>
      </trkpt>
      <trkpt lat="45.20931" lon="3.98139">
        <ele>656</ele>
        <time>2018-05-24T07:52:43Z</time>
      </trkpt>
      <trkpt lat="45.20953" lon="3.98152">
        <ele>656</ele>
        <time>2018-05-24T07:53:01Z</time>
      </trkpt>
      <trkpt lat="45.20955" lon="3.98153">
        <ele>656</ele>
        <time>2018-05-24T07:53:03Z</time>
      </trkpt>
      <trkpt lat="45.20982" lon="3.9816">
        <ele>657</ele>
        <time>2018-05-24T07:53:21Z</time>
      </trkpt>
      <trkpt lat="45.21002" lon="3.98168">
        <ele>660</ele>
        <time>2018-05-24T07:53:36Z</time>
      </trkpt>
      <trkpt lat="45.21018" lon="3.98176">
        <ele>663</ele>
        <time>2018-05-24T07:53:49Z</time>
      </trkpt>
      <trkpt lat="45.21036" lon="3.98186">
        <ele>665</ele>
        <time>2018-05-24T07:54:02Z</time>
      </trkpt>
      <trkpt lat="45.21053" lon="3.98193">
        <ele>667</ele>
        <time>2018-05-24T07:54:18Z</time>
      </trkpt>
      <trkpt lat="45.21072" lon="3.98195">
        <ele>668</ele>
        <time>2018-05-24T07:54:34Z</time>
      </trkpt>
      <trkpt lat="45.21093" lon="3.98192">
        <ele>673</ele>
        <time>2018-05-24T07:54:50Z</time>
      </trkpt>
      <trkpt lat="45.21116" lon="3.98185">
        <ele>674</ele>
        <time>2018-05-24T07:55:06Z</time>
      </trkpt>
      <trkpt lat="45.21131" lon="3.98181">
        <ele>675</ele>
        <time>2018-05-24T07:55:19Z</time>
      </trkpt>
      <trkpt lat="45.21147" lon="3.98176">
        <ele>675</ele>
        <time>2018-05-24T07:55:31Z</time>
      </trkpt>
      <trkpt lat="45.21163" lon="3.98168">
        <ele>677</ele>
        <time>2018-05-24T07:55:44Z</time>
      </trkpt>
      <trkpt lat="45.21169" lon="3.98165">
        <ele>677</ele>
        <time>2018-05-24T07:55:50Z</time>
      </trkpt>
      <trkpt lat="45.21187" lon="3.98159">
        <ele>678</ele>
        <time>2018-05-24T07:56:04Z</time>
      </trkpt>
      <trkpt lat="45.21208" lon="3.9815">
        <ele>679</ele>
        <time>2018-05-24T07:56:20Z</time>
      </trkpt>
      <trkpt lat="45.21225" lon="3.98146">
        <ele>680</ele>
        <time>2018-05-24T07:56:36Z</time>
      </trkpt>
      <trkpt lat="45.2125" lon="3.98134">
        <ele>681</ele>
        <time>2018-05-24T07:56:52Z</time>
      </trkpt>
      <trkpt lat="45.21263" lon="3.98137">
        <ele>684</ele>
        <time>2018-05-24T07:57:03Z</time>
      </trkpt>
      <trkpt lat="45.21286" lon="3.98141">
        <ele>685</ele>
        <time>2018-05-24T07:57:20Z</time>
      </trkpt>
      <trkpt lat="45.21304" lon="3.98135">
        <ele>685</ele>
        <time>2018-05-24T07:57:33Z</time>
      </trkpt>
      <trkpt lat="45.21322" lon="3.98128">
        <ele>685</ele>
        <time>2018-05-24T07:57:46Z</time>
      </trkpt>
      <trkpt lat="45.2134" lon="3.98128">
        <ele>688</ele>
        <time>2018-05-24T07:58:00Z</time>
      </trkpt>
      <trkpt lat="45.21346" lon="3.9813">
        <ele>689</ele>
        <time>2018-05-24T07:58:11Z</time>
      </trkpt>
      <trkpt lat="45.21344" lon="3.9813">
        <ele>688</ele>
        <time>2018-05-24T07:58:12Z</time>
      </trkpt>
      <trkpt lat="45.21322" lon="3.9813">
        <ele>685</ele>
        <time>2018-05-24T07:58:26Z</time>
      </trkpt>
      <trkpt lat="45.21307" lon="3.98135">
        <ele>685</ele>
        <time>2018-05-24T07:58:36Z</time>
      </trkpt>
      <trkpt lat="45.2129" lon="3.9814">
        <ele>685</ele>
        <time>2018-05-24T07:58:47Z</time>
      </trkpt>
      <trkpt lat="45.21278" lon="3.98138">
        <ele>685</ele>
        <time>2018-05-24T07:58:58Z</time>
      </trkpt>
      <trkpt lat="45.21274" lon="3.98122">
        <ele>684</ele>
        <time>2018-05-24T07:59:05Z</time>
      </trkpt>
      <trkpt lat="45.21288" lon="3.98109">
        <ele>685</ele>
        <time>2018-05-24T07:59:17Z</time>
      </trkpt>
      <trkpt lat="45.21308" lon="3.98093">
        <ele>685</ele>
        <time>2018-05-24T07:59:33Z</time>
      </trkpt>
      <trkpt lat="45.21328" lon="3.98079">
        <ele>686</ele>
        <time>2018-05-24T07:59:49Z</time>
      </trkpt>
      <trkpt lat="45.21345" lon="3.98062">
        <ele>690</ele>
        <time>2018-05-24T08:00:04Z</time>
      </trkpt>
      <trkpt lat="45.21349" lon="3.98056">
        <ele>691</ele>
        <time>2018-05-24T08:00:09Z</time>
      </trkpt>
      <trkpt lat="45.21367" lon="3.98036">
        <ele>692</ele>
        <time>2018-05-24T08:00:28Z</time>
      </trkpt>
      <trkpt lat="45.21384" lon="3.98024">
        <ele>693</ele>
        <time>2018-05-24T08:00:43Z</time>
      </trkpt>
      <trkpt lat="45.21401" lon="3.98014">
        <ele>695</ele>
        <time>2018-05-24T08:00:58Z</time>
      </trkpt>
      <trkpt lat="45.21404" lon="3.9801">
        <ele>695</ele>
        <time>2018-05-24T08:01:02Z</time>
      </trkpt>
      <trkpt lat="45.21409" lon="3.98007">
        <ele>696</ele>
        <time>2018-05-24T08:01:07Z</time>
      </trkpt>
      <trkpt lat="45.21426" lon="3.98003">
        <ele>700</ele>
        <time>2018-05-24T08:01:21Z</time>
      </trkpt>
      <trkpt lat="45.21441" lon="3.98002">
        <ele>701</ele>
        <time>2018-05-24T08:01:33Z</time>
      </trkpt>
      <trkpt lat="45.21457" lon="3.98003">
        <ele>703</ele>
        <time>2018-05-24T08:01:48Z</time>
      </trkpt>
      <trkpt lat="45.21477" lon="3.98007">
        <ele>706</ele>
        <time>2018-05-24T08:02:03Z</time>
      </trkpt>
      <trkpt lat="45.21483" lon="3.98007">
        <ele>707</ele>
        <time>2018-05-24T08:02:09Z</time>
      </trkpt>
      <trkpt lat="45.21499" lon="3.98002">
        <ele>710</ele>
        <time>2018-05-24T08:02:24Z</time>
      </trkpt>
      <trkpt lat="45.21514" lon="3.97995">
        <ele>714</ele>
        <time>2018-05-24T08:02:38Z</time>
      </trkpt>
      <trkpt lat="45.21517" lon="3.97993">
        <ele>715</ele>
        <time>2018-05-24T08:02:54Z</time>
      </trkpt>
      <trkpt lat="45.21527" lon="3.97981">
        <ele>717</ele>
        <time>2018-05-24T08:03:10Z</time>
      </trkpt>
      <trkpt lat="45.21528" lon="3.97979">
        <ele>717</ele>
        <time>2018-05-24T08:03:17Z</time>
      </trkpt>
      <trkpt lat="45.21538" lon="3.97953">
        <ele>718</ele>
        <time>2018-05-24T08:03:34Z</time>
      </trkpt>
      <trkpt lat="45.21552" lon="3.97921">
        <ele>721</ele>
        <time>2018-05-24T08:03:54Z</time>
      </trkpt>
      <trkpt lat="45.21557" lon="3.9791">
        <ele>721</ele>
        <time>2018-05-24T08:04:02Z</time>
      </trkpt>
      <trkpt lat="45.21568" lon="3.979">
        <ele>722</ele>
        <time>2018-05-24T08:04:17Z</time>
      </trkpt>
      <trkpt lat="45.21571" lon="3.97898">
        <ele>722</ele>
        <time>2018-05-24T08:04:20Z</time>
      </trkpt>
      <trkpt lat="45.21579" lon="3.97894">
        <ele>722</ele>
        <time>2018-05-24T08:04:29Z</time>
      </trkpt>
      <trkpt lat="45.21593" lon="3.97888">
        <ele>733</ele>
        <time>2018-05-24T08:04:40Z</time>
      </trkpt>
      <trkpt lat="45.21606" lon="3.9788">
        <ele>734</ele>
        <time>2018-05-24T08:04:51Z</time>
      </trkpt>
      <trkpt lat="45.21615" lon="3.97873">
        <ele>734</ele>
        <time>2018-05-24T08:05:00Z</time>
      </trkpt>
      <trkpt lat="45.21616" lon="3.97871">
        <ele>735</ele>
        <time>2018-05-24T08:05:02Z</time>
      </trkpt>
      <trkpt lat="45.21626" lon="3.97858">
        <ele>735</ele>
        <time>2018-05-24T08:05:12Z</time>
      </trkpt>
      <trkpt lat="45.21626" lon="3.97857">
        <ele>735</ele>
        <time>2018-05-24T08:05:13Z</time>
      </trkpt>
      <trkpt lat="45.21632" lon="3.9785">
        <ele>736</ele>
        <time>2018-05-24T08:05:18Z</time>
      </trkpt>
      <trkpt lat="45.2164" lon="3.97841">
        <ele>738</ele>
        <time>2018-05-24T08:05:28Z</time>
      </trkpt>
      <trkpt lat="45.21641" lon="3.9784">
        <ele>738</ele>
        <time>2018-05-24T08:05:30Z</time>
      </trkpt>
      <trkpt lat="45.21652" lon="3.97827">
        <ele>738</ele>
        <time>2018-05-24T08:05:42Z</time>
      </trkpt>
      <trkpt lat="45.21663" lon="3.97818">
        <ele>738</ele>
        <time>2018-05-24T08:05:56Z</time>
      </trkpt>
      <trkpt lat="45.21673" lon="3.97806">
        <ele>750</ele>
        <time>2018-05-24T08:06:05Z</time>
      </trkpt>
      <trkpt lat="45.21682" lon="3.97794">
        <ele>750</ele>
        <time>2018-05-24T08:06:13Z</time>
      </trkpt>
      <trkpt lat="45.21686" lon="3.97784">
        <ele>750</ele>
        <time>2018-05-24T08:06:22Z</time>
      </trkpt>
      <trkpt lat="45.21703" lon="3.97764">
        <ele>751</ele>
        <time>2018-05-24T08:06:37Z</time>
      </trkpt>
      <trkpt lat="45.21722" lon="3.9774">
        <ele>751</ele>
        <time>2018-05-24T08:06:53Z</time>
      </trkpt>
      <trkpt lat="45.21733" lon="3.97719">
        <ele>751</ele>
        <time>2018-05-24T08:07:09Z</time>
      </trkpt>
      <trkpt lat="45.21739" lon="3.97711">
        <ele>751</ele>
        <time>2018-05-24T08:07:15Z</time>
      </trkpt>
      <trkpt lat="45.21746" lon="3.97707">
        <ele>751</ele>
        <time>2018-05-24T08:07:19Z</time>
      </trkpt>
      <trkpt lat="45.21757" lon="3.97699">
        <ele>765</ele>
        <time>2018-05-24T08:07:25Z</time>
      </trkpt>
      <trkpt lat="45.21758" lon="3.97694">
        <ele>764</ele>
        <time>2018-05-24T08:07:30Z</time>
      </trkpt>
      <trkpt lat="45.21758" lon="3.97688">
        <ele>764</ele>
        <time>2018-05-24T08:07:36Z</time>
      </trkpt>
      <trkpt lat="45.21758" lon="3.97667">
        <ele>759</ele>
        <time>2018-05-24T08:07:48Z</time>
      </trkpt>
      <trkpt lat="45.21758" lon="3.97653">
        <ele>761</ele>
        <time>2018-05-24T08:08:00Z</time>
      </trkpt>
      <trkpt lat="45.21755" lon="3.97649">
        <ele>762</ele>
        <time>2018-05-24T08:08:13Z</time>
      </trkpt>
      <trkpt lat="45.21754" lon="3.97642">
        <ele>763</ele>
        <time>2018-05-24T08:08:17Z</time>
      </trkpt>
      <trkpt lat="45.21752" lon="3.97634">
        <ele>763</ele>
        <time>2018-05-24T08:08:22Z</time>
      </trkpt>
      <trkpt lat="45.21752" lon="3.97615">
        <ele>764</ele>
        <time>2018-05-24T08:08:34Z</time>
      </trkpt>
      <trkpt lat="45.21755" lon="3.97596">
        <ele>762</ele>
        <time>2018-05-24T08:08:45Z</time>
      </trkpt>
      <trkpt lat="45.21758" lon="3.97581">
        <ele>761</ele>
        <time>2018-05-24T08:08:54Z</time>
      </trkpt>
      <trkpt lat="45.21758" lon="3.97574">
        <ele>762</ele>
        <time>2018-05-24T08:09:00Z</time>
      </trkpt>
      <trkpt lat="45.21759" lon="3.9755">
        <ele>765</ele>
        <time>2018-05-24T08:09:13Z</time>
      </trkpt>
      <trkpt lat="45.21764" lon="3.97531">
        <ele>765</ele>
        <time>2018-05-24T08:09:27Z</time>
      </trkpt>
      <trkpt lat="45.21767" lon="3.97505">
        <ele>764</ele>
        <time>2018-05-24T08:09:38Z</time>
      </trkpt>
      <trkpt lat="45.21763" lon="3.97468">
        <ele>769</ele>
        <time>2018-05-24T08:09:55Z</time>
      </trkpt>
      <trkpt lat="45.2176" lon="3.97458">
        <ele>770</ele>
        <time>2018-05-24T08:10:01Z</time>
      </trkpt>
      <trkpt lat="45.21756" lon="3.97428">
        <ele>769</ele>
        <time>2018-05-24T08:10:18Z</time>
      </trkpt>
      <trkpt lat="45.21756" lon="3.97427">
        <ele>769</ele>
        <time>2018-05-24T08:10:19Z</time>
      </trkpt>
      <trkpt lat="45.21752" lon="3.97419">
        <ele>768</ele>
        <time>2018-05-24T08:10:23Z</time>
      </trkpt>
      <trkpt lat="45.21745" lon="3.974">
        <ele>765</ele>
        <time>2018-05-24T08:10:37Z</time>
      </trkpt>
      <trkpt lat="45.21734" lon="3.97379">
        <ele>764</ele>
        <time>2018-05-24T08:10:53Z</time>
      </trkpt>
      <trkpt lat="45.21728" lon="3.97369">
        <ele>764</ele>
        <time>2018-05-24T08:10:59Z</time>
      </trkpt>
      <trkpt lat="45.21714" lon="3.97355">
        <ele>763</ele>
        <time>2018-05-24T08:11:11Z</time>
      </trkpt>
      <trkpt lat="45.21702" lon="3.97336">
        <ele>762</ele>
        <time>2018-05-24T08:11:25Z</time>
      </trkpt>
      <trkpt lat="45.2169" lon="3.97317">
        <ele>767</ele>
        <time>2018-05-24T08:11:39Z</time>
      </trkpt>
      <trkpt lat="45.21676" lon="3.97299">
        <ele>767</ele>
        <time>2018-05-24T08:11:51Z</time>
      </trkpt>
      <trkpt lat="45.21671" lon="3.97285">
        <ele>768</ele>
        <time>2018-05-24T08:12:00Z</time>
      </trkpt>
      <trkpt lat="45.21671" lon="3.97282">
        <ele>768</ele>
        <time>2018-05-24T08:12:04Z</time>
      </trkpt>
      <trkpt lat="45.21673" lon="3.97267">
        <ele>768</ele>
        <time>2018-05-24T08:12:17Z</time>
      </trkpt>
      <trkpt lat="45.21678" lon="3.97255">
        <ele>768</ele>
        <time>2018-05-24T08:12:30Z</time>
      </trkpt>
      <trkpt lat="45.21677" lon="3.97247">
        <ele>772</ele>
        <time>2018-05-24T08:12:35Z</time>
      </trkpt>
      <trkpt lat="45.21672" lon="3.97223">
        <ele>777</ele>
        <time>2018-05-24T08:12:49Z</time>
      </trkpt>
      <trkpt lat="45.21668" lon="3.9721">
        <ele>779</ele>
        <time>2018-05-24T08:12:57Z</time>
      </trkpt>
      <trkpt lat="45.21661" lon="3.97193">
        <ele>769</ele>
        <time>2018-05-24T08:13:08Z</time>
      </trkpt>
      <trkpt lat="45.2165" lon="3.97169">
        <ele>772</ele>
        <time>2018-05-24T08:13:23Z</time>
      </trkpt>
      <trkpt lat="45.21642" lon="3.97148">
        <ele>776</ele>
        <time>2018-05-24T08:13:37Z</time>
      </trkpt>
      <trkpt lat="45.21629" lon="3.97124">
        <ele>776</ele>
        <time>2018-05-24T08:13:54Z</time>
      </trkpt>
      <trkpt lat="45.21615" lon="3.97111">
        <ele>775</ele>
        <time>2018-05-24T08:14:07Z</time>
      </trkpt>
      <trkpt lat="45.21604" lon="3.97101">
        <ele>775</ele>
        <time>2018-05-24T08:14:17Z</time>
      </trkpt>
      <trkpt lat="45.21581" lon="3.97083">
        <ele>774</ele>
        <time>2018-05-24T08:14:35Z</time>
      </trkpt>
      <trkpt lat="45.21575" lon="3.97077">
        <ele>774</ele>
        <time>2018-05-24T08:14:41Z</time>
      </trkpt>
      <trkpt lat="45.21569" lon="3.97071">
        <ele>774</ele>
        <time>2018-05-24T08:14:45Z</time>
      </trkpt>
      <trkpt lat="45.21553" lon="3.97062">
        <ele>774</ele>
        <time>2018-05-24T08:14:58Z</time>
      </trkpt>
      <trkpt lat="45.21521" lon="3.97032">
        <ele>774</ele>
        <time>2018-05-24T08:15:31Z</time>
      </trkpt>
      <trkpt lat="45.21518" lon="3.97025">
        <ele>774</ele>
        <time>2018-05-24T08:15:37Z</time>
      </trkpt>
      <trkpt lat="45.21505" lon="3.96999">
        <ele>778</ele>
        <time>2018-05-24T08:15:51Z</time>
      </trkpt>
      <trkpt lat="45.21491" lon="3.96974">
        <ele>772</ele>
        <time>2018-05-24T08:16:08Z</time>
      </trkpt>
      <trkpt lat="45.21465" lon="3.96944">
        <ele>770</ele>
        <time>2018-05-24T08:16:22Z</time>
      </trkpt>
      <trkpt lat="45.21467" lon="3.96937">
        <ele>771</ele>
        <time>2018-05-24T08:16:28Z</time>
      </trkpt>
      <trkpt lat="45.21474" lon="3.96936">
        <ele>773</ele>
        <time>2018-05-24T08:16:38Z</time>
      </trkpt>
      <trkpt lat="45.21477" lon="3.9694">
        <ele>773</ele>
        <time>2018-05-24T08:16:44Z</time>
      </trkpt>
      <trkpt lat="45.21494" lon="3.96946">
        <ele>774</ele>
        <time>2018-05-24T08:16:58Z</time>
      </trkpt>
      <trkpt lat="45.21504" lon="3.96952">
        <ele>787</ele>
        <time>2018-05-24T08:17:11Z</time>
      </trkpt>
      <trkpt lat="45.21519" lon="3.96969">
        <ele>786</ele>
        <time>2018-05-24T08:17:26Z</time>
      </trkpt>
      <trkpt lat="45.2152" lon="3.9697">
        <ele>786</ele>
        <time>2018-05-24T08:17:27Z</time>
      </trkpt>
      <trkpt lat="45.21536" lon="3.96973">
        <ele>787</ele>
        <time>2018-05-24T08:17:43Z</time>
      </trkpt>
      <trkpt lat="45.2155" lon="3.96973">
        <ele>789</ele>
        <time>2018-05-24T08:17:59Z</time>
      </trkpt>
      <trkpt lat="45.21556" lon="3.96975">
        <ele>789</ele>
        <time>2018-05-24T08:18:05Z</time>
      </trkpt>
      <trkpt lat="45.21579" lon="3.96976">
        <ele>791</ele>
        <time>2018-05-24T08:18:23Z</time>
      </trkpt>
      <trkpt lat="45.21597" lon="3.9698">
        <ele>801</ele>
        <time>2018-05-24T08:18:40Z</time>
      </trkpt>
      <trkpt lat="45.21616" lon="3.96981">
        <ele>804</ele>
        <time>2018-05-24T08:18:57Z</time>
      </trkpt>
      <trkpt lat="45.21625" lon="3.96986">
        <ele>805</ele>
        <time>2018-05-24T08:19:14Z</time>
      </trkpt>
      <trkpt lat="45.21643" lon="3.96986">
        <ele>807</ele>
        <time>2018-05-24T08:19:30Z</time>
      </trkpt>
      <trkpt lat="45.2167" lon="3.97">
        <ele>808</ele>
        <time>2018-05-24T08:19:44Z</time>
      </trkpt>
      <trkpt lat="45.21678" lon="3.97002">
        <ele>807</ele>
        <time>2018-05-24T08:19:50Z</time>
      </trkpt>
      <trkpt lat="45.21693" lon="3.97">
        <ele>808</ele>
        <time>2018-05-24T08:20:05Z</time>
      </trkpt>
      <trkpt lat="45.21697" lon="3.97003">
        <ele>808</ele>
        <time>2018-05-24T08:20:09Z</time>
      </trkpt>
      <trkpt lat="45.21714" lon="3.97012">
        <ele>809</ele>
        <time>2018-05-24T08:20:27Z</time>
      </trkpt>
      <trkpt lat="45.21731" lon="3.97015">
        <ele>812</ele>
        <time>2018-05-24T08:20:42Z</time>
      </trkpt>
      <trkpt lat="45.21748" lon="3.97019">
        <ele>814</ele>
        <time>2018-05-24T08:21:00Z</time>
      </trkpt>
      <trkpt lat="45.21769" lon="3.97018">
        <ele>822</ele>
        <time>2018-05-24T08:21:17Z</time>
      </trkpt>
      <trkpt lat="45.21785" lon="3.97019">
        <ele>823</ele>
        <time>2018-05-24T08:21:34Z</time>
      </trkpt>
      <trkpt lat="45.21795" lon="3.97015">
        <ele>824</ele>
        <time>2018-05-24T08:21:51Z</time>
      </trkpt>
      <trkpt lat="45.21806" lon="3.97009">
        <ele>826</ele>
        <time>2018-05-24T08:21:59Z</time>
      </trkpt>
      <trkpt lat="45.21833" lon="3.96995">
        <ele>836</ele>
        <time>2018-05-24T08:22:19Z</time>
      </trkpt>
      <trkpt lat="45.21845" lon="3.9698">
        <ele>840</ele>
        <time>2018-05-24T08:22:38Z</time>
      </trkpt>
      <trkpt lat="45.21845" lon="3.9698">
        <ele>840</ele>
        <time>2018-05-24T08:22:39Z</time>
      </trkpt>
      <trkpt lat="45.21834" lon="3.96976">
        <ele>840</ele>
        <time>2018-05-24T08:22:51Z</time>
      </trkpt>
      <trkpt lat="45.21836" lon="3.96969">
        <ele>841</ele>
        <time>2018-05-24T08:22:55Z</time>
      </trkpt>
      <trkpt lat="45.21839" lon="3.96957">
        <ele>842</ele>
        <time>2018-05-24T08:23:06Z</time>
      </trkpt>
      <trkpt lat="45.21843" lon="3.96943">
        <ele>842</ele>
        <time>2018-05-24T08:23:15Z</time>
      </trkpt>
      <trkpt lat="45.21846" lon="3.96928">
        <ele>843</ele>
        <time>2018-05-24T08:23:24Z</time>
      </trkpt>
      <trkpt lat="45.21848" lon="3.96908">
        <ele>845</ele>
        <time>2018-05-24T08:23:39Z</time>
      </trkpt>
      <trkpt lat="45.21865" lon="3.96866">
        <ele>847</ele>
        <time>2018-05-24T08:24:00Z</time>
      </trkpt>
      <trkpt lat="45.2187" lon="3.96829">
        <ele>847</ele>
        <time>2018-05-24T08:24:18Z</time>
      </trkpt>
      <trkpt lat="45.21872" lon="3.96817">
        <ele>847</ele>
        <time>2018-05-24T08:24:30Z</time>
      </trkpt>
      <trkpt lat="45.21881" lon="3.96801">
        <ele>847</ele>
        <time>2018-05-24T08:24:43Z</time>
      </trkpt>
      <trkpt lat="45.21885" lon="3.96796">
        <ele>847</ele>
        <time>2018-05-24T08:24:49Z</time>
      </trkpt>
      <trkpt lat="45.21886" lon="3.96795">
        <ele>847</ele>
        <time>2018-05-24T08:24:51Z</time>
      </trkpt>
      <trkpt lat="45.21898" lon="3.96779">
        <ele>847</ele>
        <time>2018-05-24T08:25:03Z</time>
      </trkpt>
      <trkpt lat="45.219" lon="3.96776">
        <ele>847</ele>
        <time>2018-05-24T08:25:05Z</time>
      </trkpt>
      <trkpt lat="45.21908" lon="3.96757">
        <ele>848</ele>
        <time>2018-05-24T08:25:20Z</time>
      </trkpt>
      <trkpt lat="45.21926" lon="3.96735">
        <ele>849</ele>
        <time>2018-05-24T08:25:35Z</time>
      </trkpt>
      <trkpt lat="45.21937" lon="3.96704">
        <ele>850</ele>
        <time>2018-05-24T08:25:50Z</time>
      </trkpt>
      <trkpt lat="45.21939" lon="3.96688">
        <ele>850</ele>
        <time>2018-05-24T08:26:02Z</time>
      </trkpt>
      <trkpt lat="45.21954" lon="3.96664">
        <ele>849</ele>
        <time>2018-05-24T08:26:21Z</time>
      </trkpt>
      <trkpt lat="45.21967" lon="3.96641">
        <ele>850</ele>
        <time>2018-05-24T08:26:36Z</time>
      </trkpt>
      <trkpt lat="45.21972" lon="3.96621">
        <ele>849</ele>
        <time>2018-05-24T08:26:50Z</time>
      </trkpt>
      <trkpt lat="45.21977" lon="3.96607">
        <ele>850</ele>
        <time>2018-05-24T08:27:08Z</time>
      </trkpt>
      <trkpt lat="45.21986" lon="3.96586">
        <ele>850</ele>
        <time>2018-05-24T08:27:23Z</time>
      </trkpt>
      <trkpt lat="45.21986" lon="3.96576">
        <ele>848</ele>
        <time>2018-05-24T08:27:30Z</time>
      </trkpt>
      <trkpt lat="45.21989" lon="3.96546">
        <ele>847</ele>
        <time>2018-05-24T08:27:45Z</time>
      </trkpt>
      <trkpt lat="45.21996" lon="3.96516">
        <ele>848</ele>
        <time>2018-05-24T08:28:03Z</time>
      </trkpt>
      <trkpt lat="45.22002" lon="3.96492">
        <ele>856</ele>
        <time>2018-05-24T08:28:22Z</time>
      </trkpt>
      <trkpt lat="45.22009" lon="3.96483">
        <ele>859</ele>
        <time>2018-05-24T08:28:38Z</time>
      </trkpt>
      <trkpt lat="45.2201" lon="3.96483">
        <ele>859</ele>
        <time>2018-05-24T08:28:39Z</time>
      </trkpt>
      <trkpt lat="45.22026" lon="3.96491">
        <ele>862</ele>
        <time>2018-05-24T08:28:58Z</time>
      </trkpt>
      <trkpt lat="45.22037" lon="3.96493">
        <ele>864</ele>
        <time>2018-05-24T08:29:19Z</time>
      </trkpt>
      <trkpt lat="45.22056" lon="3.96494">
        <ele>868</ele>
        <time>2018-05-24T08:29:38Z</time>
      </trkpt>
      <trkpt lat="45.22085" lon="3.96488">
        <ele>881</ele>
        <time>2018-05-24T08:30:02Z</time>
      </trkpt>
      <trkpt lat="45.22101" lon="3.96483">
        <ele>885</ele>
        <time>2018-05-24T08:30:15Z</time>
      </trkpt>
      <trkpt lat="45.22123" lon="3.96473">
        <ele>889</ele>
        <time>2018-05-24T08:30:38Z</time>
      </trkpt>
      <trkpt lat="45.22134" lon="3.96466">
        <ele>891</ele>
        <time>2018-05-24T08:31:00Z</time>
      </trkpt>
      <trkpt lat="45.2214" lon="3.96456">
        <ele>892</ele>
        <time>2018-05-24T08:31:17Z</time>
      </trkpt>
      <trkpt lat="45.22139" lon="3.96399">
        <ele>893</ele>
        <time>2018-05-24T08:31:37Z</time>
      </trkpt>
      <trkpt lat="45.22133" lon="3.96367">
        <ele>892</ele>
        <time>2018-05-24T08:31:54Z</time>
      </trkpt>
      <trkpt lat="45.22134" lon="3.96361">
        <ele>892</ele>
        <time>2018-05-24T08:31:57Z</time>
      </trkpt>
      <trkpt lat="45.22125" lon="3.9634">
        <ele>891</ele>
        <time>2018-05-24T08:32:14Z</time>
      </trkpt>
      <trkpt lat="45.22125" lon="3.9635">
        <ele>891</ele>
        <time>2018-05-24T08:32:28Z</time>
      </trkpt>
      <trkpt lat="45.22136" lon="3.96345">
        <ele>893</ele>
        <time>2018-05-24T08:32:46Z</time>
      </trkpt>
      <trkpt lat="45.22159" lon="3.96325">
        <ele>897</ele>
        <time>2018-05-24T08:33:05Z</time>
      </trkpt>
      <trkpt lat="45.22166" lon="3.96306">
        <ele>895</ele>
        <time>2018-05-24T08:33:16Z</time>
      </trkpt>
      <trkpt lat="45.22172" lon="3.96291">
        <ele>907</ele>
        <time>2018-05-24T08:33:28Z</time>
      </trkpt>
      <trkpt lat="45.22177" lon="3.96276">
        <ele>907</ele>
        <time>2018-05-24T08:33:38Z</time>
      </trkpt>
      <trkpt lat="45.2218" lon="3.9627">
        <ele>906</ele>
        <time>2018-05-24T08:33:45Z</time>
      </trkpt>
      <trkpt lat="45.22183" lon="3.96262">
        <ele>906</ele>
        <time>2018-05-24T08:33:53Z</time>
      </trkpt>
      <trkpt lat="45.2219" lon="3.9625">
        <ele>906</ele>
        <time>2018-05-24T08:34:05Z</time>
      </trkpt>
      <trkpt lat="45.22193" lon="3.9623">
        <ele>907</ele>
        <time>2018-05-24T08:34:22Z</time>
      </trkpt>
      <trkpt lat="45.22205" lon="3.96183">
        <ele>909</ele>
        <time>2018-05-24T08:34:38Z</time>
      </trkpt>
      <trkpt lat="45.22214" lon="3.96153">
        <ele>911</ele>
        <time>2018-05-24T08:34:56Z</time>
      </trkpt>
      <trkpt lat="45.22224" lon="3.96135">
        <ele>912</ele>
        <time>2018-05-24T08:35:13Z</time>
      </trkpt>
      <trkpt lat="45.22228" lon="3.96132">
        <ele>912</ele>
        <time>2018-05-24T08:35:23Z</time>
      </trkpt>
      <trkpt lat="45.22246" lon="3.96125">
        <ele>913</ele>
        <time>2018-05-24T08:35:41Z</time>
      </trkpt>
      <trkpt lat="45.22251" lon="3.96123">
        <ele>926</ele>
        <time>2018-05-24T08:35:47Z</time>
      </trkpt>
      <trkpt lat="45.2226" lon="3.96135">
        <ele>926</ele>
        <time>2018-05-24T08:36:05Z</time>
      </trkpt>
      <trkpt lat="45.22274" lon="3.96134">
        <ele>928</ele>
        <time>2018-05-24T08:36:20Z</time>
      </trkpt>
      <trkpt lat="45.22288" lon="3.9612">
        <ele>930</ele>
        <time>2018-05-24T08:36:38Z</time>
      </trkpt>
      <trkpt lat="45.22298" lon="3.96105">
        <ele>931</ele>
        <time>2018-05-24T08:36:56Z</time>
      </trkpt>
      <trkpt lat="45.22307" lon="3.96091">
        <ele>932</ele>
        <time>2018-05-24T08:37:13Z</time>
      </trkpt>
      <trkpt lat="45.22309" lon="3.9609">
        <ele>933</ele>
        <time>2018-05-24T08:37:18Z</time>
      </trkpt>
      <trkpt lat="45.22319" lon="3.96087">
        <ele>934</ele>
        <time>2018-05-24T08:37:31Z</time>
      </trkpt>
      <trkpt lat="45.22328" lon="3.96085">
        <ele>936</ele>
        <time>2018-05-24T08:37:45Z</time>
      </trkpt>
      <trkpt lat="45.22339" lon="3.9608">
        <ele>938</ele>
        <time>2018-05-24T08:37:57Z</time>
      </trkpt>
      <trkpt lat="45.22353" lon="3.96073">
        <ele>938</ele>
        <time>2018-05-24T08:38:06Z</time>
      </trkpt>
      <trkpt lat="45.22357" lon="3.96072">
        <ele>937</ele>
        <time>2018-05-24T08:38:11Z</time>
      </trkpt>
      <trkpt lat="45.22375" lon="3.96068">
        <ele>938</ele>
        <time>2018-05-24T08:38:33Z</time>
      </trkpt>
      <trkpt lat="45.22386" lon="3.96082">
        <ele>938</ele>
        <time>2018-05-24T08:38:55Z</time>
      </trkpt>
      <trkpt lat="45.22394" lon="3.96087">
        <ele>942</ele>
        <time>2018-05-24T08:39:15Z</time>
      </trkpt>
      <trkpt lat="45.22408" lon="3.96074">
        <ele>939</ele>
        <time>2018-05-24T08:39:31Z</time>
      </trkpt>
      <trkpt lat="45.22419" lon="3.96068">
        <ele>939</ele>
        <time>2018-05-24T08:39:40Z</time>
      </trkpt>
      <trkpt lat="45.22442" lon="3.96065">
        <ele>938</ele>
        <time>2018-05-24T08:39:55Z</time>
      </trkpt>
      <trkpt lat="45.22459" lon="3.96058">
        <ele>937</ele>
        <time>2018-05-24T08:40:10Z</time>
      </trkpt>
      <trkpt lat="45.22474" lon="3.96053">
        <ele>937</ele>
        <time>2018-05-24T08:40:25Z</time>
      </trkpt>
      <trkpt lat="45.2249" lon="3.96045">
        <ele>936</ele>
        <time>2018-05-24T08:40:42Z</time>
      </trkpt>
      <trkpt lat="45.22511" lon="3.96039">
        <ele>932</ele>
        <time>2018-05-24T08:40:57Z</time>
      </trkpt>
      <trkpt lat="45.22537" lon="3.96024">
        <ele>930</ele>
        <time>2018-05-24T08:41:13Z</time>
      </trkpt>
      <trkpt lat="45.2255" lon="3.96017">
        <ele>928</ele>
        <time>2018-05-24T08:41:23Z</time>
      </trkpt>
      <trkpt lat="45.22556" lon="3.96011">
        <ele>927</ele>
        <time>2018-05-24T08:41:37Z</time>
      </trkpt>
      <trkpt lat="45.22573" lon="3.95983">
        <ele>918</ele>
        <time>2018-05-24T08:41:53Z</time>
      </trkpt>
      <trkpt lat="45.22585" lon="3.95957">
        <ele>910</ele>
        <time>2018-05-24T08:42:05Z</time>
      </trkpt>
      <trkpt lat="45.22585" lon="3.95953">
        <ele>910</ele>
        <time>2018-05-24T08:42:08Z</time>
      </trkpt>
      <trkpt lat="45.226" lon="3.95927">
        <ele>907</ele>
        <time>2018-05-24T08:42:25Z</time>
      </trkpt>
      <trkpt lat="45.22612" lon="3.95901">
        <ele>899</ele>
        <time>2018-05-24T08:42:41Z</time>
      </trkpt>
      <trkpt lat="45.22622" lon="3.95885">
        <ele>897</ele>
        <time>2018-05-24T08:42:51Z</time>
      </trkpt>
      <trkpt lat="45.22625" lon="3.95875">
        <ele>896</ele>
        <time>2018-05-24T08:42:55Z</time>
      </trkpt>
      <trkpt lat="45.2263" lon="3.95868">
        <ele>895</ele>
        <time>2018-05-24T08:42:59Z</time>
      </trkpt>
      <trkpt lat="45.22634" lon="3.95854">
        <ele>894</ele>
        <time>2018-05-24T08:43:07Z</time>
      </trkpt>
      <trkpt lat="45.22646" lon="3.95831">
        <ele>887</ele>
        <time>2018-05-24T08:43:20Z</time>
      </trkpt>
      <trkpt lat="45.22652" lon="3.95822">
        <ele>887</ele>
        <time>2018-05-24T08:43:27Z</time>
      </trkpt>
      <trkpt lat="45.22673" lon="3.95815">
        <ele>885</ele>
        <time>2018-05-24T08:43:43Z</time>
      </trkpt>
      <trkpt lat="45.22677" lon="3.9581">
        <ele>884</ele>
        <time>2018-05-24T08:43:49Z</time>
      </trkpt>
      <trkpt lat="45.22667" lon="3.9579">
        <ele>884</ele>
        <time>2018-05-24T08:44:03Z</time>
      </trkpt>
      <trkpt lat="45.22652" lon="3.95771">
        <ele>885</ele>
        <time>2018-05-24T08:44:18Z</time>
      </trkpt>
      <trkpt lat="45.22636" lon="3.95759">
        <ele>886</ele>
        <time>2018-05-24T08:44:32Z</time>
      </trkpt>
      <trkpt lat="45.22621" lon="3.95739">
        <ele>882</ele>
        <time>2018-05-24T08:44:46Z</time>
      </trkpt>
      <trkpt lat="45.22612" lon="3.95709">
        <ele>881</ele>
        <time>2018-05-24T08:45:03Z</time>
      </trkpt>
      <trkpt lat="45.22599" lon="3.95688">
        <ele>880</ele>
        <time>2018-05-24T08:45:17Z</time>
      </trkpt>
      <trkpt lat="45.2259" lon="3.95663">
        <ele>878</ele>
        <time>2018-05-24T08:45:31Z</time>
      </trkpt>
      <trkpt lat="45.2258" lon="3.95637">
        <ele>880</ele>
        <time>2018-05-24T08:45:46Z</time>
      </trkpt>
      <trkpt lat="45.22569" lon="3.95609">
        <ele>880</ele>
        <time>2018-05-24T08:46:03Z</time>
      </trkpt>
      <trkpt lat="45.2256" lon="3.95585">
        <ele>879</ele>
        <time>2018-05-24T08:46:19Z</time>
      </trkpt>
      <trkpt lat="45.22562" lon="3.95554">
        <ele>878</ele>
        <time>2018-05-24T08:46:34Z</time>
      </trkpt>
      <trkpt lat="45.22564" lon="3.95528">
        <ele>878</ele>
        <time>2018-05-24T08:46:48Z</time>
      </trkpt>
      <trkpt lat="45.22564" lon="3.95523">
        <ele>877</ele>
        <time>2018-05-24T08:46:51Z</time>
      </trkpt>
      <trkpt lat="45.22564" lon="3.95513">
        <ele>877</ele>
        <time>2018-05-24T08:46:56Z</time>
      </trkpt>
      <trkpt lat="45.22568" lon="3.95489">
        <ele>875</ele>
        <time>2018-05-24T08:47:11Z</time>
      </trkpt>
      <trkpt lat="45.22573" lon="3.95479">
        <ele>875</ele>
        <time>2018-05-24T08:47:20Z</time>
      </trkpt>
      <trkpt lat="45.22575" lon="3.95476">
        <ele>875</ele>
        <time>2018-05-24T08:47:23Z</time>
      </trkpt>
      <trkpt lat="45.22578" lon="3.95469">
        <ele>875</ele>
        <time>2018-05-24T08:47:30Z</time>
      </trkpt>
      <trkpt lat="45.22585" lon="3.95446">
        <ele>870</ele>
        <time>2018-05-24T08:47:41Z</time>
      </trkpt>
      <trkpt lat="45.2259" lon="3.95407">
        <ele>868</ele>
        <time>2018-05-24T08:48:00Z</time>
      </trkpt>
      <trkpt lat="45.22591" lon="3.95404">
        <ele>867</ele>
        <time>2018-05-24T08:48:02Z</time>
      </trkpt>
      <trkpt lat="45.22585" lon="3.9538">
        <ele>864</ele>
        <time>2018-05-24T08:48:17Z</time>
      </trkpt>
      <trkpt lat="45.22568" lon="3.95346">
        <ele>866</ele>
        <time>2018-05-24T08:48:34Z</time>
      </trkpt>
      <trkpt lat="45.22555" lon="3.95323">
        <ele>862</ele>
        <time>2018-05-24T08:48:51Z</time>
      </trkpt>
      <trkpt lat="45.22536" lon="3.95301">
        <ele>862</ele>
        <time>2018-05-24T08:49:08Z</time>
      </trkpt>
      <trkpt lat="45.22517" lon="3.95275">
        <ele>861</ele>
        <time>2018-05-24T08:49:26Z</time>
      </trkpt>
      <trkpt lat="45.225" lon="3.95259">
        <ele>860</ele>
        <time>2018-05-24T08:49:40Z</time>
      </trkpt>
      <trkpt lat="45.22485" lon="3.95233">
        <ele>858</ele>
        <time>2018-05-24T08:49:58Z</time>
      </trkpt>
      <trkpt lat="45.22473" lon="3.95209">
        <ele>857</ele>
        <time>2018-05-24T08:50:14Z</time>
      </trkpt>
      <trkpt lat="45.22465" lon="3.9519">
        <ele>856</ele>
        <time>2018-05-24T08:50:24Z</time>
      </trkpt>
      <trkpt lat="45.22451" lon="3.95164">
        <ele>850</ele>
        <time>2018-05-24T08:50:43Z</time>
      </trkpt>
      <trkpt lat="45.22431" lon="3.95145">
        <ele>850</ele>
        <time>2018-05-24T08:51:01Z</time>
      </trkpt>
      <trkpt lat="45.22415" lon="3.95138">
        <ele>850</ele>
        <time>2018-05-24T08:51:17Z</time>
      </trkpt>
      <trkpt lat="45.22398" lon="3.95129">
        <ele>849</ele>
        <time>2018-05-24T08:51:30Z</time>
      </trkpt>
      <trkpt lat="45.2238" lon="3.95114">
        <ele>848</ele>
        <time>2018-05-24T08:51:47Z</time>
      </trkpt>
      <trkpt lat="45.22366" lon="3.95103">
        <ele>847</ele>
        <time>2018-05-24T08:52:02Z</time>
      </trkpt>
      <trkpt lat="45.22343" lon="3.95087">
        <ele>845</ele>
        <time>2018-05-24T08:52:21Z</time>
      </trkpt>
      <trkpt lat="45.22321" lon="3.95071">
        <ele>840</ele>
        <time>2018-05-24T08:52:38Z</time>
      </trkpt>
      <trkpt lat="45.22318" lon="3.95065">
        <ele>840</ele>
        <time>2018-05-24T08:52:42Z</time>
      </trkpt>
      <trkpt lat="45.22317" lon="3.9505">
        <ele>839</ele>
        <time>2018-05-24T08:52:58Z</time>
      </trkpt>
      <trkpt lat="45.22315" lon="3.95046">
        <ele>839</ele>
        <time>2018-05-24T08:53:21Z</time>
      </trkpt>
      <trkpt lat="45.22316" lon="3.95046">
        <ele>839</ele>
        <time>2018-05-24T08:53:27Z</time>
      </trkpt>
      <trkpt lat="45.22328" lon="3.95035">
        <ele>838</ele>
        <time>2018-05-24T08:53:43Z</time>
      </trkpt>
      <trkpt lat="45.22338" lon="3.9503">
        <ele>838</ele>
        <time>2018-05-24T08:53:59Z</time>
      </trkpt>
      <trkpt lat="45.22353" lon="3.95015">
        <ele>838</ele>
        <time>2018-05-24T08:54:14Z</time>
      </trkpt>
      <trkpt lat="45.22365" lon="3.95005">
        <ele>838</ele>
        <time>2018-05-24T08:54:24Z</time>
      </trkpt>
      <trkpt lat="45.22376" lon="3.94995">
        <ele>834</ele>
        <time>2018-05-24T08:54:31Z</time>
      </trkpt>
      <trkpt lat="45.22407" lon="3.94973">
        <ele>834</ele>
        <time>2018-05-24T08:54:45Z</time>
      </trkpt>
      <trkpt lat="45.22428" lon="3.94958">
        <ele>835</ele>
        <time>2018-05-24T08:54:58Z</time>
      </trkpt>
      <trkpt lat="45.22446" lon="3.94953">
        <ele>835</ele>
        <time>2018-05-24T08:55:12Z</time>
      </trkpt>
      <trkpt lat="45.22447" lon="3.94952">
        <ele>834</ele>
        <time>2018-05-24T08:55:14Z</time>
      </trkpt>
      <trkpt lat="45.22466" lon="3.94943">
        <ele>835</ele>
        <time>2018-05-24T08:55:29Z</time>
      </trkpt>
      <trkpt lat="45.22478" lon="3.94943">
        <ele>835</ele>
        <time>2018-05-24T08:55:44Z</time>
      </trkpt>
      <trkpt lat="45.22502" lon="3.94937">
        <ele>834</ele>
        <time>2018-05-24T08:55:58Z</time>
      </trkpt>
      <trkpt lat="45.22504" lon="3.94938">
        <ele>835</ele>
        <time>2018-05-24T08:56:18Z</time>
      </trkpt>
      <trkpt lat="45.22507" lon="3.94936">
        <ele>834</ele>
        <time>2018-05-24T08:56:26Z</time>
      </trkpt>
      <trkpt lat="45.22504" lon="3.94932">
        <ele>834</ele>
        <time>2018-05-24T08:56:32Z</time>
      </trkpt>
      <trkpt lat="45.22507" lon="3.94929">
        <ele>834</ele>
        <time>2018-05-24T08:56:35Z</time>
      </trkpt>
      <trkpt lat="45.22522" lon="3.94914">
        <ele>833</ele>
        <time>2018-05-24T08:56:51Z</time>
      </trkpt>
      <trkpt lat="45.22524" lon="3.94895">
        <ele>833</ele>
        <time>2018-05-24T08:57:06Z</time>
      </trkpt>
      <trkpt lat="45.2252" lon="3.94894">
        <ele>833</ele>
        <time>2018-05-24T08:57:10Z</time>
      </trkpt>
      <trkpt lat="45.22509" lon="3.94884">
        <ele>833</ele>
        <time>2018-05-24T08:57:24Z</time>
      </trkpt>
      <trkpt lat="45.22505" lon="3.94873">
        <ele>833</ele>
        <time>2018-05-24T08:57:31Z</time>
      </trkpt>
      <trkpt lat="45.22485" lon="3.94844">
        <ele>832</ele>
        <time>2018-05-24T08:57:49Z</time>
      </trkpt>
      <trkpt lat="45.22471" lon="3.94819">
        <ele>833</ele>
        <time>2018-05-24T08:58:05Z</time>
      </trkpt>
      <trkpt lat="45.22464" lon="3.94808">
        <ele>833</ele>
        <time>2018-05-24T08:58:18Z</time>
      </trkpt>
      <trkpt lat="45.2245" lon="3.94786">
        <ele>833</ele>
        <time>2018-05-24T08:58:32Z</time>
      </trkpt>
      <trkpt lat="45.22433" lon="3.94775">
        <ele>833</ele>
        <time>2018-05-24T08:58:45Z</time>
      </trkpt>
      <trkpt lat="45.22412" lon="3.9477">
        <ele>834</ele>
        <time>2018-05-24T08:59:00Z</time>
      </trkpt>
      <trkpt lat="45.2239" lon="3.94774">
        <ele>834</ele>
        <time>2018-05-24T08:59:17Z</time>
      </trkpt>
      <trkpt lat="45.22375" lon="3.94768">
        <ele>834</ele>
        <time>2018-05-24T08:59:31Z</time>
      </trkpt>
      <trkpt lat="45.22362" lon="3.94755">
        <ele>835</ele>
        <time>2018-05-24T08:59:48Z</time>
      </trkpt>
      <trkpt lat="45.22348" lon="3.94749">
        <ele>838</ele>
        <time>2018-05-24T09:00:06Z</time>
      </trkpt>
      <trkpt lat="45.22346" lon="3.94749">
        <ele>838</ele>
        <time>2018-05-24T09:00:07Z</time>
      </trkpt>
      <trkpt lat="45.22321" lon="3.94747">
        <ele>839</ele>
        <time>2018-05-24T09:00:23Z</time>
      </trkpt>
      <trkpt lat="45.22306" lon="3.94731">
        <ele>840</ele>
        <time>2018-05-24T09:00:43Z</time>
      </trkpt>
      <trkpt lat="45.22291" lon="3.94719">
        <ele>840</ele>
        <time>2018-05-24T09:00:55Z</time>
      </trkpt>
      <trkpt lat="45.22269" lon="3.94702">
        <ele>841</ele>
        <time>2018-05-24T09:01:13Z</time>
      </trkpt>
      <trkpt lat="45.22252" lon="3.94689">
        <ele>842</ele>
        <time>2018-05-24T09:01:31Z</time>
      </trkpt>
      <trkpt lat="45.22249" lon="3.94685">
        <ele>843</ele>
        <time>2018-05-24T09:01:41Z</time>
      </trkpt>
      <trkpt lat="45.22233" lon="3.9466">
        <ele>848</ele>
        <time>2018-05-24T09:01:56Z</time>
      </trkpt>
      <trkpt lat="45.22226" lon="3.94649">
        <ele>849</ele>
        <time>2018-05-24T09:02:01Z</time>
      </trkpt>
      <trkpt lat="45.22211" lon="3.94638">
        <ele>850</ele>
        <time>2018-05-24T09:02:22Z</time>
      </trkpt>
      <trkpt lat="45.222" lon="3.94616">
        <ele>851</ele>
        <time>2018-05-24T09:02:40Z</time>
      </trkpt>
      <trkpt lat="45.22192" lon="3.94596">
        <ele>853</ele>
        <time>2018-05-24T09:02:58Z</time>
      </trkpt>
      <trkpt lat="45.22188" lon="3.9456">
        <ele>860</ele>
        <time>2018-05-24T09:03:15Z</time>
      </trkpt>
      <trkpt lat="45.22182" lon="3.94547">
        <ele>861</ele>
        <time>2018-05-24T09:03:32Z</time>
      </trkpt>
      <trkpt lat="45.22181" lon="3.94535">
        <ele>862</ele>
        <time>2018-05-24T09:03:42Z</time>
      </trkpt>
      <trkpt lat="45.2218" lon="3.94525">
        <ele>863</ele>
        <time>2018-05-24T09:03:49Z</time>
      </trkpt>
      <trkpt lat="45.22183" lon="3.94509">
        <ele>864</ele>
        <time>2018-05-24T09:03:59Z</time>
      </trkpt>
      <trkpt lat="45.22194" lon="3.94507">
        <ele>863</ele>
        <time>2018-05-24T09:04:14Z</time>
      </trkpt>
      <trkpt lat="45.22195" lon="3.94503">
        <ele>863</ele>
        <time>2018-05-24T09:04:24Z</time>
      </trkpt>
      <trkpt lat="45.22198" lon="3.94486">
        <ele>871</ele>
        <time>2018-05-24T09:04:31Z</time>
      </trkpt>
      <trkpt lat="45.22203" lon="3.94458">
        <ele>873</ele>
        <time>2018-05-24T09:04:49Z</time>
      </trkpt>
      <trkpt lat="45.22205" lon="3.94449">
        <ele>874</ele>
        <time>2018-05-24T09:04:55Z</time>
      </trkpt>
      <trkpt lat="45.22211" lon="3.94426">
        <ele>875</ele>
        <time>2018-05-24T09:05:07Z</time>
      </trkpt>
      <trkpt lat="45.22205" lon="3.94422">
        <ele>876</ele>
        <time>2018-05-24T09:05:20Z</time>
      </trkpt>
      <trkpt lat="45.22206" lon="3.9442">
        <ele>876</ele>
        <time>2018-05-24T09:05:45Z</time>
      </trkpt>
      <trkpt lat="45.22213" lon="3.94416">
        <ele>885</ele>
        <time>2018-05-24T09:06:06Z</time>
      </trkpt>
      <trkpt lat="45.22207" lon="3.94412">
        <ele>886</ele>
        <time>2018-05-24T09:06:24Z</time>
      </trkpt>
      <trkpt lat="45.22184" lon="3.94409">
        <ele>886</ele>
        <time>2018-05-24T09:06:42Z</time>
      </trkpt>
      <trkpt lat="45.22176" lon="3.94408">
        <ele>886</ele>
        <time>2018-05-24T09:06:53Z</time>
      </trkpt>
      <trkpt lat="45.22166" lon="3.94403">
        <ele>886</ele>
        <time>2018-05-24T09:07:12Z</time>
      </trkpt>
      <trkpt lat="45.22151" lon="3.94387">
        <ele>889</ele>
        <time>2018-05-24T09:07:33Z</time>
      </trkpt>
      <trkpt lat="45.22152" lon="3.94379">
        <ele>890</ele>
        <time>2018-05-24T09:07:52Z</time>
      </trkpt>
      <trkpt lat="45.22141" lon="3.94372">
        <ele>890</ele>
        <time>2018-05-24T09:08:10Z</time>
      </trkpt>
      <trkpt lat="45.22139" lon="3.9437">
        <ele>890</ele>
        <time>2018-05-24T09:08:12Z</time>
      </trkpt>
      <trkpt lat="45.22134" lon="3.94354">
        <ele>891</ele>
        <time>2018-05-24T09:08:22Z</time>
      </trkpt>
      <trkpt lat="45.22133" lon="3.94347">
        <ele>892</ele>
        <time>2018-05-24T09:08:26Z</time>
      </trkpt>
      <trkpt lat="45.2213" lon="3.94324">
        <ele>898</ele>
        <time>2018-05-24T09:08:42Z</time>
      </trkpt>
      <trkpt lat="45.22128" lon="3.943">
        <ele>899</ele>
        <time>2018-05-24T09:08:55Z</time>
      </trkpt>
      <trkpt lat="45.22127" lon="3.94293">
        <ele>899</ele>
        <time>2018-05-24T09:08:59Z</time>
      </trkpt>
      <trkpt lat="45.22125" lon="3.94285">
        <ele>899</ele>
        <time>2018-05-24T09:09:08Z</time>
      </trkpt>
      <trkpt lat="45.22114" lon="3.94295">
        <ele>898</ele>
        <time>2018-05-24T09:09:20Z</time>
      </trkpt>
      <trkpt lat="45.22106" lon="3.94295">
        <ele>897</ele>
        <time>2018-05-24T09:09:24Z</time>
      </trkpt>
      <trkpt lat="45.221" lon="3.9429">
        <ele>897</ele>
        <time>2018-05-24T09:09:30Z</time>
      </trkpt>
      <trkpt lat="45.22098" lon="3.94285">
        <ele>897</ele>
        <time>2018-05-24T09:09:34Z</time>
      </trkpt>
      <trkpt lat="45.22096" lon="3.94274">
        <ele>896</ele>
        <time>2018-05-24T09:09:49Z</time>
      </trkpt>
      <trkpt lat="45.22089" lon="3.94262">
        <ele>895</ele>
        <time>2018-05-24T09:10:02Z</time>
      </trkpt>
      <trkpt lat="45.22081" lon="3.94238">
        <ele>891</ele>
        <time>2018-05-24T09:10:16Z</time>
      </trkpt>
      <trkpt lat="45.22079" lon="3.94232">
        <ele>891</ele>
        <time>2018-05-24T09:10:20Z</time>
      </trkpt>
      <trkpt lat="45.22079" lon="3.94227">
        <ele>890</ele>
        <time>2018-05-24T09:10:23Z</time>
      </trkpt>
      <trkpt lat="45.22083" lon="3.94202">
        <ele>890</ele>
        <time>2018-05-24T09:10:37Z</time>
      </trkpt>
      <trkpt lat="45.22091" lon="3.94162">
        <ele>896</ele>
        <time>2018-05-24T09:10:57Z</time>
      </trkpt>
      <trkpt lat="45.2209" lon="3.94143">
        <ele>896</ele>
        <time>2018-05-24T09:11:11Z</time>
      </trkpt>
      <trkpt lat="45.2209" lon="3.94143">
        <ele>896</ele>
        <time>2018-05-24T09:11:30Z</time>
      </trkpt>
      <trkpt lat="45.2209" lon="3.94143">
        <ele>896</ele>
        <time>2018-05-24T09:11:49Z</time>
      </trkpt>
      <trkpt lat="45.22089" lon="3.94141">
        <ele>896</ele>
        <time>2018-05-24T09:12:12Z</time>
      </trkpt>
      <trkpt lat="45.22079" lon="3.94133">
        <ele>893</ele>
        <time>2018-05-24T09:12:25Z</time>
      </trkpt>
      <trkpt lat="45.22066" lon="3.94111">
        <ele>893</ele>
        <time>2018-05-24T09:12:41Z</time>
      </trkpt>
      <trkpt lat="45.2205" lon="3.94097">
        <ele>892</ele>
        <time>2018-05-24T09:12:56Z</time>
      </trkpt>
      <trkpt lat="45.22044" lon="3.94093">
        <ele>892</ele>
        <time>2018-05-24T09:13:02Z</time>
      </trkpt>
      <trkpt lat="45.22038" lon="3.94089">
        <ele>892</ele>
        <time>2018-05-24T09:13:06Z</time>
      </trkpt>
      <trkpt lat="45.22025" lon="3.94067">
        <ele>893</ele>
        <time>2018-05-24T09:13:20Z</time>
      </trkpt>
      <trkpt lat="45.22025" lon="3.94032">
        <ele>894</ele>
        <time>2018-05-24T09:13:38Z</time>
      </trkpt>
      <trkpt lat="45.2202" lon="3.9402">
        <ele>894</ele>
        <time>2018-05-24T09:13:47Z</time>
      </trkpt>
      <trkpt lat="45.22005" lon="3.94004">
        <ele>894</ele>
        <time>2018-05-24T09:14:02Z</time>
      </trkpt>
      <trkpt lat="45.21988" lon="3.9398">
        <ele>894</ele>
        <time>2018-05-24T09:14:19Z</time>
      </trkpt>
      <trkpt lat="45.21979" lon="3.93965">
        <ele>894</ele>
        <time>2018-05-24T09:14:33Z</time>
      </trkpt>
      <trkpt lat="45.21975" lon="3.93959">
        <ele>894</ele>
        <time>2018-05-24T09:14:37Z</time>
      </trkpt>
      <trkpt lat="45.21971" lon="3.93955">
        <ele>894</ele>
        <time>2018-05-24T09:14:42Z</time>
      </trkpt>
      <trkpt lat="45.21965" lon="3.93951">
        <ele>894</ele>
        <time>2018-05-24T09:14:48Z</time>
      </trkpt>
      <trkpt lat="45.2196" lon="3.93932">
        <ele>893</ele>
        <time>2018-05-24T09:14:59Z</time>
      </trkpt>
      <trkpt lat="45.21957" lon="3.93926">
        <ele>893</ele>
        <time>2018-05-24T09:15:03Z</time>
      </trkpt>
      <trkpt lat="45.21935" lon="3.93895">
        <ele>891</ele>
        <time>2018-05-24T09:15:23Z</time>
      </trkpt>
      <trkpt lat="45.21913" lon="3.93875">
        <ele>890</ele>
        <time>2018-05-24T09:15:40Z</time>
      </trkpt>
      <trkpt lat="45.21887" lon="3.93857">
        <ele>889</ele>
        <time>2018-05-24T09:15:59Z</time>
      </trkpt>
      <trkpt lat="45.21863" lon="3.93847">
        <ele>889</ele>
        <time>2018-05-24T09:16:17Z</time>
      </trkpt>
      <trkpt lat="45.21837" lon="3.93838">
        <ele>887</ele>
        <time>2018-05-24T09:16:35Z</time>
      </trkpt>
      <trkpt lat="45.21815" lon="3.9383">
        <ele>886</ele>
        <time>2018-05-24T09:16:52Z</time>
      </trkpt>
      <trkpt lat="45.21795" lon="3.9382">
        <ele>885</ele>
        <time>2018-05-24T09:17:06Z</time>
      </trkpt>
      <trkpt lat="45.21776" lon="3.93801">
        <ele>885</ele>
        <time>2018-05-24T09:17:21Z</time>
      </trkpt>
      <trkpt lat="45.21769" lon="3.93792">
        <ele>885</ele>
        <time>2018-05-24T09:17:29Z</time>
      </trkpt>
      <trkpt lat="45.21759" lon="3.93763">
        <ele>886</ele>
        <time>2018-05-24T09:17:45Z</time>
      </trkpt>
      <trkpt lat="45.2175" lon="3.93738">
        <ele>887</ele>
        <time>2018-05-24T09:17:59Z</time>
      </trkpt>
      <trkpt lat="45.21745" lon="3.93706">
        <ele>887</ele>
        <time>2018-05-24T09:18:14Z</time>
      </trkpt>
      <trkpt lat="45.2174" lon="3.93681">
        <ele>887</ele>
        <time>2018-05-24T09:18:27Z</time>
      </trkpt>
      <trkpt lat="45.21735" lon="3.93655">
        <ele>889</ele>
        <time>2018-05-24T09:18:40Z</time>
      </trkpt>
      <trkpt lat="45.2173" lon="3.93627">
        <ele>890</ele>
        <time>2018-05-24T09:18:55Z</time>
      </trkpt>
      <trkpt lat="45.21721" lon="3.93603">
        <ele>890</ele>
        <time>2018-05-24T09:19:09Z</time>
      </trkpt>
      <trkpt lat="45.21714" lon="3.9358">
        <ele>893</ele>
        <time>2018-05-24T09:19:23Z</time>
      </trkpt>
      <trkpt lat="45.21714" lon="3.93578">
        <ele>893</ele>
        <time>2018-05-24T09:19:24Z</time>
      </trkpt>
      <trkpt lat="45.21701" lon="3.93552">
        <ele>894</ele>
        <time>2018-05-24T09:19:39Z</time>
      </trkpt>
      <trkpt lat="45.21691" lon="3.93534">
        <ele>895</ele>
        <time>2018-05-24T09:19:52Z</time>
      </trkpt>
      <trkpt lat="45.21683" lon="3.93516">
        <ele>896</ele>
        <time>2018-05-24T09:20:05Z</time>
      </trkpt>
      <trkpt lat="45.21676" lon="3.93505">
        <ele>897</ele>
        <time>2018-05-24T09:20:13Z</time>
      </trkpt>
      <trkpt lat="45.21667" lon="3.93493">
        <ele>898</ele>
        <time>2018-05-24T09:20:21Z</time>
      </trkpt>
      <trkpt lat="45.21664" lon="3.9349">
        <ele>898</ele>
        <time>2018-05-24T09:20:24Z</time>
      </trkpt>
      <trkpt lat="45.21659" lon="3.93483">
        <ele>898</ele>
        <time>2018-05-24T09:20:29Z</time>
      </trkpt>
      <trkpt lat="45.2165" lon="3.93472">
        <ele>898</ele>
        <time>2018-05-24T09:20:37Z</time>
      </trkpt>
      <trkpt lat="45.21632" lon="3.93455">
        <ele>898</ele>
        <time>2018-05-24T09:20:52Z</time>
      </trkpt>
      <trkpt lat="45.21615" lon="3.93439">
        <ele>898</ele>
        <time>2018-05-24T09:21:07Z</time>
      </trkpt>
      <trkpt lat="45.21601" lon="3.93414">
        <ele>897</ele>
        <time>2018-05-24T09:21:23Z</time>
      </trkpt>
      <trkpt lat="45.21594" lon="3.93387">
        <ele>897</ele>
        <time>2018-05-24T09:21:38Z</time>
      </trkpt>
      <trkpt lat="45.21589" lon="3.9337">
        <ele>897</ele>
        <time>2018-05-24T09:21:49Z</time>
      </trkpt>
      <trkpt lat="45.21586" lon="3.93351">
        <ele>896</ele>
        <time>2018-05-24T09:21:59Z</time>
      </trkpt>
      <trkpt lat="45.21585" lon="3.93343">
        <ele>896</ele>
        <time>2018-05-24T09:22:03Z</time>
      </trkpt>
      <trkpt lat="45.21581" lon="3.93322">
        <ele>892</ele>
        <time>2018-05-24T09:22:12Z</time>
      </trkpt>
      <trkpt lat="45.21581" lon="3.93286">
        <ele>889</ele>
        <time>2018-05-24T09:22:29Z</time>
      </trkpt>
      <trkpt lat="45.21581" lon="3.9325">
        <ele>891</ele>
        <time>2018-05-24T09:22:45Z</time>
      </trkpt>
      <trkpt lat="45.21581" lon="3.93241">
        <ele>889</ele>
        <time>2018-05-24T09:22:56Z</time>
      </trkpt>
      <trkpt lat="45.21581" lon="3.93204">
        <ele>888</ele>
        <time>2018-05-24T09:23:13Z</time>
      </trkpt>
      <trkpt lat="45.21576" lon="3.93174">
        <ele>890</ele>
        <time>2018-05-24T09:23:26Z</time>
      </trkpt>
      <trkpt lat="45.21562" lon="3.93152">
        <ele>887</ele>
        <time>2018-05-24T09:23:42Z</time>
      </trkpt>
      <trkpt lat="45.21547" lon="3.93134">
        <ele>886</ele>
        <time>2018-05-24T09:23:56Z</time>
      </trkpt>
      <trkpt lat="45.21543" lon="3.93125">
        <ele>885</ele>
        <time>2018-05-24T09:24:03Z</time>
      </trkpt>
      <trkpt lat="45.21534" lon="3.93104">
        <ele>884</ele>
        <time>2018-05-24T09:24:16Z</time>
      </trkpt>
      <trkpt lat="45.21523" lon="3.93094">
        <ele>883</ele>
        <time>2018-05-24T09:24:27Z</time>
      </trkpt>
      <trkpt lat="45.2152" lon="3.93091">
        <ele>882</ele>
        <time>2018-05-24T09:24:31Z</time>
      </trkpt>
      <trkpt lat="45.21523" lon="3.93072">
        <ele>880</ele>
        <time>2018-05-24T09:24:45Z</time>
      </trkpt>
      <trkpt lat="45.21513" lon="3.9304">
        <ele>879</ele>
        <time>2018-05-24T09:25:03Z</time>
      </trkpt>
      <trkpt lat="45.21501" lon="3.93009">
        <ele>876</ele>
        <time>2018-05-24T09:25:18Z</time>
      </trkpt>
      <trkpt lat="45.21493" lon="3.92975">
        <ele>868</ele>
        <time>2018-05-24T09:25:34Z</time>
      </trkpt>
      <trkpt lat="45.21488" lon="3.92962">
        <ele>866</ele>
        <time>2018-05-24T09:25:40Z</time>
      </trkpt>
      <trkpt lat="45.21482" lon="3.9294">
        <ele>866</ele>
        <time>2018-05-24T09:25:53Z</time>
      </trkpt>
      <trkpt lat="45.21471" lon="3.92909">
        <ele>863</ele>
        <time>2018-05-24T09:26:08Z</time>
      </trkpt>
      <trkpt lat="45.21461" lon="3.9289">
        <ele>862</ele>
        <time>2018-05-24T09:26:21Z</time>
      </trkpt>
      <trkpt lat="45.21446" lon="3.92869">
        <ele>860</ele>
        <time>2018-05-24T09:26:34Z</time>
      </trkpt>
      <trkpt lat="45.21431" lon="3.92847">
        <ele>859</ele>
        <time>2018-05-24T09:26:49Z</time>
      </trkpt>
      <trkpt lat="45.2143" lon="3.92845">
        <ele>858</ele>
        <time>2018-05-24T09:26:50Z</time>
      </trkpt>
      <trkpt lat="45.21421" lon="3.92831">
        <ele>855</ele>
        <time>2018-05-24T09:27:02Z</time>
      </trkpt>
      <trkpt lat="45.21405" lon="3.92808">
        <ele>849</ele>
        <time>2018-05-24T09:27:17Z</time>
      </trkpt>
      <trkpt lat="45.21395" lon="3.92783">
        <ele>847</ele>
        <time>2018-05-24T09:27:32Z</time>
      </trkpt>
      <trkpt lat="45.21379" lon="3.92759">
        <ele>846</ele>
        <time>2018-05-24T09:27:48Z</time>
      </trkpt>
      <trkpt lat="45.21374" lon="3.92757">
        <ele>845</ele>
        <time>2018-05-24T09:27:52Z</time>
      </trkpt>
      <trkpt lat="45.21352" lon="3.92735">
        <ele>841</ele>
        <time>2018-05-24T09:28:08Z</time>
      </trkpt>
      <trkpt lat="45.2134" lon="3.92727">
        <ele>840</ele>
        <time>2018-05-24T09:28:18Z</time>
      </trkpt>
      <trkpt lat="45.21324" lon="3.92721">
        <ele>838</ele>
        <time>2018-05-24T09:28:29Z</time>
      </trkpt>
      <trkpt lat="45.21322" lon="3.92724">
        <ele>838</ele>
        <time>2018-05-24T09:28:37Z</time>
      </trkpt>
      <trkpt lat="45.21321" lon="3.92737">
        <ele>839</ele>
        <time>2018-05-24T09:28:42Z</time>
      </trkpt>
      <trkpt lat="45.21319" lon="3.92756">
        <ele>836</ele>
        <time>2018-05-24T09:28:53Z</time>
      </trkpt>
      <trkpt lat="45.2132" lon="3.92778">
        <ele>833</ele>
        <time>2018-05-24T09:29:02Z</time>
      </trkpt>
      <trkpt lat="45.21322" lon="3.92784">
        <ele>832</ele>
        <time>2018-05-24T09:29:06Z</time>
      </trkpt>
      <trkpt lat="45.21325" lon="3.92791">
        <ele>832</ele>
        <time>2018-05-24T09:29:10Z</time>
      </trkpt>
      <trkpt lat="45.21333" lon="3.92809">
        <ele>832</ele>
        <time>2018-05-24T09:29:19Z</time>
      </trkpt>
      <trkpt lat="45.21339" lon="3.92817">
        <ele>841</ele>
        <time>2018-05-24T09:29:26Z</time>
      </trkpt>
      <trkpt lat="45.21333" lon="3.92821">
        <ele>833</ele>
        <time>2018-05-24T09:29:35Z</time>
      </trkpt>
      <trkpt lat="45.21317" lon="3.92801">
        <ele>831</ele>
        <time>2018-05-24T09:29:53Z</time>
      </trkpt>
      <trkpt lat="45.213" lon="3.92784">
        <ele>830</ele>
        <time>2018-05-24T09:30:04Z</time>
      </trkpt>
      <trkpt lat="45.21295" lon="3.92779">
        <ele>830</ele>
        <time>2018-05-24T09:30:08Z</time>
      </trkpt>
      <trkpt lat="45.21274" lon="3.92764">
        <ele>829</ele>
        <time>2018-05-24T09:30:26Z</time>
      </trkpt>
      <trkpt lat="45.21254" lon="3.92754">
        <ele>828</ele>
        <time>2018-05-24T09:30:42Z</time>
      </trkpt>
      <trkpt lat="45.21234" lon="3.92739">
        <ele>824</ele>
        <time>2018-05-24T09:30:59Z</time>
      </trkpt>
      <trkpt lat="45.2122" lon="3.92717">
        <ele>822</ele>
        <time>2018-05-24T09:31:13Z</time>
      </trkpt>
      <trkpt lat="45.21211" lon="3.92705">
        <ele>822</ele>
        <time>2018-05-24T09:31:26Z</time>
      </trkpt>
      <trkpt lat="45.212" lon="3.92681">
        <ele>822</ele>
        <time>2018-05-24T09:31:42Z</time>
      </trkpt>
      <trkpt lat="45.21195" lon="3.92675">
        <ele>821</ele>
        <time>2018-05-24T09:31:58Z</time>
      </trkpt>
      <trkpt lat="45.21195" lon="3.92676">
        <ele>821</ele>
        <time>2018-05-24T09:32:15Z</time>
      </trkpt>
      <trkpt lat="45.21193" lon="3.92672">
        <ele>821</ele>
        <time>2018-05-24T09:32:21Z</time>
      </trkpt>
      <trkpt lat="45.21181" lon="3.92646">
        <ele>826</ele>
        <time>2018-05-24T09:32:38Z</time>
      </trkpt>
      <trkpt lat="45.21166" lon="3.92627">
        <ele>820</ele>
        <time>2018-05-24T09:32:53Z</time>
      </trkpt>
      <trkpt lat="45.21147" lon="3.92616">
        <ele>820</ele>
        <time>2018-05-24T09:33:09Z</time>
      </trkpt>
      <trkpt lat="45.21125" lon="3.9261">
        <ele>819</ele>
        <time>2018-05-24T09:33:24Z</time>
      </trkpt>
      <trkpt lat="45.21104" lon="3.92604">
        <ele>818</ele>
        <time>2018-05-24T09:33:39Z</time>
      </trkpt>
      <trkpt lat="45.21081" lon="3.92607">
        <ele>810</ele>
        <time>2018-05-24T09:33:57Z</time>
      </trkpt>
      <trkpt lat="45.21059" lon="3.92612">
        <ele>807</ele>
        <time>2018-05-24T09:34:14Z</time>
      </trkpt>
      <trkpt lat="45.21042" lon="3.92612">
        <ele>805</ele>
        <time>2018-05-24T09:34:28Z</time>
      </trkpt>
      <trkpt lat="45.21025" lon="3.92614">
        <ele>804</ele>
        <time>2018-05-24T09:34:44Z</time>
      </trkpt>
      <trkpt lat="45.21021" lon="3.92611">
        <ele>804</ele>
        <time>2018-05-24T09:34:48Z</time>
      </trkpt>
      <trkpt lat="45.21002" lon="3.92599">
        <ele>805</ele>
        <time>2018-05-24T09:35:07Z</time>
      </trkpt>
      <trkpt lat="45.20983" lon="3.92584">
        <ele>795</ele>
        <time>2018-05-24T09:35:25Z</time>
      </trkpt>
      <trkpt lat="45.20973" lon="3.92581">
        <ele>801</ele>
        <time>2018-05-24T09:35:34Z</time>
      </trkpt>
      <trkpt lat="45.20954" lon="3.92572">
        <ele>798</ele>
        <time>2018-05-24T09:35:52Z</time>
      </trkpt>
      <trkpt lat="45.20935" lon="3.92558">
        <ele>795</ele>
        <time>2018-05-24T09:36:10Z</time>
      </trkpt>
      <trkpt lat="45.20914" lon="3.92546">
        <ele>780</ele>
        <time>2018-05-24T09:36:28Z</time>
      </trkpt>
      <trkpt lat="45.20902" lon="3.92537">
        <ele>780</ele>
        <time>2018-05-24T09:36:38Z</time>
      </trkpt>
      <trkpt lat="45.20883" lon="3.92509">
        <ele>780</ele>
        <time>2018-05-24T09:36:56Z</time>
      </trkpt>
      <trkpt lat="45.20876" lon="3.9248">
        <ele>783</ele>
        <time>2018-05-24T09:37:13Z</time>
      </trkpt>
      <trkpt lat="45.20866" lon="3.92449">
        <ele>781</ele>
        <time>2018-05-24T09:37:30Z</time>
      </trkpt>
      <trkpt lat="45.20854" lon="3.9243">
        <ele>778</ele>
        <time>2018-05-24T09:37:44Z</time>
      </trkpt>
      <trkpt lat="45.20842" lon="3.92408">
        <ele>772</ele>
        <time>2018-05-24T09:37:58Z</time>
      </trkpt>
      <trkpt lat="45.20837" lon="3.92405">
        <ele>772</ele>
        <time>2018-05-24T09:38:02Z</time>
      </trkpt>
      <trkpt lat="45.20832" lon="3.92414">
        <ele>770</ele>
        <time>2018-05-24T09:38:12Z</time>
      </trkpt>
      <trkpt lat="45.20834" lon="3.92418">
        <ele>773</ele>
        <time>2018-05-24T09:38:16Z</time>
      </trkpt>
      <trkpt lat="45.20836" lon="3.92437">
        <ele>777</ele>
        <time>2018-05-24T09:38:28Z</time>
      </trkpt>
      <trkpt lat="45.20829" lon="3.92466">
        <ele>761</ele>
        <time>2018-05-24T09:38:44Z</time>
      </trkpt>
      <trkpt lat="45.20822" lon="3.92493">
        <ele>763</ele>
        <time>2018-05-24T09:39:01Z</time>
      </trkpt>
      <trkpt lat="45.20821" lon="3.92495">
        <ele>763</ele>
        <time>2018-05-24T09:39:02Z</time>
      </trkpt>
      <trkpt lat="45.20812" lon="3.92521">
        <ele>754</ele>
        <time>2018-05-24T09:39:16Z</time>
      </trkpt>
      <trkpt lat="45.20805" lon="3.92545">
        <ele>751</ele>
        <time>2018-05-24T09:39:32Z</time>
      </trkpt>
      <trkpt lat="45.20803" lon="3.9254">
        <ele>751</ele>
        <time>2018-05-24T09:39:36Z</time>
      </trkpt>
      <trkpt lat="45.20801" lon="3.92528">
        <ele>751</ele>
        <time>2018-05-24T09:39:47Z</time>
      </trkpt>
      <trkpt lat="45.20802" lon="3.92504">
        <ele>753</ele>
        <time>2018-05-24T09:40:02Z</time>
      </trkpt>
      <trkpt lat="45.208" lon="3.92486">
        <ele>757</ele>
        <time>2018-05-24T09:40:13Z</time>
      </trkpt>
      <trkpt lat="45.20797" lon="3.92468">
        <ele>756</ele>
        <time>2018-05-24T09:40:26Z</time>
      </trkpt>
      <trkpt lat="45.20781" lon="3.92448">
        <ele>754</ele>
        <time>2018-05-24T09:40:46Z</time>
      </trkpt>
      <trkpt lat="45.2076" lon="3.92438">
        <ele>751</ele>
        <time>2018-05-24T09:41:09Z</time>
      </trkpt>
      <trkpt lat="45.2073" lon="3.92433">
        <ele>737</ele>
        <time>2018-05-24T09:41:27Z</time>
      </trkpt>
      <trkpt lat="45.20711" lon="3.9243">
        <ele>734</ele>
        <time>2018-05-24T09:41:46Z</time>
      </trkpt>
      <trkpt lat="45.2069" lon="3.92418">
        <ele>732</ele>
        <time>2018-05-24T09:41:59Z</time>
      </trkpt>
      <trkpt lat="45.20663" lon="3.92403">
        <ele>730</ele>
        <time>2018-05-24T09:42:14Z</time>
      </trkpt>
      <trkpt lat="45.20644" lon="3.92392">
        <ele>729</ele>
        <time>2018-05-24T09:42:30Z</time>
      </trkpt>
      <trkpt lat="45.2064" lon="3.92391">
        <ele>729</ele>
        <time>2018-05-24T09:42:33Z</time>
      </trkpt>
      <trkpt lat="45.20631" lon="3.92391">
        <ele>728</ele>
        <time>2018-05-24T09:42:37Z</time>
      </trkpt>
      <trkpt lat="45.20612" lon="3.92384">
        <ele>727</ele>
        <time>2018-05-24T09:42:52Z</time>
      </trkpt>
      <trkpt lat="45.20592" lon="3.92375">
        <ele>726</ele>
        <time>2018-05-24T09:43:10Z</time>
      </trkpt>
      <trkpt lat="45.20569" lon="3.92373">
        <ele>715</ele>
        <time>2018-05-24T09:43:27Z</time>
      </trkpt>
      <trkpt lat="45.20555" lon="3.92386">
        <ele>714</ele>
        <time>2018-05-24T09:43:39Z</time>
      </trkpt>
      <trkpt lat="45.20553" lon="3.92402">
        <ele>714</ele>
        <time>2018-05-24T09:43:48Z</time>
      </trkpt>
      <trkpt lat="45.20553" lon="3.92409">
        <ele>714</ele>
        <time>2018-05-24T09:43:52Z</time>
      </trkpt>
      <trkpt lat="45.20553" lon="3.92442">
        <ele>707</ele>
        <time>2018-05-24T09:44:07Z</time>
      </trkpt>
      <trkpt lat="45.20553" lon="3.92467">
        <ele>704</ele>
        <time>2018-05-24T09:44:22Z</time>
      </trkpt>
      <trkpt lat="45.20552" lon="3.92479">
        <ele>703</ele>
        <time>2018-05-24T09:44:30Z</time>
      </trkpt>
      <trkpt lat="45.20547" lon="3.92483">
        <ele>702</ele>
        <time>2018-05-24T09:44:35Z</time>
      </trkpt>
      <trkpt lat="45.20534" lon="3.92465">
        <ele>702</ele>
        <time>2018-05-24T09:44:49Z</time>
      </trkpt>
      <trkpt lat="45.20526" lon="3.92443">
        <ele>703</ele>
        <time>2018-05-24T09:45:06Z</time>
      </trkpt>
      <trkpt lat="45.20521" lon="3.9243">
        <ele>703</ele>
        <time>2018-05-24T09:45:17Z</time>
      </trkpt>
      <trkpt lat="45.20513" lon="3.92419">
        <ele>702</ele>
        <time>2018-05-24T09:45:27Z</time>
      </trkpt>
      <trkpt lat="45.20498" lon="3.92389">
        <ele>695</ele>
        <time>2018-05-24T09:45:48Z</time>
      </trkpt>
      <trkpt lat="45.20482" lon="3.92364">
        <ele>695</ele>
        <time>2018-05-24T09:46:05Z</time>
      </trkpt>
      <trkpt lat="45.20464" lon="3.92354">
        <ele>693</ele>
        <time>2018-05-24T09:46:19Z</time>
      </trkpt>
      <trkpt lat="45.20449" lon="3.92351">
        <ele>690</ele>
        <time>2018-05-24T09:46:30Z</time>
      </trkpt>
      <trkpt lat="45.2043" lon="3.92353">
        <ele>688</ele>
        <time>2018-05-24T09:46:44Z</time>
      </trkpt>
      <trkpt lat="45.20408" lon="3.92359">
        <ele>677</ele>
        <time>2018-05-24T09:46:59Z</time>
      </trkpt>
      <trkpt lat="45.20386" lon="3.92361">
        <ele>675</ele>
        <time>2018-05-24T09:47:16Z</time>
      </trkpt>
      <trkpt lat="45.20371" lon="3.92364">
        <ele>674</ele>
        <time>2018-05-24T09:47:31Z</time>
      </trkpt>
      <trkpt lat="45.20364" lon="3.92364">
        <ele>673</ele>
        <time>2018-05-24T09:47:50Z</time>
      </trkpt>
      <trkpt lat="45.20357" lon="3.92364">
        <ele>673</ele>
        <time>2018-05-24T09:48:09Z</time>
      </trkpt>
      <trkpt lat="45.20337" lon="3.92363">
        <ele>672</ele>
        <time>2018-05-24T09:48:28Z</time>
      </trkpt>
      <trkpt lat="45.20318" lon="3.92364">
        <ele>663</ele>
        <time>2018-05-24T09:48:44Z</time>
      </trkpt>
      <trkpt lat="45.20294" lon="3.92368">
        <ele>661</ele>
        <time>2018-05-24T09:49:03Z</time>
      </trkpt>
      <trkpt lat="45.20276" lon="3.9236">
        <ele>660</ele>
        <time>2018-05-24T09:49:22Z</time>
      </trkpt>
      <trkpt lat="45.20265" lon="3.92349">
        <ele>660</ele>
        <time>2018-05-24T09:49:34Z</time>
      </trkpt>
      <trkpt lat="45.2025" lon="3.92337">
        <ele>661</ele>
        <time>2018-05-24T09:49:50Z</time>
      </trkpt>
      <trkpt lat="45.20235" lon="3.92319">
        <ele>651</ele>
        <time>2018-05-24T09:50:07Z</time>
      </trkpt>
      <trkpt lat="45.20216" lon="3.92307">
        <ele>647</ele>
        <time>2018-05-24T09:50:22Z</time>
      </trkpt>
      <trkpt lat="45.20197" lon="3.92299">
        <ele>644</ele>
        <time>2018-05-24T09:50:39Z</time>
      </trkpt>
      <trkpt lat="45.20174" lon="3.92288">
        <ele>642</ele>
        <time>2018-05-24T09:50:58Z</time>
      </trkpt>
      <trkpt lat="45.20172" lon="3.92287">
        <ele>642</ele>
        <time>2018-05-24T09:51:00Z</time>
      </trkpt>
      <trkpt lat="45.20169" lon="3.92286">
        <ele>642</ele>
        <time>2018-05-24T09:51:02Z</time>
      </trkpt>
      <trkpt lat="45.20141" lon="3.92271">
        <ele>630</ele>
        <time>2018-05-24T09:51:21Z</time>
      </trkpt>
      <trkpt lat="45.20131" lon="3.92264">
        <ele>630</ele>
        <time>2018-05-24T09:51:28Z</time>
      </trkpt>
      <trkpt lat="45.2012" lon="3.92261">
        <ele>628</ele>
        <time>2018-05-24T09:51:36Z</time>
      </trkpt>
      <trkpt lat="45.20117" lon="3.92267">
        <ele>628</ele>
        <time>2018-05-24T09:51:40Z</time>
      </trkpt>
      <trkpt lat="45.20126" lon="3.92284">
        <ele>628</ele>
        <time>2018-05-24T09:51:57Z</time>
      </trkpt>
      <trkpt lat="45.20133" lon="3.92303">
        <ele>629</ele>
        <time>2018-05-24T09:52:09Z</time>
      </trkpt>
      <trkpt lat="45.20134" lon="3.92306">
        <ele>629</ele>
        <time>2018-05-24T09:52:11Z</time>
      </trkpt>
      <trkpt lat="45.2014" lon="3.92322">
        <ele>630</ele>
        <time>2018-05-24T09:52:21Z</time>
      </trkpt>
      <trkpt lat="45.2014" lon="3.92323">
        <ele>630</ele>
        <time>2018-05-24T09:52:22Z</time>
      </trkpt>
      <trkpt lat="45.20147" lon="3.92343">
        <ele>626</ele>
        <time>2018-05-24T09:52:35Z</time>
      </trkpt>
      <trkpt lat="45.20154" lon="3.92365">
        <ele>623</ele>
        <time>2018-05-24T09:52:44Z</time>
      </trkpt>
      <trkpt lat="45.2016" lon="3.92383">
        <ele>621</ele>
        <time>2018-05-24T09:52:54Z</time>
      </trkpt>
      <trkpt lat="45.20165" lon="3.92394">
        <ele>621</ele>
        <time>2018-05-24T09:53:02Z</time>
      </trkpt>
      <trkpt lat="45.20166" lon="3.92397">
        <ele>621</ele>
        <time>2018-05-24T09:53:04Z</time>
      </trkpt>
      <trkpt lat="45.20165" lon="3.924">
        <ele>621</ele>
        <time>2018-05-24T09:53:08Z</time>
      </trkpt>
      <trkpt lat="45.20156" lon="3.92397">
        <ele>621</ele>
        <time>2018-05-24T09:53:17Z</time>
      </trkpt>
      <trkpt lat="45.20148" lon="3.92392">
        <ele>620</ele>
        <time>2018-05-24T09:53:25Z</time>
      </trkpt>
      <trkpt lat="45.20142" lon="3.92383">
        <ele>619</ele>
        <time>2018-05-24T09:53:34Z</time>
      </trkpt>
      <trkpt lat="45.20124" lon="3.92373">
        <ele>617</ele>
        <time>2018-05-24T09:53:44Z</time>
      </trkpt>
      <trkpt lat="45.20122" lon="3.92371">
        <ele>617</ele>
        <time>2018-05-24T09:53:48Z</time>
      </trkpt>
      <trkpt lat="45.20117" lon="3.92369">
        <ele>617</ele>
        <time>2018-05-24T09:53:52Z</time>
      </trkpt>
      <trkpt lat="45.20107" lon="3.92362">
        <ele>616</ele>
        <time>2018-05-24T09:54:01Z</time>
      </trkpt>
      <trkpt lat="45.20093" lon="3.92347">
        <ele>614</ele>
        <time>2018-05-24T09:54:17Z</time>
      </trkpt>
      <trkpt lat="45.20088" lon="3.92341">
        <ele>613</ele>
        <time>2018-05-24T09:54:24Z</time>
      </trkpt>
      <trkpt lat="45.20074" lon="3.92327">
        <ele>610</ele>
        <time>2018-05-24T09:54:39Z</time>
      </trkpt>
      <trkpt lat="45.20055" lon="3.92321">
        <ele>608</ele>
        <time>2018-05-24T09:54:51Z</time>
      </trkpt>
      <trkpt lat="45.20036" lon="3.92309">
        <ele>605</ele>
        <time>2018-05-24T09:55:08Z</time>
      </trkpt>
      <trkpt lat="45.20015" lon="3.9229">
        <ele>605</ele>
        <time>2018-05-24T09:55:26Z</time>
      </trkpt>
      <trkpt lat="45.19996" lon="3.92274">
        <ele>592</ele>
        <time>2018-05-24T09:55:46Z</time>
      </trkpt>
      <trkpt lat="45.19981" lon="3.92248">
        <ele>596</ele>
        <time>2018-05-24T09:56:03Z</time>
      </trkpt>
      <trkpt lat="45.19974" lon="3.92247">
        <ele>593</ele>
        <time>2018-05-24T09:56:07Z</time>
      </trkpt>
      <trkpt lat="45.1997" lon="3.92261">
        <ele>588</ele>
        <time>2018-05-24T09:56:20Z</time>
      </trkpt>
      <trkpt lat="45.19974" lon="3.9228">
        <ele>586</ele>
        <time>2018-05-24T09:56:33Z</time>
      </trkpt>
      <trkpt lat="45.19981" lon="3.92308">
        <ele>584</ele>
        <time>2018-05-24T09:56:51Z</time>
      </trkpt>
      <trkpt lat="45.19985" lon="3.9233">
        <ele>584</ele>
        <time>2018-05-24T09:57:04Z</time>
      </trkpt>
      <trkpt lat="45.19995" lon="3.92354">
        <ele>577</ele>
        <time>2018-05-24T09:57:19Z</time>
      </trkpt>
      <trkpt lat="45.20011" lon="3.9238">
        <ele>587</ele>
        <time>2018-05-24T09:57:37Z</time>
      </trkpt>
      <trkpt lat="45.20012" lon="3.92391">
        <ele>585</ele>
        <time>2018-05-24T09:57:43Z</time>
      </trkpt>
      <trkpt lat="45.20008" lon="3.92415">
        <ele>578</ele>
        <time>2018-05-24T09:57:55Z</time>
      </trkpt>
      <trkpt lat="45.20001" lon="3.92442">
        <ele>576</ele>
        <time>2018-05-24T09:58:09Z</time>
      </trkpt>
      <trkpt lat="45.20008" lon="3.9247">
        <ele>576</ele>
        <time>2018-05-24T09:58:26Z</time>
      </trkpt>
      <trkpt lat="45.20005" lon="3.92479">
        <ele>574</ele>
        <time>2018-05-24T09:58:33Z</time>
      </trkpt>
      <trkpt lat="45.2" lon="3.92478">
        <ele>574</ele>
        <time>2018-05-24T09:58:37Z</time>
      </trkpt>
      <trkpt lat="45.19984" lon="3.92464">
        <ele>562</ele>
        <time>2018-05-24T09:58:53Z</time>
      </trkpt>
      <trkpt lat="45.19972" lon="3.92447">
        <ele>562</ele>
        <time>2018-05-24T09:59:09Z</time>
      </trkpt>
      <trkpt lat="45.19968" lon="3.92448">
        <ele>561</ele>
        <time>2018-05-24T09:59:13Z</time>
      </trkpt>
      <trkpt lat="45.19955" lon="3.92476">
        <ele>559</ele>
        <time>2018-05-24T09:59:30Z</time>
      </trkpt>
      <trkpt lat="45.19954" lon="3.92489">
        <ele>558</ele>
        <time>2018-05-24T09:59:36Z</time>
      </trkpt>
      <trkpt lat="45.19953" lon="3.92494">
        <ele>557</ele>
        <time>2018-05-24T09:59:39Z</time>
      </trkpt>
      <trkpt lat="45.1995" lon="3.92514">
        <ele>550</ele>
        <time>2018-05-24T09:59:51Z</time>
      </trkpt>
      <trkpt lat="45.19945" lon="3.92513">
        <ele>550</ele>
        <time>2018-05-24T09:59:58Z</time>
      </trkpt>
      <trkpt lat="45.19929" lon="3.92498">
        <ele>551</ele>
        <time>2018-05-24T10:00:14Z</time>
      </trkpt>
      <trkpt lat="45.19922" lon="3.92493">
        <ele>550</ele>
        <time>2018-05-24T10:00:21Z</time>
      </trkpt>
      <trkpt lat="45.19909" lon="3.92492">
        <ele>545</ele>
        <time>2018-05-24T10:00:35Z</time>
      </trkpt>
      <trkpt lat="45.19895" lon="3.92498">
        <ele>544</ele>
        <time>2018-05-24T10:00:47Z</time>
      </trkpt>
      <trkpt lat="45.19889" lon="3.92497">
        <ele>544</ele>
        <time>2018-05-24T10:00:51Z</time>
      </trkpt>
      <trkpt lat="45.19881" lon="3.9249">
        <ele>543</ele>
        <time>2018-05-24T10:00:59Z</time>
      </trkpt>
      <trkpt lat="45.19875" lon="3.92485">
        <ele>543</ele>
        <time>2018-05-24T10:01:06Z</time>
      </trkpt>
      <trkpt lat="45.19874" lon="3.92483">
        <ele>543</ele>
        <time>2018-05-24T10:01:08Z</time>
      </trkpt>
      <trkpt lat="45.19868" lon="3.92479">
        <ele>543</ele>
        <time>2018-05-24T10:01:20Z</time>
      </trkpt>
      <trkpt lat="45.19867" lon="3.92479">
        <ele>542</ele>
        <time>2018-05-24T10:01:22Z</time>
      </trkpt>
      <trkpt lat="45.19864" lon="3.92472">
        <ele>543</ele>
        <time>2018-05-24T10:01:38Z</time>
      </trkpt>
      <trkpt lat="45.19863" lon="3.92469">
        <ele>543</ele>
        <time>2018-05-24T10:01:40Z</time>
      </trkpt>
      <trkpt lat="45.19853" lon="3.92441">
        <ele>543</ele>
        <time>2018-05-24T10:01:55Z</time>
      </trkpt>
      <trkpt lat="45.19844" lon="3.9242">
        <ele>542</ele>
        <time>2018-05-24T10:02:08Z</time>
      </trkpt>
      <trkpt lat="45.19838" lon="3.92403">
        <ele>545</ele>
        <time>2018-05-24T10:02:18Z</time>
      </trkpt>
      <trkpt lat="45.19837" lon="3.92395">
        <ele>546</ele>
        <time>2018-05-24T10:02:22Z</time>
      </trkpt>
      <trkpt lat="45.19835" lon="3.92364">
        <ele>547</ele>
        <time>2018-05-24T10:02:39Z</time>
      </trkpt>
      <trkpt lat="45.19835" lon="3.9236">
        <ele>547</ele>
        <time>2018-05-24T10:02:41Z</time>
      </trkpt>
      <trkpt lat="45.19833" lon="3.92333">
        <ele>543</ele>
        <time>2018-05-24T10:02:56Z</time>
      </trkpt>
      <trkpt lat="45.19833" lon="3.92304">
        <ele>541</ele>
        <time>2018-05-24T10:03:11Z</time>
      </trkpt>
      <trkpt lat="45.19832" lon="3.92273">
        <ele>542</ele>
        <time>2018-05-24T10:03:27Z</time>
      </trkpt>
      <trkpt lat="45.19829" lon="3.92263">
        <ele>542</ele>
        <time>2018-05-24T10:03:33Z</time>
      </trkpt>
      <trkpt lat="45.19814" lon="3.92252">
        <ele>541</ele>
        <time>2018-05-24T10:03:48Z</time>
      </trkpt>
      <trkpt lat="45.19804" lon="3.9223">
        <ele>541</ele>
        <time>2018-05-24T10:04:01Z</time>
      </trkpt>
      <trkpt lat="45.198" lon="3.92201">
        <ele>541</ele>
        <time>2018-05-24T10:04:16Z</time>
      </trkpt>
      <trkpt lat="45.19797" lon="3.92168">
        <ele>541</ele>
        <time>2018-05-24T10:04:33Z</time>
      </trkpt>
      <trkpt lat="45.19795" lon="3.92139">
        <ele>543</ele>
        <time>2018-05-24T10:04:49Z</time>
      </trkpt>
      <trkpt lat="45.19793" lon="3.92106">
        <ele>543</ele>
        <time>2018-05-24T10:05:05Z</time>
      </trkpt>
      <trkpt lat="45.19788" lon="3.92081">
        <ele>547</ele>
        <time>2018-05-24T10:05:19Z</time>
      </trkpt>
      <trkpt lat="45.19787" lon="3.92079">
        <ele>547</ele>
        <time>2018-05-24T10:05:21Z</time>
      </trkpt>
      <trkpt lat="45.19767" lon="3.9208">
        <ele>541</ele>
        <time>2018-05-24T10:05:37Z</time>
      </trkpt>
      <trkpt lat="45.19749" lon="3.92078">
        <ele>532</ele>
        <time>2018-05-24T10:05:52Z</time>
      </trkpt>
      <trkpt lat="45.19746" lon="3.92075">
        <ele>532</ele>
        <time>2018-05-24T10:05:55Z</time>
      </trkpt>
      <trkpt lat="45.19741" lon="3.9205">
        <ele>532</ele>
        <time>2018-05-24T10:06:09Z</time>
      </trkpt>
      <trkpt lat="45.19741" lon="3.92048">
        <ele>532</ele>
        <time>2018-05-24T10:06:10Z</time>
      </trkpt>
      <trkpt lat="45.19743" lon="3.92024">
        <ele>534</ele>
        <time>2018-05-24T10:06:24Z</time>
      </trkpt>
      <trkpt lat="45.19742" lon="3.92002">
        <ele>537</ele>
        <time>2018-05-24T10:06:38Z</time>
      </trkpt>
      <trkpt lat="45.19742" lon="3.91988">
        <ele>538</ele>
        <time>2018-05-24T10:06:46Z</time>
      </trkpt>
      <trkpt lat="45.19743" lon="3.91962">
        <ele>538</ele>
        <time>2018-05-24T10:07:00Z</time>
      </trkpt>
      <trkpt lat="45.19741" lon="3.91942">
        <ele>540</ele>
        <time>2018-05-24T10:07:12Z</time>
      </trkpt>
      <trkpt lat="45.19737" lon="3.91921">
        <ele>543</ele>
        <time>2018-05-24T10:07:24Z</time>
      </trkpt>
      <trkpt lat="45.19733" lon="3.91886">
        <ele>544</ele>
        <time>2018-05-24T10:07:41Z</time>
      </trkpt>
      <trkpt lat="45.19727" lon="3.91858">
        <ele>546</ele>
        <time>2018-05-24T10:07:57Z</time>
      </trkpt>
      <trkpt lat="45.19722" lon="3.91825">
        <ele>550</ele>
        <time>2018-05-24T10:08:12Z</time>
      </trkpt>
      <trkpt lat="45.19718" lon="3.918">
        <ele>548</ele>
        <time>2018-05-24T10:08:25Z</time>
      </trkpt>
      <trkpt lat="45.19715" lon="3.91796">
        <ele>548</ele>
        <time>2018-05-24T10:08:39Z</time>
      </trkpt>
      <trkpt lat="45.19714" lon="3.91796">
        <ele>548</ele>
        <time>2018-05-24T10:08:57Z</time>
      </trkpt>
      <trkpt lat="45.19713" lon="3.91786">
        <ele>548</ele>
        <time>2018-05-24T10:09:03Z</time>
      </trkpt>
      <trkpt lat="45.19712" lon="3.91765">
        <ele>548</ele>
        <time>2018-05-24T10:09:15Z</time>
      </trkpt>
      <trkpt lat="45.19711" lon="3.91737">
        <ele>551</ele>
        <time>2018-05-24T10:09:25Z</time>
      </trkpt>
      <trkpt lat="45.19707" lon="3.91703">
        <ele>551</ele>
        <time>2018-05-24T10:09:39Z</time>
      </trkpt>
      <trkpt lat="45.19704" lon="3.91695">
        <ele>550</ele>
        <time>2018-05-24T10:09:44Z</time>
      </trkpt>
      <trkpt lat="45.197" lon="3.91685">
        <ele>549</ele>
        <time>2018-05-24T10:09:51Z</time>
      </trkpt>
      <trkpt lat="45.19696" lon="3.91678">
        <ele>548</ele>
        <time>2018-05-24T10:09:55Z</time>
      </trkpt>
      <trkpt lat="45.1969" lon="3.91669">
        <ele>545</ele>
        <time>2018-05-24T10:10:04Z</time>
      </trkpt>
      <trkpt lat="45.19682" lon="3.91644">
        <ele>552</ele>
        <time>2018-05-24T10:10:20Z</time>
      </trkpt>
      <trkpt lat="45.19678" lon="3.91624">
        <ele>554</ele>
        <time>2018-05-24T10:10:30Z</time>
      </trkpt>
      <trkpt lat="45.19675" lon="3.91617">
        <ele>554</ele>
        <time>2018-05-24T10:10:34Z</time>
      </trkpt>
      <trkpt lat="45.19671" lon="3.91596">
        <ele>550</ele>
        <time>2018-05-24T10:10:45Z</time>
      </trkpt>
      <trkpt lat="45.19669" lon="3.91591">
        <ele>547</ele>
        <time>2018-05-24T10:10:49Z</time>
      </trkpt>
      <trkpt lat="45.19665" lon="3.91576">
        <ele>541</ele>
        <time>2018-05-24T10:10:54Z</time>
      </trkpt>
      <trkpt lat="45.19658" lon="3.91554">
        <ele>541</ele>
        <time>2018-05-24T10:11:07Z</time>
      </trkpt>
      <trkpt lat="45.19651" lon="3.91538">
        <ele>542</ele>
        <time>2018-05-24T10:11:18Z</time>
      </trkpt>
      <trkpt lat="45.19643" lon="3.91526">
        <ele>542</ele>
        <time>2018-05-24T10:11:24Z</time>
      </trkpt>
      <trkpt lat="45.19641" lon="3.91521">
        <ele>543</ele>
        <time>2018-05-24T10:11:29Z</time>
      </trkpt>
      <trkpt lat="45.19632" lon="3.91502">
        <ele>542</ele>
        <time>2018-05-24T10:11:43Z</time>
      </trkpt>
      <trkpt lat="45.19629" lon="3.91498">
        <ele>549</ele>
        <time>2018-05-24T10:11:47Z</time>
      </trkpt>
      <trkpt lat="45.19615" lon="3.91472">
        <ele>548</ele>
        <time>2018-05-24T10:12:02Z</time>
      </trkpt>
      <trkpt lat="45.19613" lon="3.91471">
        <ele>547</ele>
        <time>2018-05-24T10:12:04Z</time>
      </trkpt>
      <trkpt lat="45.19606" lon="3.91466">
        <ele>547</ele>
        <time>2018-05-24T10:12:09Z</time>
      </trkpt>
      <trkpt lat="45.196" lon="3.91461">
        <ele>547</ele>
        <time>2018-05-24T10:12:14Z</time>
      </trkpt>
      <trkpt lat="45.19584" lon="3.91448">
        <ele>546</ele>
        <time>2018-05-24T10:12:28Z</time>
      </trkpt>
      <trkpt lat="45.19573" lon="3.91438">
        <ele>537</ele>
        <time>2018-05-24T10:12:42Z</time>
      </trkpt>
      <trkpt lat="45.19557" lon="3.91425">
        <ele>537</ele>
        <time>2018-05-24T10:12:57Z</time>
      </trkpt>
      <trkpt lat="45.19539" lon="3.91413">
        <ele>543</ele>
        <time>2018-05-24T10:13:14Z</time>
      </trkpt>
      <trkpt lat="45.19523" lon="3.91407">
        <ele>541</ele>
        <time>2018-05-24T10:13:30Z</time>
      </trkpt>
      <trkpt lat="45.19513" lon="3.91399">
        <ele>540</ele>
        <time>2018-05-24T10:13:45Z</time>
      </trkpt>
      <trkpt lat="45.19497" lon="3.91391">
        <ele>536</ele>
        <time>2018-05-24T10:13:58Z</time>
      </trkpt>
      <trkpt lat="45.19484" lon="3.91382">
        <ele>537</ele>
        <time>2018-05-24T10:14:10Z</time>
      </trkpt>
      <trkpt lat="45.19465" lon="3.91376">
        <ele>538</ele>
        <time>2018-05-24T10:14:27Z</time>
      </trkpt>
      <trkpt lat="45.19441" lon="3.9138">
        <ele>537</ele>
        <time>2018-05-24T10:14:43Z</time>
      </trkpt>
      <trkpt lat="45.19436" lon="3.91383">
        <ele>537</ele>
        <time>2018-05-24T10:14:47Z</time>
      </trkpt>
      <trkpt lat="45.19413" lon="3.91382">
        <ele>537</ele>
        <time>2018-05-24T10:15:01Z</time>
      </trkpt>
      <trkpt lat="45.19395" lon="3.91386">
        <ele>537</ele>
        <time>2018-05-24T10:15:14Z</time>
      </trkpt>
      <trkpt lat="45.19378" lon="3.9139">
        <ele>538</ele>
        <time>2018-05-24T10:15:24Z</time>
      </trkpt>
      <trkpt lat="45.19377" lon="3.9139">
        <ele>538</ele>
        <time>2018-05-24T10:15:25Z</time>
      </trkpt>
      <trkpt lat="45.19372" lon="3.91393">
        <ele>538</ele>
        <time>2018-05-24T10:15:29Z</time>
      </trkpt>
      <trkpt lat="45.19362" lon="3.91397">
        <ele>537</ele>
        <time>2018-05-24T10:15:41Z</time>
      </trkpt>
      <trkpt lat="45.19353" lon="3.91405">
        <ele>537</ele>
        <time>2018-05-24T10:15:51Z</time>
      </trkpt>
      <trkpt lat="45.19343" lon="3.91415">
        <ele>536</ele>
        <time>2018-05-24T10:16:02Z</time>
      </trkpt>
      <trkpt lat="45.1934" lon="3.91419">
        <ele>534</ele>
        <time>2018-05-24T10:16:08Z</time>
      </trkpt>
      <trkpt lat="45.19347" lon="3.91437">
        <ele>532</ele>
        <time>2018-05-24T10:16:15Z</time>
      </trkpt>
      <trkpt lat="45.19351" lon="3.91456">
        <ele>531</ele>
        <time>2018-05-24T10:16:26Z</time>
      </trkpt>
      <trkpt lat="45.19351" lon="3.91459">
        <ele>531</ele>
        <time>2018-05-24T10:16:37Z</time>
      </trkpt>
      <trkpt lat="45.19351" lon="3.91459">
        <ele>531</ele>
        <time>2018-05-24T10:16:47Z</time>
      </trkpt>
      <trkpt lat="45.1935" lon="3.91461">
        <ele>531</ele>
        <time>2018-05-24T10:16:50Z</time>
      </trkpt>
      <trkpt lat="45.19337" lon="3.91476">
        <ele>530</ele>
        <time>2018-05-24T10:17:03Z</time>
      </trkpt>
      <trkpt lat="45.19321" lon="3.91493">
        <ele>532</ele>
        <time>2018-05-24T10:17:16Z</time>
      </trkpt>
      <trkpt lat="45.19314" lon="3.91508">
        <ele>531</ele>
        <time>2018-05-24T10:17:28Z</time>
      </trkpt>
      <trkpt lat="45.19304" lon="3.91527">
        <ele>532</ele>
        <time>2018-05-24T10:17:40Z</time>
      </trkpt>
      <trkpt lat="45.193" lon="3.91534">
        <ele>533</ele>
        <time>2018-05-24T10:17:44Z</time>
      </trkpt>
      <trkpt lat="45.19292" lon="3.91556">
        <ele>533</ele>
        <time>2018-05-24T10:17:57Z</time>
      </trkpt>
      <trkpt lat="45.19287" lon="3.91577">
        <ele>533</ele>
        <time>2018-05-24T10:18:09Z</time>
      </trkpt>
      <trkpt lat="45.19283" lon="3.91583">
        <ele>533</ele>
        <time>2018-05-24T10:18:13Z</time>
      </trkpt>
      <trkpt lat="45.19271" lon="3.91608">
        <ele>532</ele>
        <time>2018-05-24T10:18:27Z</time>
      </trkpt>
      <trkpt lat="45.1927" lon="3.9161">
        <ele>532</ele>
        <time>2018-05-24T10:18:29Z</time>
      </trkpt>
      <trkpt lat="45.19263" lon="3.91627">
        <ele>532</ele>
        <time>2018-05-24T10:18:39Z</time>
      </trkpt>
      <trkpt lat="45.19258" lon="3.91635">
        <ele>532</ele>
        <time>2018-05-24T10:18:44Z</time>
      </trkpt>
      <trkpt lat="45.19255" lon="3.91633">
        <ele>531.6</ele>
      </trkpt>
      <trkpt lat="45.19252" lon="3.9164">
        <ele>531.5</ele>
      </trkpt>
      <trkpt lat="45.19246" lon="3.9165">
        <ele>533.1</ele>
      </trkpt>
      <trkpt lat="45.19239" lon="3.91648">
        <ele>533.5</ele>
      </trkpt>
      <trkpt lat="45.1922" lon="3.91646">
        <ele>534.4</ele>
      </trkpt>
      <trkpt lat="45.19198" lon="3.91644">
        <ele>535</ele>
      </trkpt>
      <trkpt lat="45.19168" lon="3.91644">
        <ele>535.4</ele>
      </trkpt>
      <trkpt lat="45.19146" lon="3.91645">
        <ele>538.2</ele>
      </trkpt>
      <trkpt lat="45.19113" lon="3.9165">
        <ele>539.4</ele>
      </trkpt>
      <trkpt lat="45.19093" lon="3.91652">
        <ele>539.8</ele>
      </trkpt>
      <trkpt lat="45.19066" lon="3.91656">
        <ele>544.4</ele>
      </trkpt>
      <trkpt lat="45.19025" lon="3.91661">
        <ele>548</ele>
      </trkpt>
      <trkpt lat="45.19" lon="3.91664">
        <ele>550.6</ele>
      </trkpt>
      <trkpt lat="45.18998" lon="3.91664">
        <ele>551</ele>
      </trkpt>
      <trkpt lat="45.18977" lon="3.9167">
        <ele>553.5</ele>
      </trkpt>
      <trkpt lat="45.18969" lon="3.91673">
        <ele>554.9</ele>
      </trkpt>
      <trkpt lat="45.18964" lon="3.91678">
        <ele>555.7</ele>
      </trkpt>
      <trkpt lat="45.18956" lon="3.91686">
        <ele>556.5</ele>
      </trkpt>
      <trkpt lat="45.18948" lon="3.91688">
        <ele>557.6</ele>
      </trkpt>
      <trkpt lat="45.18942" lon="3.91689">
        <ele>558.3</ele>
      </trkpt>
      <trkpt lat="45.18932" lon="3.91691">
        <ele>559.5</ele>
      </trkpt>
      <trkpt lat="45.18926" lon="3.91694">
        <ele>559.7</ele>
      </trkpt>
      <trkpt lat="45.1892" lon="3.91701">
        <ele>559.2</ele>
      </trkpt>
      <trkpt lat="45.18911" lon="3.91709">
        <ele>564.9</ele>
      </trkpt>
      <trkpt lat="45.18902" lon="3.91714">
        <ele>564.7</ele>
      </trkpt>
      <trkpt lat="45.18895" lon="3.91717">
        <ele>564.8</ele>
      </trkpt>
      <trkpt lat="45.18885" lon="3.91718">
        <ele>565.1</ele>
      </trkpt>
      <trkpt lat="45.18876" lon="3.91718">
        <ele>565.3</ele>
      </trkpt>
      <trkpt lat="45.18879" lon="3.9173">
        <ele>565.1</ele>
      </trkpt>
      <trkpt lat="45.18883" lon="3.91735">
        <ele>564.7</ele>
      </trkpt>
      <trkpt lat="45.18887" lon="3.91749">
        <ele>564.2</ele>
      </trkpt>
      <trkpt lat="45.18895" lon="3.91776">
        <ele>561.8</ele>
      </trkpt>
      <trkpt lat="45.18904" lon="3.91808">
        <ele>559.2</ele>
      </trkpt>
      <trkpt lat="45.18907" lon="3.91823">
        <ele>556.4</ele>
      </trkpt>
      <trkpt lat="45.18907" lon="3.91825">
        <ele>556</ele>
      </trkpt>
      <trkpt lat="45.18906" lon="3.91835">
        <ele>553.3</ele>
      </trkpt>
      <trkpt lat="45.18903" lon="3.91853">
        <ele>554.6</ele>
      </trkpt>
      <trkpt lat="45.18895" lon="3.91877">
        <ele>554.9</ele>
      </trkpt>
      <trkpt lat="45.1889" lon="3.91889">
        <ele>554.6</ele>
      </trkpt>
      <trkpt lat="45.18884" lon="3.91896">
        <ele>554.8</ele>
      </trkpt>
      <trkpt lat="45.18874" lon="3.91906">
        <ele>555.7</ele>
      </trkpt>
      <trkpt lat="45.18846" lon="3.91929">
        <ele>553.8</ele>
      </trkpt>
      <trkpt lat="45.18824" lon="3.91948">
        <ele>557.7</ele>
      </trkpt>
      <trkpt lat="45.18805" lon="3.91968">
        <ele>556.5</ele>
      </trkpt>
      <trkpt lat="45.1879" lon="3.91988">
        <ele>556.3</ele>
      </trkpt>
      <trkpt lat="45.18775" lon="3.92009">
        <ele>550.5</ele>
      </trkpt>
      <trkpt lat="45.18768" lon="3.92015">
        <ele>550.8</ele>
      </trkpt>
      <trkpt lat="45.18759" lon="3.92021">
        <ele>550.9</ele>
      </trkpt>
      <trkpt lat="45.1875" lon="3.92021">
        <ele>551.2</ele>
      </trkpt>
      <trkpt lat="45.1874" lon="3.92018">
        <ele>553.4</ele>
      </trkpt>
      <trkpt lat="45.18727" lon="3.92009">
        <ele>553.5</ele>
      </trkpt>
      <trkpt lat="45.18717" lon="3.91997">
        <ele>561</ele>
      </trkpt>
      <trkpt lat="45.18707" lon="3.91984">
        <ele>561.6</ele>
      </trkpt>
      <trkpt lat="45.18699" lon="3.91974">
        <ele>562.1</ele>
      </trkpt>
      <trkpt lat="45.18695" lon="3.91977">
        <ele>561.9</ele>
      </trkpt>
      <trkpt lat="45.18682" lon="3.91982">
        <ele>561.2</ele>
      </trkpt>
      <trkpt lat="45.18674" lon="3.91989">
        <ele>560.1</ele>
      </trkpt>
      <trkpt lat="45.18667" lon="3.91998">
        <ele>558.3</ele>
      </trkpt>
      <trkpt lat="45.18661" lon="3.92014">
        <ele>552.4</ele>
      </trkpt>
      <trkpt lat="45.18655" lon="3.92034">
        <ele>548.7</ele>
      </trkpt>
      <trkpt lat="45.18651" lon="3.92048">
        <ele>547.2</ele>
      </trkpt>
      <trkpt lat="45.18647" lon="3.92055">
        <ele>547</ele>
      </trkpt>
      <trkpt lat="45.18634" lon="3.92054">
        <ele>546</ele>
      </trkpt>
      <trkpt lat="45.18619" lon="3.92042">
        <ele>546</ele>
      </trkpt>
      <trkpt lat="45.186" lon="3.92012">
        <ele>545</ele>
      </trkpt>
      <trkpt lat="45.18588" lon="3.92">
        <ele>544</ele>
      </trkpt>
      <trkpt lat="45.18575" lon="3.91976">
        <ele>540</ele>
      </trkpt>
      <trkpt lat="45.18568" lon="3.91958">
        <ele>539</ele>
      </trkpt>
      <trkpt lat="45.18568" lon="3.91943">
        <ele>540</ele>
      </trkpt>
      <trkpt lat="45.18569" lon="3.91933">
        <ele>540</ele>
      </trkpt>
      <trkpt lat="45.18573" lon="3.91915">
        <ele>543</ele>
      </trkpt>
      <trkpt lat="45.18572" lon="3.91914">
        <ele>543</ele>
        <time>2018-05-24T10:38:44Z</time>
      </trkpt>
      <trkpt lat="45.18587" lon="3.91883">
        <ele>550</ele>
        <time>2018-05-24T10:39:01Z</time>
      </trkpt>
      <trkpt lat="45.18589" lon="3.91887">
        <ele>550</ele>
        <time>2018-05-24T10:39:17Z</time>
      </trkpt>
      <trkpt lat="45.18588" lon="3.91887">
        <ele>550</ele>
        <time>2018-05-24T10:39:47Z</time>
      </trkpt>
      <trkpt lat="45.18587" lon="3.91882">
        <ele>550</ele>
        <time>2018-05-24T10:40:12Z</time>
      </trkpt>
      <trkpt lat="45.18587" lon="3.9187">
        <ele>550</ele>
        <time>2018-05-24T10:40:18Z</time>
      </trkpt>
      <trkpt lat="45.18597" lon="3.9185">
        <ele>550</ele>
        <time>2018-05-24T10:40:27Z</time>
      </trkpt>
      <trkpt lat="45.18615" lon="3.91825">
        <ele>546</ele>
        <time>2018-05-24T10:40:37Z</time>
      </trkpt>
      <trkpt lat="45.18636" lon="3.91802">
        <ele>547</ele>
        <time>2018-05-24T10:40:48Z</time>
      </trkpt>
      <trkpt lat="45.18656" lon="3.9179">
        <ele>546</ele>
        <time>2018-05-24T10:40:57Z</time>
      </trkpt>
      <trkpt lat="45.18666" lon="3.91788">
        <ele>546</ele>
        <time>2018-05-24T10:41:06Z</time>
      </trkpt>
      <trkpt lat="45.1868" lon="3.91785">
        <ele>551</ele>
        <time>2018-05-24T10:41:19Z</time>
      </trkpt>
      <trkpt lat="45.18684" lon="3.91783">
        <ele>551</ele>
        <time>2018-05-24T10:41:22Z</time>
      </trkpt>
      <trkpt lat="45.18701" lon="3.91776">
        <ele>551</ele>
        <time>2018-05-24T10:41:31Z</time>
      </trkpt>
      <trkpt lat="45.18703" lon="3.91775">
        <ele>551</ele>
        <time>2018-05-24T10:41:33Z</time>
      </trkpt>
      <trkpt lat="45.18707" lon="3.91773">
        <ele>551</ele>
        <time>2018-05-24T10:41:36Z</time>
      </trkpt>
      <trkpt lat="45.18722" lon="3.91752">
        <ele>550</ele>
        <time>2018-05-24T10:41:52Z</time>
      </trkpt>
      <trkpt lat="45.18728" lon="3.91742">
        <ele>543</ele>
        <time>2018-05-24T10:41:59Z</time>
      </trkpt>
      <trkpt lat="45.1873" lon="3.91713">
        <ele>541</ele>
        <time>2018-05-24T10:42:12Z</time>
      </trkpt>
      <trkpt lat="45.1873" lon="3.91694">
        <ele>540</ele>
        <time>2018-05-24T10:42:21Z</time>
      </trkpt>
      <trkpt lat="45.18728" lon="3.91671">
        <ele>540</ele>
        <time>2018-05-24T10:42:30Z</time>
      </trkpt>
      <trkpt lat="45.18728" lon="3.91664">
        <ele>538</ele>
        <time>2018-05-24T10:42:41Z</time>
      </trkpt>
      <trkpt lat="45.18726" lon="3.91634">
        <ele>538</ele>
        <time>2018-05-24T10:42:51Z</time>
      </trkpt>
      <trkpt lat="45.18725" lon="3.91619">
        <ele>538</ele>
        <time>2018-05-24T10:43:01Z</time>
      </trkpt>
      <trkpt lat="45.18722" lon="3.91593">
        <ele>538</ele>
        <time>2018-05-24T10:43:11Z</time>
      </trkpt>
      <trkpt lat="45.18719" lon="3.9157">
        <ele>538</ele>
        <time>2018-05-24T10:43:24Z</time>
      </trkpt>
      <trkpt lat="45.18717" lon="3.91546">
        <ele>538</ele>
        <time>2018-05-24T10:43:38Z</time>
      </trkpt>
      <trkpt lat="45.18717" lon="3.91546">
        <ele>538</ele>
        <time>2018-05-24T10:43:39Z</time>
      </trkpt>
      <trkpt lat="45.18716" lon="3.91535">
        <ele>538</ele>
        <time>2018-05-24T10:43:46Z</time>
      </trkpt>
      <trkpt lat="45.18707" lon="3.91509">
        <ele>537</ele>
        <time>2018-05-24T10:44:00Z</time>
      </trkpt>
      <trkpt lat="45.18702" lon="3.91485">
        <ele>537</ele>
        <time>2018-05-24T10:44:10Z</time>
      </trkpt>
      <trkpt lat="45.18697" lon="3.91468">
        <ele>537</ele>
        <time>2018-05-24T10:44:20Z</time>
      </trkpt>
      <trkpt lat="45.18695" lon="3.91459">
        <ele>537</ele>
        <time>2018-05-24T10:44:27Z</time>
      </trkpt>
      <trkpt lat="45.1869" lon="3.91439">
        <ele>536</ele>
        <time>2018-05-24T10:44:36Z</time>
      </trkpt>
      <trkpt lat="45.18688" lon="3.91426">
        <ele>536</ele>
        <time>2018-05-24T10:44:45Z</time>
      </trkpt>
      <trkpt lat="45.18687" lon="3.91417">
        <ele>536</ele>
        <time>2018-05-24T10:44:53Z</time>
      </trkpt>
      <trkpt lat="45.18688" lon="3.91415">
        <ele>536</ele>
        <time>2018-05-24T10:45:17Z</time>
      </trkpt>
      <trkpt lat="45.18691" lon="3.91414">
        <ele>537</ele>
        <time>2018-05-24T10:45:46Z</time>
      </trkpt>
      <trkpt lat="45.18689" lon="3.91413">
        <ele>537</ele>
        <time>2018-05-24T10:46:13Z</time>
      </trkpt>
      <trkpt lat="45.18689" lon="3.91414">
        <ele>537</ele>
        <time>2018-05-24T10:46:40Z</time>
      </trkpt>
      <trkpt lat="45.18689" lon="3.91416">
        <ele>537</ele>
        <time>2018-05-24T10:47:10Z</time>
      </trkpt>
      <trkpt lat="45.18689" lon="3.91415">
        <ele>537</ele>
        <time>2018-05-24T10:47:38Z</time>
      </trkpt>
      <trkpt lat="45.1869" lon="3.91414">
        <ele>537</ele>
        <time>2018-05-24T10:48:09Z</time>
      </trkpt>
      <trkpt lat="45.18689" lon="3.91414">
        <ele>537</ele>
        <time>2018-05-24T10:48:54Z</time>
      </trkpt>
      <trkpt lat="45.18689" lon="3.91413">
        <ele>537</ele>
        <time>2018-05-24T10:49:31Z</time>
      </trkpt>
      <trkpt lat="45.18689" lon="3.91414">
        <ele>537</ele>
        <time>2018-05-24T10:50:06Z</time>
      </trkpt>
      <trkpt lat="45.18689" lon="3.91414">
        <ele>537</ele>
        <time>2018-05-24T10:50:45Z</time>
      </trkpt>
      <trkpt lat="45.18688" lon="3.91413">
        <ele>537</ele>
        <time>2018-05-24T10:51:13Z</time>
      </trkpt>
      <trkpt lat="45.18688" lon="3.91413">
        <ele>537</ele>
        <time>2018-05-24T10:51:47Z</time>
      </trkpt>
      <trkpt lat="45.1869" lon="3.91414">
        <ele>537</ele>
        <time>2018-05-24T10:52:22Z</time>
      </trkpt>
      <trkpt lat="45.18689" lon="3.91415">
        <ele>537</ele>
        <time>2018-05-24T10:52:53Z</time>
      </trkpt>
      <trkpt lat="45.18689" lon="3.91415">
        <ele>537</ele>
        <time>2018-05-24T10:53:30Z</time>
      </trkpt>
      <trkpt lat="45.18689" lon="3.91415">
        <ele>537</ele>
        <time>2018-05-24T10:54:01Z</time>
      </trkpt>
      <trkpt lat="45.18689" lon="3.91416">
        <ele>537</ele>
        <time>2018-05-24T10:54:27Z</time>
      </trkpt>
      <trkpt lat="45.18687" lon="3.91415">
        <ele>536</ele>
        <time>2018-05-24T10:55:00Z</time>
      </trkpt>
      <trkpt lat="45.18687" lon="3.91414">
        <ele>536</ele>
        <time>2018-05-24T10:55:32Z</time>
      </trkpt>
      <trkpt lat="45.18689" lon="3.91414">
        <ele>537</ele>
        <time>2018-05-24T10:56:04Z</time>
      </trkpt>
      <trkpt lat="45.18689" lon="3.91415">
        <ele>537</ele>
        <time>2018-05-24T10:56:38Z</time>
      </trkpt>
      <trkpt lat="45.18689" lon="3.91415">
        <ele>537</ele>
        <time>2018-05-24T10:57:09Z</time>
      </trkpt>
      <trkpt lat="45.18689" lon="3.91416">
        <ele>537</ele>
        <time>2018-05-24T10:57:39Z</time>
      </trkpt>
      <trkpt lat="45.18689" lon="3.91414">
        <ele>537</ele>
        <time>2018-05-24T10:58:12Z</time>
      </trkpt>
      <trkpt lat="45.1869" lon="3.91416">
        <ele>537</ele>
        <time>2018-05-24T10:58:43Z</time>
      </trkpt>
      <trkpt lat="45.18688" lon="3.91415">
        <ele>536</ele>
        <time>2018-05-24T10:59:19Z</time>
      </trkpt>
      <trkpt lat="45.18689" lon="3.91415">
        <ele>537</ele>
        <time>2018-05-24T10:59:43Z</time>
      </trkpt>
      <trkpt lat="45.18689" lon="3.91415">
        <ele>537</ele>
        <time>2018-05-24T11:00:14Z</time>
      </trkpt>
      <trkpt lat="45.18688" lon="3.91412">
        <ele>537</ele>
        <time>2018-05-24T11:00:48Z</time>
      </trkpt>
      <trkpt lat="45.18689" lon="3.91413">
        <ele>537</ele>
        <time>2018-05-24T11:01:24Z</time>
      </trkpt>
      <trkpt lat="45.18688" lon="3.91414">
        <ele>537</ele>
        <time>2018-05-24T11:02:03Z</time>
      </trkpt>
      <trkpt lat="45.18689" lon="3.91415">
        <ele>537</ele>
        <time>2018-05-24T11:02:36Z</time>
      </trkpt>
      <trkpt lat="45.18689" lon="3.91414">
        <ele>537</ele>
        <time>2018-05-24T11:03:10Z</time>
      </trkpt>
      <trkpt lat="45.18688" lon="3.91414">
        <ele>537</ele>
        <time>2018-05-24T11:03:38Z</time>
      </trkpt>
      <trkpt lat="45.18689" lon="3.91414">
        <ele>537</ele>
        <time>2018-05-24T11:04:12Z</time>
      </trkpt>
      <trkpt lat="45.18689" lon="3.91413">
        <ele>537</ele>
        <time>2018-05-24T11:04:46Z</time>
      </trkpt>
      <trkpt lat="45.18689" lon="3.91413">
        <ele>537</ele>
        <time>2018-05-24T11:05:18Z</time>
      </trkpt>
      <trkpt lat="45.1869" lon="3.91414">
        <ele>537</ele>
        <time>2018-05-24T11:05:52Z</time>
      </trkpt>
      <trkpt lat="45.1869" lon="3.91415">
        <ele>537</ele>
        <time>2018-05-24T11:06:34Z</time>
      </trkpt>
      <trkpt lat="45.1869" lon="3.91416">
        <ele>537</ele>
        <time>2018-05-24T11:07:06Z</time>
      </trkpt>
      <trkpt lat="45.18689" lon="3.91414">
        <ele>537</ele>
        <time>2018-05-24T11:07:48Z</time>
      </trkpt>
      <trkpt lat="45.18689" lon="3.91413">
        <ele>537</ele>
        <time>2018-05-24T11:08:14Z</time>
      </trkpt>
      <trkpt lat="45.18689" lon="3.91413">
        <ele>537</ele>
        <time>2018-05-24T11:08:45Z</time>
      </trkpt>
      <trkpt lat="45.1869" lon="3.91413">
        <ele>537</ele>
        <time>2018-05-24T11:09:21Z</time>
      </trkpt>
      <trkpt lat="45.18689" lon="3.91414">
        <ele>537</ele>
        <time>2018-05-24T11:10:00Z</time>
      </trkpt>
      <trkpt lat="45.1869" lon="3.91415">
        <ele>537</ele>
        <time>2018-05-24T11:10:35Z</time>
      </trkpt>
      <trkpt lat="45.1869" lon="3.91415">
        <ele>537</ele>
        <time>2018-05-24T11:11:10Z</time>
      </trkpt>
      <trkpt lat="45.18689" lon="3.91414">
        <ele>537</ele>
        <time>2018-05-24T11:11:51Z</time>
      </trkpt>
      <trkpt lat="45.18689" lon="3.91414">
        <ele>537</ele>
        <time>2018-05-24T11:12:18Z</time>
      </trkpt>
      <trkpt lat="45.18689" lon="3.91414">
        <ele>537</ele>
        <time>2018-05-24T11:12:52Z</time>
      </trkpt>
      <trkpt lat="45.1869" lon="3.91414">
        <ele>537</ele>
        <time>2018-05-24T11:13:31Z</time>
      </trkpt>
      <trkpt lat="45.18689" lon="3.91414">
        <ele>537</ele>
        <time>2018-05-24T11:14:03Z</time>
      </trkpt>
      <trkpt lat="45.18688" lon="3.91412">
        <ele>537</ele>
        <time>2018-05-24T11:14:38Z</time>
      </trkpt>
      <trkpt lat="45.18688" lon="3.91414">
        <ele>537</ele>
        <time>2018-05-24T11:15:10Z</time>
      </trkpt>
      <trkpt lat="45.18689" lon="3.91414">
        <ele>537</ele>
        <time>2018-05-24T11:15:51Z</time>
      </trkpt>
      <trkpt lat="45.1869" lon="3.91415">
        <ele>537</ele>
        <time>2018-05-24T11:16:35Z</time>
      </trkpt>
      <trkpt lat="45.18689" lon="3.91415">
        <ele>537</ele>
        <time>2018-05-24T11:17:19Z</time>
      </trkpt>
      <trkpt lat="45.1869" lon="3.91413">
        <ele>537</ele>
        <time>2018-05-24T11:17:49Z</time>
      </trkpt>
      <trkpt lat="45.1869" lon="3.91414">
        <ele>537</ele>
        <time>2018-05-24T11:18:30Z</time>
      </trkpt>
      <trkpt lat="45.1869" lon="3.91413">
        <ele>537</ele>
        <time>2018-05-24T11:19:01Z</time>
      </trkpt>
      <trkpt lat="45.1869" lon="3.91413">
        <ele>537</ele>
        <time>2018-05-24T11:19:38Z</time>
      </trkpt>
      <trkpt lat="45.1869" lon="3.91413">
        <ele>537</ele>
        <time>2018-05-24T11:20:07Z</time>
      </trkpt>
      <trkpt lat="45.18691" lon="3.91413">
        <ele>537</ele>
        <time>2018-05-24T11:20:52Z</time>
      </trkpt>
      <trkpt lat="45.1869" lon="3.91415">
        <ele>537</ele>
        <time>2018-05-24T11:21:24Z</time>
      </trkpt>
      <trkpt lat="45.18689" lon="3.91414">
        <ele>537</ele>
        <time>2018-05-24T11:21:56Z</time>
      </trkpt>
      <trkpt lat="45.18689" lon="3.91415">
        <ele>537</ele>
        <time>2018-05-24T11:22:08Z</time>
      </trkpt>
      <trkpt lat="45.18691" lon="3.91412">
        <ele>537</ele>
        <time>2018-05-24T11:22:29Z</time>
      </trkpt>
      <trkpt lat="45.1869" lon="3.91413">
        <ele>537</ele>
        <time>2018-05-24T11:22:50Z</time>
      </trkpt>
      <trkpt lat="45.18684" lon="3.91405">
        <ele>536</ele>
        <time>2018-05-24T11:23:10Z</time>
      </trkpt>
      <trkpt lat="45.18681" lon="3.91399">
        <ele>537</ele>
        <time>2018-05-24T11:23:15Z</time>
      </trkpt>
      <trkpt lat="45.18672" lon="3.91385">
        <ele>537</ele>
        <time>2018-05-24T11:23:29Z</time>
      </trkpt>
      <trkpt lat="45.18664" lon="3.91362">
        <ele>535</ele>
        <time>2018-05-24T11:23:45Z</time>
      </trkpt>
      <trkpt lat="45.18649" lon="3.91338">
        <ele>536</ele>
        <time>2018-05-24T11:24:04Z</time>
      </trkpt>
      <trkpt lat="45.1864" lon="3.91324">
        <ele>536</ele>
        <time>2018-05-24T11:24:18Z</time>
      </trkpt>
      <trkpt lat="45.18639" lon="3.91322">
        <ele>536</ele>
        <time>2018-05-24T11:24:19Z</time>
      </trkpt>
      <trkpt lat="45.18627" lon="3.91304">
        <ele>536</ele>
        <time>2018-05-24T11:24:33Z</time>
      </trkpt>
      <trkpt lat="45.18612" lon="3.91287">
        <ele>536</ele>
        <time>2018-05-24T11:24:48Z</time>
      </trkpt>
      <trkpt lat="45.186" lon="3.91281">
        <ele>536</ele>
        <time>2018-05-24T11:25:01Z</time>
      </trkpt>
      <trkpt lat="45.18589" lon="3.91266">
        <ele>536</ele>
        <time>2018-05-24T11:25:15Z</time>
      </trkpt>
      <trkpt lat="45.18574" lon="3.91243">
        <ele>535</ele>
        <time>2018-05-24T11:25:33Z</time>
      </trkpt>
      <trkpt lat="45.18566" lon="3.91227">
        <ele>536</ele>
        <time>2018-05-24T11:25:43Z</time>
      </trkpt>
      <trkpt lat="45.18562" lon="3.9121">
        <ele>536</ele>
        <time>2018-05-24T11:25:54Z</time>
      </trkpt>
      <trkpt lat="45.1856" lon="3.91199">
        <ele>536</ele>
        <time>2018-05-24T11:26:03Z</time>
      </trkpt>
      <trkpt lat="45.18564" lon="3.91172">
        <ele>537</ele>
        <time>2018-05-24T11:26:19Z</time>
      </trkpt>
      <trkpt lat="45.18558" lon="3.9116">
        <ele>538</ele>
        <time>2018-05-24T11:26:29Z</time>
      </trkpt>
      <trkpt lat="45.18547" lon="3.91151">
        <ele>537</ele>
        <time>2018-05-24T11:26:43Z</time>
      </trkpt>
      <trkpt lat="45.18544" lon="3.91147">
        <ele>537</ele>
        <time>2018-05-24T11:27:04Z</time>
      </trkpt>
      <trkpt lat="45.18544" lon="3.91148">
        <ele>537</ele>
        <time>2018-05-24T11:27:21Z</time>
      </trkpt>
      <trkpt lat="45.18537" lon="3.91144">
        <ele>537</ele>
        <time>2018-05-24T11:27:31Z</time>
      </trkpt>
      <trkpt lat="45.1853" lon="3.91133">
        <ele>537</ele>
        <time>2018-05-24T11:27:48Z</time>
      </trkpt>
      <trkpt lat="45.18522" lon="3.91116">
        <ele>537</ele>
        <time>2018-05-24T11:28:04Z</time>
      </trkpt>
      <trkpt lat="45.18523" lon="3.91114">
        <ele>538</ele>
        <time>2018-05-24T11:28:25Z</time>
      </trkpt>
      <trkpt lat="45.18522" lon="3.91113">
        <ele>538</ele>
        <time>2018-05-24T11:28:45Z</time>
      </trkpt>
      <trkpt lat="45.18519" lon="3.91115">
        <ele>537</ele>
        <time>2018-05-24T11:29:02Z</time>
      </trkpt>
      <trkpt lat="45.18507" lon="3.91107">
        <ele>538</ele>
        <time>2018-05-24T11:29:11Z</time>
      </trkpt>
      <trkpt lat="45.18503" lon="3.91106">
        <ele>538</ele>
        <time>2018-05-24T11:29:25Z</time>
      </trkpt>
      <trkpt lat="45.18504" lon="3.91104">
        <ele>538</ele>
        <time>2018-05-24T11:29:42Z</time>
      </trkpt>
      <trkpt lat="45.18499" lon="3.91102">
        <ele>538</ele>
        <time>2018-05-24T11:29:57Z</time>
      </trkpt>
      <trkpt lat="45.1848" lon="3.91102">
        <ele>538</ele>
        <time>2018-05-24T11:30:13Z</time>
      </trkpt>
      <trkpt lat="45.18466" lon="3.91098">
        <ele>539</ele>
        <time>2018-05-24T11:30:24Z</time>
      </trkpt>
      <trkpt lat="45.18452" lon="3.91091">
        <ele>539</ele>
        <time>2018-05-24T11:30:36Z</time>
      </trkpt>
      <trkpt lat="45.18438" lon="3.91092">
        <ele>539</ele>
        <time>2018-05-24T11:30:48Z</time>
      </trkpt>
      <trkpt lat="45.18434" lon="3.91094">
        <ele>540</ele>
        <time>2018-05-24T11:30:51Z</time>
      </trkpt>
      <trkpt lat="45.18417" lon="3.91108">
        <ele>540</ele>
        <time>2018-05-24T11:31:07Z</time>
      </trkpt>
      <trkpt lat="45.18409" lon="3.91116">
        <ele>541</ele>
        <time>2018-05-24T11:31:14Z</time>
      </trkpt>
      <trkpt lat="45.18392" lon="3.91136">
        <ele>541</ele>
        <time>2018-05-24T11:31:31Z</time>
      </trkpt>
      <trkpt lat="45.18384" lon="3.91145">
        <ele>542</ele>
        <time>2018-05-24T11:31:39Z</time>
      </trkpt>
      <trkpt lat="45.18373" lon="3.91157">
        <ele>542</ele>
        <time>2018-05-24T11:31:49Z</time>
      </trkpt>
      <trkpt lat="45.18365" lon="3.91168">
        <ele>541</ele>
        <time>2018-05-24T11:31:59Z</time>
      </trkpt>
      <trkpt lat="45.18365" lon="3.91168">
        <ele>541</ele>
        <time>2018-05-24T11:32:00Z</time>
      </trkpt>
      <trkpt lat="45.18366" lon="3.91192">
        <ele>540</ele>
        <time>2018-05-24T11:32:13Z</time>
      </trkpt>
      <trkpt lat="45.18366" lon="3.91221">
        <ele>540</ele>
        <time>2018-05-24T11:32:28Z</time>
      </trkpt>
      <trkpt lat="45.18362" lon="3.91252">
        <ele>539</ele>
        <time>2018-05-24T11:32:43Z</time>
      </trkpt>
      <trkpt lat="45.18358" lon="3.91287">
        <ele>539</ele>
        <time>2018-05-24T11:33:01Z</time>
      </trkpt>
      <trkpt lat="45.18358" lon="3.91291">
        <ele>539</ele>
        <time>2018-05-24T11:33:04Z</time>
      </trkpt>
      <trkpt lat="45.18353" lon="3.91321">
        <ele>540</ele>
        <time>2018-05-24T11:33:20Z</time>
      </trkpt>
      <trkpt lat="45.18338" lon="3.91343">
        <ele>540</ele>
        <time>2018-05-24T11:33:36Z</time>
      </trkpt>
      <trkpt lat="45.18318" lon="3.91364">
        <ele>540</ele>
        <time>2018-05-24T11:33:53Z</time>
      </trkpt>
      <trkpt lat="45.183" lon="3.91385">
        <ele>540</ele>
        <time>2018-05-24T11:34:10Z</time>
      </trkpt>
      <trkpt lat="45.18294" lon="3.91394">
        <ele>540</ele>
        <time>2018-05-24T11:34:21Z</time>
      </trkpt>
      <trkpt lat="45.18276" lon="3.91412">
        <ele>540</ele>
        <time>2018-05-24T11:34:38Z</time>
      </trkpt>
      <trkpt lat="45.18265" lon="3.91419">
        <ele>540</ele>
        <time>2018-05-24T11:34:48Z</time>
      </trkpt>
      <trkpt lat="45.18246" lon="3.91404">
        <ele>542</ele>
        <time>2018-05-24T11:35:05Z</time>
      </trkpt>
      <trkpt lat="45.18229" lon="3.91388">
        <ele>542</ele>
        <time>2018-05-24T11:35:22Z</time>
      </trkpt>
      <trkpt lat="45.18222" lon="3.91387">
        <ele>542</ele>
        <time>2018-05-24T11:35:30Z</time>
      </trkpt>
      <trkpt lat="45.18213" lon="3.91402">
        <ele>542</ele>
        <time>2018-05-24T11:35:41Z</time>
      </trkpt>
      <trkpt lat="45.18212" lon="3.91405">
        <ele>542</ele>
        <time>2018-05-24T11:35:43Z</time>
      </trkpt>
      <trkpt lat="45.18192" lon="3.9143">
        <ele>542</ele>
        <time>2018-05-24T11:35:59Z</time>
      </trkpt>
      <trkpt lat="45.1818" lon="3.91453">
        <ele>542</ele>
        <time>2018-05-24T11:36:14Z</time>
      </trkpt>
      <trkpt lat="45.18168" lon="3.91478">
        <ele>542</ele>
      </trkpt>
      <trkpt lat="45.18127" lon="3.91552">
        <ele>543</ele>
      </trkpt>
      <trkpt lat="45.18089" lon="3.91634">
        <ele>542</ele>
      </trkpt>
      <trkpt lat="45.18048" lon="3.91714">
        <ele>548</ele>
      </trkpt>
      <trkpt lat="45.18025" lon="3.91753">
        <ele>546</ele>
      </trkpt>
      <trkpt lat="45.18011" lon="3.9178">
        <ele>546</ele>
      </trkpt>
      <trkpt lat="45.18012" lon="3.91818">
        <ele>545</ele>
      </trkpt>
      <trkpt lat="45.18004" lon="3.91877">
        <ele>542</ele>
      </trkpt>
      <trkpt lat="45.18002" lon="3.91912">
        <ele>540</ele>
      </trkpt>
      <trkpt lat="45.17998" lon="3.91934">
        <ele>539</ele>
      </trkpt>
      <trkpt lat="45.17998" lon="3.91945">
        <ele>539</ele>
      </trkpt>
      <trkpt lat="45.17997" lon="3.91949">
        <ele>539</ele>
        <time>2018-05-24T11:46:50Z</time>
      </trkpt>
      <trkpt lat="45.17997" lon="3.91974">
        <ele>538</ele>
        <time>2018-05-24T11:47:05Z</time>
      </trkpt>
      <trkpt lat="45.17993" lon="3.91991">
        <ele>538</ele>
        <time>2018-05-24T11:47:18Z</time>
      </trkpt>
      <trkpt lat="45.17993" lon="3.91995">
        <ele>537</ele>
        <time>2018-05-24T11:47:20Z</time>
      </trkpt>
      <trkpt lat="45.17992" lon="3.91999">
        <ele>537</ele>
        <time>2018-05-24T11:47:22Z</time>
      </trkpt>
      <trkpt lat="45.17988" lon="3.92034">
        <ele>538</ele>
        <time>2018-05-24T11:47:36Z</time>
      </trkpt>
      <trkpt lat="45.1799" lon="3.92041">
        <ele>538</ele>
        <time>2018-05-24T11:47:51Z</time>
      </trkpt>
      <trkpt lat="45.17989" lon="3.92054">
        <ele>539</ele>
        <time>2018-05-24T11:48:01Z</time>
      </trkpt>
      <trkpt lat="45.17988" lon="3.92071">
        <ele>539</ele>
        <time>2018-05-24T11:48:10Z</time>
      </trkpt>
      <trkpt lat="45.17982" lon="3.92107">
        <ele>541</ele>
        <time>2018-05-24T11:48:26Z</time>
      </trkpt>
      <trkpt lat="45.17978" lon="3.92139">
        <ele>542</ele>
        <time>2018-05-24T11:48:43Z</time>
      </trkpt>
      <trkpt lat="45.17975" lon="3.92169">
        <ele>544</ele>
        <time>2018-05-24T11:49:00Z</time>
      </trkpt>
      <trkpt lat="45.17971" lon="3.92196">
        <ele>544</ele>
        <time>2018-05-24T11:49:17Z</time>
      </trkpt>
      <trkpt lat="45.17969" lon="3.92203">
        <ele>544</ele>
        <time>2018-05-24T11:49:21Z</time>
      </trkpt>
      <trkpt lat="45.17963" lon="3.92229">
        <ele>545</ele>
        <time>2018-05-24T11:49:38Z</time>
      </trkpt>
      <trkpt lat="45.17964" lon="3.92237">
        <ele>545</ele>
        <time>2018-05-24T11:49:59Z</time>
      </trkpt>
      <trkpt lat="45.17964" lon="3.92248">
        <ele>545</ele>
        <time>2018-05-24T11:50:06Z</time>
      </trkpt>
      <trkpt lat="45.17971" lon="3.9227">
        <ele>549</ele>
        <time>2018-05-24T11:50:20Z</time>
      </trkpt>
      <trkpt lat="45.17972" lon="3.92281">
        <ele>549</ele>
        <time>2018-05-24T11:50:26Z</time>
      </trkpt>
      <trkpt lat="45.17961" lon="3.92302">
        <ele>550</ele>
        <time>2018-05-24T11:50:41Z</time>
      </trkpt>
      <trkpt lat="45.17948" lon="3.92306">
        <ele>551</ele>
        <time>2018-05-24T11:50:54Z</time>
      </trkpt>
      <trkpt lat="45.17934" lon="3.92314">
        <ele>552</ele>
        <time>2018-05-24T11:51:07Z</time>
      </trkpt>
      <trkpt lat="45.17922" lon="3.92322">
        <ele>553</ele>
        <time>2018-05-24T11:51:20Z</time>
      </trkpt>
      <trkpt lat="45.17919" lon="3.92325">
        <ele>554</ele>
        <time>2018-05-24T11:51:24Z</time>
      </trkpt>
      <trkpt lat="45.17906" lon="3.92337">
        <ele>557</ele>
        <time>2018-05-24T11:51:39Z</time>
      </trkpt>
      <trkpt lat="45.17894" lon="3.9235">
        <ele>559</ele>
        <time>2018-05-24T11:51:55Z</time>
      </trkpt>
      <trkpt lat="45.17892" lon="3.92375">
        <ele>560</ele>
        <time>2018-05-24T11:52:10Z</time>
      </trkpt>
      <trkpt lat="45.17893" lon="3.92397">
        <ele>562</ele>
        <time>2018-05-24T11:52:23Z</time>
      </trkpt>
      <trkpt lat="45.17892" lon="3.92403">
        <ele>562</ele>
        <time>2018-05-24T11:52:28Z</time>
      </trkpt>
      <trkpt lat="45.17889" lon="3.92415">
        <ele>563</ele>
        <time>2018-05-24T11:52:34Z</time>
      </trkpt>
      <trkpt lat="45.1789" lon="3.9242">
        <ele>567</ele>
        <time>2018-05-24T11:52:37Z</time>
      </trkpt>
      <trkpt lat="45.17887" lon="3.92439">
        <ele>567</ele>
        <time>2018-05-24T11:52:48Z</time>
      </trkpt>
      <trkpt lat="45.17886" lon="3.92452">
        <ele>568</ele>
        <time>2018-05-24T11:52:56Z</time>
      </trkpt>
      <trkpt lat="45.17886" lon="3.92455">
        <ele>568</ele>
        <time>2018-05-24T11:52:58Z</time>
      </trkpt>
      <trkpt lat="45.17882" lon="3.92467">
        <ele>568</ele>
        <time>2018-05-24T11:53:04Z</time>
      </trkpt>
      <trkpt lat="45.17879" lon="3.92489">
        <ele>569</ele>
        <time>2018-05-24T11:53:20Z</time>
      </trkpt>
      <trkpt lat="45.17879" lon="3.92491">
        <ele>569</ele>
        <time>2018-05-24T11:53:21Z</time>
      </trkpt>
      <trkpt lat="45.17877" lon="3.9251">
        <ele>573</ele>
        <time>2018-05-24T11:53:35Z</time>
      </trkpt>
      <trkpt lat="45.17878" lon="3.92526">
        <ele>574</ele>
        <time>2018-05-24T11:53:49Z</time>
      </trkpt>
      <trkpt lat="45.17872" lon="3.92545">
        <ele>575</ele>
        <time>2018-05-24T11:54:03Z</time>
      </trkpt>
      <trkpt lat="45.1787" lon="3.92563">
        <ele>576</ele>
        <time>2018-05-24T11:54:20Z</time>
      </trkpt>
      <trkpt lat="45.17868" lon="3.92571">
        <ele>577</ele>
        <time>2018-05-24T11:54:37Z</time>
      </trkpt>
      <trkpt lat="45.17864" lon="3.92577">
        <ele>577</ele>
        <time>2018-05-24T11:54:51Z</time>
      </trkpt>
      <trkpt lat="45.17862" lon="3.92581">
        <ele>578</ele>
        <time>2018-05-24T11:54:57Z</time>
      </trkpt>
      <trkpt lat="45.17854" lon="3.92602">
        <ele>585</ele>
        <time>2018-05-24T11:55:10Z</time>
      </trkpt>
      <trkpt lat="45.17845" lon="3.92627">
        <ele>588</ele>
        <time>2018-05-24T11:55:29Z</time>
      </trkpt>
      <trkpt lat="45.17833" lon="3.92645">
        <ele>595</ele>
        <time>2018-05-24T11:55:45Z</time>
      </trkpt>
      <trkpt lat="45.17824" lon="3.92662">
        <ele>598</ele>
        <time>2018-05-24T11:56:02Z</time>
      </trkpt>
      <trkpt lat="45.17818" lon="3.92674">
        <ele>606</ele>
        <time>2018-05-24T11:56:15Z</time>
      </trkpt>
      <trkpt lat="45.17806" lon="3.92694">
        <ele>609</ele>
        <time>2018-05-24T11:56:33Z</time>
      </trkpt>
      <trkpt lat="45.17793" lon="3.92712">
        <ele>611</ele>
        <time>2018-05-24T11:56:53Z</time>
      </trkpt>
      <trkpt lat="45.17781" lon="3.92728">
        <ele>613</ele>
        <time>2018-05-24T11:57:11Z</time>
      </trkpt>
      <trkpt lat="45.1777" lon="3.92741">
        <ele>615</ele>
        <time>2018-05-24T11:57:27Z</time>
      </trkpt>
      <trkpt lat="45.17764" lon="3.92746">
        <ele>616</ele>
        <time>2018-05-24T11:57:41Z</time>
      </trkpt>
      <trkpt lat="45.17755" lon="3.92762">
        <ele>624</ele>
        <time>2018-05-24T11:57:58Z</time>
      </trkpt>
      <trkpt lat="45.17752" lon="3.92771">
        <ele>627</ele>
        <time>2018-05-24T11:58:14Z</time>
      </trkpt>
      <trkpt lat="45.17751" lon="3.92776">
        <ele>628</ele>
        <time>2018-05-24T11:58:34Z</time>
      </trkpt>
      <trkpt lat="45.17748" lon="3.92781">
        <ele>630</ele>
        <time>2018-05-24T11:58:53Z</time>
      </trkpt>
      <trkpt lat="45.17742" lon="3.9279">
        <ele>631</ele>
        <time>2018-05-24T11:59:08Z</time>
      </trkpt>
      <trkpt lat="45.1774" lon="3.92796">
        <ele>633</ele>
        <time>2018-05-24T11:59:26Z</time>
      </trkpt>
      <trkpt lat="45.17741" lon="3.92802">
        <ele>634</ele>
        <time>2018-05-24T11:59:44Z</time>
      </trkpt>
      <trkpt lat="45.17741" lon="3.92807">
        <ele>635</ele>
        <time>2018-05-24T12:00:03Z</time>
      </trkpt>
      <trkpt lat="45.17749" lon="3.92818">
        <ele>638</ele>
        <time>2018-05-24T12:00:20Z</time>
      </trkpt>
      <trkpt lat="45.17755" lon="3.92825">
        <ele>639</ele>
        <time>2018-05-24T12:00:39Z</time>
      </trkpt>
      <trkpt lat="45.17782" lon="3.92846">
        <ele>646</ele>
        <time>2018-05-24T12:00:58Z</time>
      </trkpt>
      <trkpt lat="45.17786" lon="3.92848">
        <ele>646</ele>
        <time>2018-05-24T12:01:17Z</time>
      </trkpt>
      <trkpt lat="45.17786" lon="3.92848">
        <ele>646</ele>
        <time>2018-05-24T12:01:20Z</time>
      </trkpt>
      <trkpt lat="45.17778" lon="3.92865">
        <ele>648</ele>
        <time>2018-05-24T12:01:35Z</time>
      </trkpt>
      <trkpt lat="45.17767" lon="3.92879">
        <ele>650</ele>
        <time>2018-05-24T12:01:52Z</time>
      </trkpt>
      <trkpt lat="45.1776" lon="3.92893">
        <ele>654</ele>
        <time>2018-05-24T12:02:09Z</time>
      </trkpt>
      <trkpt lat="45.17757" lon="3.92899">
        <ele>656</ele>
        <time>2018-05-24T12:02:19Z</time>
      </trkpt>
      <trkpt lat="45.17755" lon="3.92903">
        <ele>657</ele>
        <time>2018-05-24T12:02:25Z</time>
      </trkpt>
      <trkpt lat="45.17753" lon="3.92906">
        <ele>659</ele>
        <time>2018-05-24T12:02:29Z</time>
      </trkpt>
      <trkpt lat="45.17745" lon="3.92921">
        <ele>668</ele>
        <time>2018-05-24T12:02:39Z</time>
      </trkpt>
      <trkpt lat="45.17733" lon="3.92939">
        <ele>675</ele>
        <time>2018-05-24T12:02:52Z</time>
      </trkpt>
      <trkpt lat="45.17731" lon="3.92949">
        <ele>677</ele>
        <time>2018-05-24T12:02:59Z</time>
      </trkpt>
      <trkpt lat="45.17731" lon="3.92956">
        <ele>678</ele>
        <time>2018-05-24T12:03:03Z</time>
      </trkpt>
      <trkpt lat="45.17732" lon="3.9296">
        <ele>679</ele>
        <time>2018-05-24T12:03:12Z</time>
      </trkpt>
      <trkpt lat="45.17736" lon="3.92959">
        <ele>678</ele>
        <time>2018-05-24T12:03:16Z</time>
      </trkpt>
      <trkpt lat="45.17743" lon="3.92959">
        <ele>678</ele>
        <time>2018-05-24T12:03:25Z</time>
      </trkpt>
      <trkpt lat="45.17745" lon="3.92958">
        <ele>678</ele>
        <time>2018-05-24T12:03:27Z</time>
      </trkpt>
      <trkpt lat="45.17757" lon="3.92951">
        <ele>664</ele>
        <time>2018-05-24T12:03:39Z</time>
      </trkpt>
      <trkpt lat="45.1776" lon="3.92954">
        <ele>664</ele>
        <time>2018-05-24T12:03:43Z</time>
      </trkpt>
      <trkpt lat="45.17761" lon="3.9296">
        <ele>664</ele>
        <time>2018-05-24T12:03:50Z</time>
      </trkpt>
      <trkpt lat="45.1776" lon="3.92961">
        <ele>665</ele>
        <time>2018-05-24T12:03:52Z</time>
      </trkpt>
      <trkpt lat="45.17759" lon="3.92963">
        <ele>665</ele>
        <time>2018-05-24T12:03:54Z</time>
      </trkpt>
      <trkpt lat="45.17754" lon="3.92967">
        <ele>666</ele>
        <time>2018-05-24T12:04:05Z</time>
      </trkpt>
      <trkpt lat="45.17749" lon="3.92972">
        <ele>680</ele>
        <time>2018-05-24T12:04:11Z</time>
      </trkpt>
      <trkpt lat="45.17744" lon="3.92981">
        <ele>681</ele>
        <time>2018-05-24T12:04:21Z</time>
      </trkpt>
      <trkpt lat="45.17736" lon="3.9299">
        <ele>682</ele>
        <time>2018-05-24T12:04:29Z</time>
      </trkpt>
      <trkpt lat="45.17728" lon="3.93002">
        <ele>691</ele>
        <time>2018-05-24T12:04:40Z</time>
      </trkpt>
      <trkpt lat="45.17725" lon="3.93005">
        <ele>692</ele>
        <time>2018-05-24T12:04:43Z</time>
      </trkpt>
      <trkpt lat="45.17718" lon="3.93015">
        <ele>694</ele>
        <time>2018-05-24T12:04:57Z</time>
      </trkpt>
      <trkpt lat="45.17714" lon="3.9302">
        <ele>695</ele>
        <time>2018-05-24T12:05:07Z</time>
      </trkpt>
      <trkpt lat="45.17694" lon="3.93027">
        <ele>697</ele>
        <time>2018-05-24T12:05:28Z</time>
      </trkpt>
      <trkpt lat="45.17678" lon="3.93029">
        <ele>697</ele>
        <time>2018-05-24T12:05:46Z</time>
      </trkpt>
      <trkpt lat="45.1768" lon="3.93037">
        <ele>698</ele>
        <time>2018-05-24T12:06:06Z</time>
      </trkpt>
      <trkpt lat="45.17689" lon="3.93058">
        <ele>700</ele>
        <time>2018-05-24T12:06:27Z</time>
      </trkpt>
      <trkpt lat="45.17697" lon="3.93085">
        <ele>709</ele>
        <time>2018-05-24T12:06:47Z</time>
      </trkpt>
      <trkpt lat="45.17696" lon="3.93103">
        <ele>710</ele>
        <time>2018-05-24T12:07:11Z</time>
      </trkpt>
      <trkpt lat="45.17697" lon="3.93128">
        <ele>712</ele>
        <time>2018-05-24T12:07:32Z</time>
      </trkpt>
      <trkpt lat="45.17709" lon="3.93159">
        <ele>714</ele>
        <time>2018-05-24T12:07:47Z</time>
      </trkpt>
      <trkpt lat="45.17711" lon="3.93192">
        <ele>723</ele>
        <time>2018-05-24T12:08:07Z</time>
      </trkpt>
      <trkpt lat="45.17712" lon="3.93224">
        <ele>725</ele>
        <time>2018-05-24T12:08:26Z</time>
      </trkpt>
      <trkpt lat="45.17727" lon="3.93245">
        <ele>726</ele>
        <time>2018-05-24T12:08:43Z</time>
      </trkpt>
      <trkpt lat="45.17724" lon="3.93259">
        <ele>729</ele>
        <time>2018-05-24T12:09:00Z</time>
      </trkpt>
      <trkpt lat="45.17731" lon="3.93279">
        <ele>730</ele>
        <time>2018-05-24T12:09:16Z</time>
      </trkpt>
      <trkpt lat="45.17731" lon="3.93284">
        <ele>730</ele>
        <time>2018-05-24T12:09:18Z</time>
      </trkpt>
      <trkpt lat="45.17741" lon="3.93295">
        <ele>731</ele>
        <time>2018-05-24T12:09:27Z</time>
      </trkpt>
      <trkpt lat="45.17751" lon="3.93321">
        <ele>731</ele>
        <time>2018-05-24T12:09:43Z</time>
      </trkpt>
      <trkpt lat="45.17754" lon="3.93332">
        <ele>734</ele>
        <time>2018-05-24T12:10:00Z</time>
      </trkpt>
      <trkpt lat="45.17755" lon="3.93338">
        <ele>735</ele>
        <time>2018-05-24T12:10:15Z</time>
      </trkpt>
      <trkpt lat="45.17756" lon="3.93339">
        <ele>735</ele>
        <time>2018-05-24T12:10:28Z</time>
      </trkpt>
      <trkpt lat="45.17764" lon="3.93351">
        <ele>734</ele>
        <time>2018-05-24T12:10:45Z</time>
      </trkpt>
      <trkpt lat="45.17768" lon="3.93355">
        <ele>734</ele>
        <time>2018-05-24T12:10:50Z</time>
      </trkpt>
      <trkpt lat="45.17776" lon="3.9338">
        <ele>734</ele>
        <time>2018-05-24T12:11:08Z</time>
      </trkpt>
      <trkpt lat="45.17786" lon="3.93405">
        <ele>734</ele>
        <time>2018-05-24T12:11:25Z</time>
      </trkpt>
      <trkpt lat="45.17793" lon="3.93431">
        <ele>737</ele>
        <time>2018-05-24T12:11:42Z</time>
      </trkpt>
      <trkpt lat="45.178" lon="3.93461">
        <ele>737</ele>
        <time>2018-05-24T12:12:00Z</time>
      </trkpt>
      <trkpt lat="45.17797" lon="3.93465">
        <ele>737</ele>
        <time>2018-05-24T12:12:18Z</time>
      </trkpt>
      <trkpt lat="45.17799" lon="3.93464">
        <ele>737</ele>
        <time>2018-05-24T12:12:39Z</time>
      </trkpt>
      <trkpt lat="45.17801" lon="3.93464">
        <ele>737</ele>
        <time>2018-05-24T12:12:56Z</time>
      </trkpt>
      <trkpt lat="45.178" lon="3.93463">
        <ele>737</ele>
        <time>2018-05-24T12:13:18Z</time>
      </trkpt>
      <trkpt lat="45.17799" lon="3.93473">
        <ele>737</ele>
        <time>2018-05-24T12:13:31Z</time>
      </trkpt>
      <trkpt lat="45.17802" lon="3.9351">
        <ele>739</ele>
        <time>2018-05-24T12:13:47Z</time>
      </trkpt>
      <trkpt lat="45.17796" lon="3.93542">
        <ele>739</ele>
        <time>2018-05-24T12:14:01Z</time>
      </trkpt>
      <trkpt lat="45.17787" lon="3.9356">
        <ele>739</ele>
        <time>2018-05-24T12:14:16Z</time>
      </trkpt>
      <trkpt lat="45.17785" lon="3.93564">
        <ele>739</ele>
        <time>2018-05-24T12:14:34Z</time>
      </trkpt>
      <trkpt lat="45.17795" lon="3.93548">
        <ele>739</ele>
        <time>2018-05-24T12:14:49Z</time>
      </trkpt>
      <trkpt lat="45.17799" lon="3.93524">
        <ele>738</ele>
        <time>2018-05-24T12:15:03Z</time>
      </trkpt>
      <trkpt lat="45.17798" lon="3.93504">
        <ele>738</ele>
        <time>2018-05-24T12:15:15Z</time>
      </trkpt>
      <trkpt lat="45.17797" lon="3.93502">
        <ele>738</ele>
        <time>2018-05-24T12:15:18Z</time>
      </trkpt>
      <trkpt lat="45.17795" lon="3.9349">
        <ele>737</ele>
        <time>2018-05-24T12:15:26Z</time>
      </trkpt>
      <trkpt lat="45.17804" lon="3.93479">
        <ele>738</ele>
        <time>2018-05-24T12:15:37Z</time>
      </trkpt>
      <trkpt lat="45.17813" lon="3.935">
        <ele>739</ele>
        <time>2018-05-24T12:15:51Z</time>
      </trkpt>
      <trkpt lat="45.17817" lon="3.9353">
        <ele>739</ele>
        <time>2018-05-24T12:16:09Z</time>
      </trkpt>
      <trkpt lat="45.17818" lon="3.93565">
        <ele>740</ele>
        <time>2018-05-24T12:16:27Z</time>
      </trkpt>
      <trkpt lat="45.1782" lon="3.93593">
        <ele>743</ele>
        <time>2018-05-24T12:16:41Z</time>
      </trkpt>
      <trkpt lat="45.1782" lon="3.93621">
        <ele>743</ele>
        <time>2018-05-24T12:16:56Z</time>
      </trkpt>
      <trkpt lat="45.17822" lon="3.93655">
        <ele>745</ele>
        <time>2018-05-24T12:17:14Z</time>
      </trkpt>
      <trkpt lat="45.17813" lon="3.93684">
        <ele>748</ele>
        <time>2018-05-24T12:17:31Z</time>
      </trkpt>
      <trkpt lat="45.17803" lon="3.93702">
        <ele>749</ele>
        <time>2018-05-24T12:17:44Z</time>
      </trkpt>
      <trkpt lat="45.17788" lon="3.9372">
        <ele>750</ele>
        <time>2018-05-24T12:18:00Z</time>
      </trkpt>
      <trkpt lat="45.17764" lon="3.93736">
        <ele>750</ele>
        <time>2018-05-24T12:18:17Z</time>
      </trkpt>
      <trkpt lat="45.1775" lon="3.93742">
        <ele>751</ele>
        <time>2018-05-24T12:18:29Z</time>
      </trkpt>
      <trkpt lat="45.17736" lon="3.93751">
        <ele>751</ele>
        <time>2018-05-24T12:18:39Z</time>
      </trkpt>
      <trkpt lat="45.17722" lon="3.93755">
        <ele>750</ele>
        <time>2018-05-24T12:18:51Z</time>
      </trkpt>
      <trkpt lat="45.1771" lon="3.9376">
        <ele>750</ele>
        <time>2018-05-24T12:18:57Z</time>
      </trkpt>
      <trkpt lat="45.17698" lon="3.93764">
        <ele>750</ele>
        <time>2018-05-24T12:19:08Z</time>
      </trkpt>
      <trkpt lat="45.17678" lon="3.93773">
        <ele>749</ele>
        <time>2018-05-24T12:19:19Z</time>
      </trkpt>
      <trkpt lat="45.17662" lon="3.93779">
        <ele>752</ele>
        <time>2018-05-24T12:19:29Z</time>
      </trkpt>
      <trkpt lat="45.17649" lon="3.93785">
        <ele>752</ele>
        <time>2018-05-24T12:19:41Z</time>
      </trkpt>
      <trkpt lat="45.17638" lon="3.93789">
        <ele>753</ele>
        <time>2018-05-24T12:19:49Z</time>
      </trkpt>
      <trkpt lat="45.17636" lon="3.93792">
        <ele>753</ele>
        <time>2018-05-24T12:19:53Z</time>
      </trkpt>
      <trkpt lat="45.17625" lon="3.93804">
        <ele>754</ele>
        <time>2018-05-24T12:20:01Z</time>
      </trkpt>
      <trkpt lat="45.1761" lon="3.93833">
        <ele>755</ele>
        <time>2018-05-24T12:20:18Z</time>
      </trkpt>
      <trkpt lat="45.17601" lon="3.93854">
        <ele>758</ele>
        <time>2018-05-24T12:20:30Z</time>
      </trkpt>
      <trkpt lat="45.17597" lon="3.93869">
        <ele>758</ele>
        <time>2018-05-24T12:20:37Z</time>
      </trkpt>
      <trkpt lat="45.17593" lon="3.93882">
        <ele>759</ele>
        <time>2018-05-24T12:20:47Z</time>
      </trkpt>
      <trkpt lat="45.17587" lon="3.939">
        <ele>760</ele>
        <time>2018-05-24T12:20:57Z</time>
      </trkpt>
      <trkpt lat="45.17587" lon="3.939">
        <ele>760</ele>
        <time>2018-05-24T12:20:58Z</time>
      </trkpt>
      <trkpt lat="45.1758" lon="3.93917">
        <ele>763</ele>
        <time>2018-05-24T12:21:08Z</time>
      </trkpt>
      <trkpt lat="45.1757" lon="3.93934">
        <ele>764</ele>
        <time>2018-05-24T12:21:16Z</time>
      </trkpt>
      <trkpt lat="45.17564" lon="3.93946">
        <ele>764</ele>
        <time>2018-05-24T12:21:26Z</time>
      </trkpt>
      <trkpt lat="45.17555" lon="3.93958">
        <ele>764</ele>
        <time>2018-05-24T12:21:36Z</time>
      </trkpt>
      <trkpt lat="45.17541" lon="3.93978">
        <ele>764</ele>
        <time>2018-05-24T12:21:47Z</time>
      </trkpt>
      <trkpt lat="45.17536" lon="3.93984">
        <ele>764</ele>
        <time>2018-05-24T12:21:53Z</time>
      </trkpt>
      <trkpt lat="45.1752" lon="3.94004">
        <ele>764</ele>
        <time>2018-05-24T12:22:05Z</time>
      </trkpt>
      <trkpt lat="45.17513" lon="3.94016">
        <ele>764</ele>
        <time>2018-05-24T12:22:14Z</time>
      </trkpt>
      <trkpt lat="45.17499" lon="3.94032">
        <ele>764</ele>
        <time>2018-05-24T12:22:26Z</time>
      </trkpt>
      <trkpt lat="45.17481" lon="3.94067">
        <ele>764</ele>
        <time>2018-05-24T12:22:46Z</time>
      </trkpt>
      <trkpt lat="45.17469" lon="3.94093">
        <ele>765</ele>
        <time>2018-05-24T12:23:00Z</time>
      </trkpt>
      <trkpt lat="45.17455" lon="3.94117">
        <ele>765</ele>
        <time>2018-05-24T12:23:17Z</time>
      </trkpt>
      <trkpt lat="45.17442" lon="3.94149">
        <ele>765</ele>
        <time>2018-05-24T12:23:34Z</time>
      </trkpt>
      <trkpt lat="45.17431" lon="3.94172">
        <ele>766</ele>
        <time>2018-05-24T12:23:51Z</time>
      </trkpt>
      <trkpt lat="45.17422" lon="3.94199">
        <ele>765</ele>
        <time>2018-05-24T12:24:06Z</time>
      </trkpt>
      <trkpt lat="45.17423" lon="3.942">
        <ele>765</ele>
        <time>2018-05-24T12:24:07Z</time>
      </trkpt>
      <trkpt lat="45.17425" lon="3.94229">
        <ele>766</ele>
        <time>2018-05-24T12:24:22Z</time>
      </trkpt>
      <trkpt lat="45.17436" lon="3.94256">
        <ele>767</ele>
        <time>2018-05-24T12:24:36Z</time>
      </trkpt>
      <trkpt lat="45.17447" lon="3.94285">
        <ele>766</ele>
        <time>2018-05-24T12:24:52Z</time>
      </trkpt>
      <trkpt lat="45.17449" lon="3.94292">
        <ele>767</ele>
        <time>2018-05-24T12:24:57Z</time>
      </trkpt>
      <trkpt lat="45.17459" lon="3.94313">
        <ele>767</ele>
        <time>2018-05-24T12:25:14Z</time>
      </trkpt>
      <trkpt lat="45.17461" lon="3.94316">
        <ele>767</ele>
        <time>2018-05-24T12:25:19Z</time>
      </trkpt>
      <trkpt lat="45.17466" lon="3.9432">
        <ele>766</ele>
        <time>2018-05-24T12:25:23Z</time>
      </trkpt>
      <trkpt lat="45.17487" lon="3.94346">
        <ele>769</ele>
        <time>2018-05-24T12:25:41Z</time>
      </trkpt>
      <trkpt lat="45.17509" lon="3.94365">
        <ele>766</ele>
        <time>2018-05-24T12:25:58Z</time>
      </trkpt>
      <trkpt lat="45.17528" lon="3.94387">
        <ele>767</ele>
        <time>2018-05-24T12:26:15Z</time>
      </trkpt>
      <trkpt lat="45.17543" lon="3.94407">
        <ele>767</ele>
        <time>2018-05-24T12:26:30Z</time>
      </trkpt>
      <trkpt lat="45.17551" lon="3.94417">
        <ele>773</ele>
        <time>2018-05-24T12:26:38Z</time>
      </trkpt>
      <trkpt lat="45.17559" lon="3.9443">
        <ele>773</ele>
        <time>2018-05-24T12:26:47Z</time>
      </trkpt>
      <trkpt lat="45.17568" lon="3.94445">
        <ele>774</ele>
        <time>2018-05-24T12:26:56Z</time>
      </trkpt>
      <trkpt lat="45.17575" lon="3.94474">
        <ele>776</ele>
        <time>2018-05-24T12:27:13Z</time>
      </trkpt>
      <trkpt lat="45.17581" lon="3.94502">
        <ele>779</ele>
        <time>2018-05-24T12:27:28Z</time>
      </trkpt>
      <trkpt lat="45.17586" lon="3.94524">
        <ele>778</ele>
        <time>2018-05-24T12:27:42Z</time>
      </trkpt>
      <trkpt lat="45.1759" lon="3.94541">
        <ele>779</ele>
        <time>2018-05-24T12:27:53Z</time>
      </trkpt>
      <trkpt lat="45.17591" lon="3.94553">
        <ele>781</ele>
        <time>2018-05-24T12:28:00Z</time>
      </trkpt>
      <trkpt lat="45.17592" lon="3.94557">
        <ele>781</ele>
        <time>2018-05-24T12:28:02Z</time>
      </trkpt>
      <trkpt lat="45.17587" lon="3.94583">
        <ele>788</ele>
        <time>2018-05-24T12:28:16Z</time>
      </trkpt>
      <trkpt lat="45.17582" lon="3.94592">
        <ele>792</ele>
        <time>2018-05-24T12:28:25Z</time>
      </trkpt>
      <trkpt lat="45.17579" lon="3.94596">
        <ele>792</ele>
        <time>2018-05-24T12:28:27Z</time>
      </trkpt>
      <trkpt lat="45.17576" lon="3.94598">
        <ele>793</ele>
        <time>2018-05-24T12:28:30Z</time>
      </trkpt>
      <trkpt lat="45.17562" lon="3.946">
        <ele>794</ele>
        <time>2018-05-24T12:28:41Z</time>
      </trkpt>
      <trkpt lat="45.17544" lon="3.94605">
        <ele>795</ele>
        <time>2018-05-24T12:28:59Z</time>
      </trkpt>
      <trkpt lat="45.17541" lon="3.94609">
        <ele>795</ele>
        <time>2018-05-24T12:29:02Z</time>
      </trkpt>
      <trkpt lat="45.17538" lon="3.94612">
        <ele>795</ele>
        <time>2018-05-24T12:29:05Z</time>
      </trkpt>
      <trkpt lat="45.17539" lon="3.94618">
        <ele>795</ele>
        <time>2018-05-24T12:29:09Z</time>
      </trkpt>
      <trkpt lat="45.17551" lon="3.94633">
        <ele>796</ele>
        <time>2018-05-24T12:29:23Z</time>
      </trkpt>
      <trkpt lat="45.17567" lon="3.94648">
        <ele>797</ele>
        <time>2018-05-24T12:29:39Z</time>
      </trkpt>
      <trkpt lat="45.17572" lon="3.94654">
        <ele>797</ele>
        <time>2018-05-24T12:29:44Z</time>
      </trkpt>
      <trkpt lat="45.17576" lon="3.94666">
        <ele>797</ele>
        <time>2018-05-24T12:29:50Z</time>
      </trkpt>
      <trkpt lat="45.17582" lon="3.94674">
        <ele>800</ele>
        <time>2018-05-24T12:29:54Z</time>
      </trkpt>
      <trkpt lat="45.1759" lon="3.94684">
        <ele>798</ele>
        <time>2018-05-24T12:30:02Z</time>
      </trkpt>
      <trkpt lat="45.17603" lon="3.94699">
        <ele>798</ele>
        <time>2018-05-24T12:30:12Z</time>
      </trkpt>
      <trkpt lat="45.17607" lon="3.94702">
        <ele>798</ele>
        <time>2018-05-24T12:30:17Z</time>
      </trkpt>
      <trkpt lat="45.17614" lon="3.9471">
        <ele>798</ele>
        <time>2018-05-24T12:30:22Z</time>
      </trkpt>
      <trkpt lat="45.17625" lon="3.94716">
        <ele>798</ele>
        <time>2018-05-24T12:30:33Z</time>
      </trkpt>
      <trkpt lat="45.17639" lon="3.94734">
        <ele>798</ele>
        <time>2018-05-24T12:30:50Z</time>
      </trkpt>
      <trkpt lat="45.17661" lon="3.9476">
        <ele>801</ele>
        <time>2018-05-24T12:31:08Z</time>
      </trkpt>
      <trkpt lat="45.17667" lon="3.94777">
        <ele>797</ele>
        <time>2018-05-24T12:31:24Z</time>
      </trkpt>
      <trkpt lat="45.17675" lon="3.94792">
        <ele>798</ele>
        <time>2018-05-24T12:31:38Z</time>
      </trkpt>
      <trkpt lat="45.17689" lon="3.94816">
        <ele>799</ele>
        <time>2018-05-24T12:31:53Z</time>
      </trkpt>
      <trkpt lat="45.177" lon="3.94839">
        <ele>802</ele>
        <time>2018-05-24T12:32:07Z</time>
      </trkpt>
      <trkpt lat="45.17701" lon="3.94842">
        <ele>802</ele>
        <time>2018-05-24T12:32:09Z</time>
      </trkpt>
      <trkpt lat="45.17706" lon="3.9485">
        <ele>802</ele>
        <time>2018-05-24T12:32:14Z</time>
      </trkpt>
      <trkpt lat="45.17707" lon="3.9486">
        <ele>802</ele>
        <time>2018-05-24T12:32:19Z</time>
      </trkpt>
      <trkpt lat="45.17707" lon="3.94867">
        <ele>802</ele>
        <time>2018-05-24T12:32:22Z</time>
      </trkpt>
      <trkpt lat="45.17709" lon="3.94893">
        <ele>803</ele>
        <time>2018-05-24T12:32:38Z</time>
      </trkpt>
      <trkpt lat="45.17712" lon="3.94894">
        <ele>803</ele>
        <time>2018-05-24T12:33:02Z</time>
      </trkpt>
      <trkpt lat="45.17716" lon="3.94899">
        <ele>802</ele>
        <time>2018-05-24T12:33:08Z</time>
      </trkpt>
      <trkpt lat="45.1774" lon="3.94913">
        <ele>800</ele>
        <time>2018-05-24T12:33:25Z</time>
      </trkpt>
      <trkpt lat="45.17752" lon="3.94922">
        <ele>798</ele>
        <time>2018-05-24T12:33:34Z</time>
      </trkpt>
      <trkpt lat="45.17755" lon="3.94923">
        <ele>798</ele>
        <time>2018-05-24T12:33:37Z</time>
      </trkpt>
      <trkpt lat="45.17767" lon="3.94941">
        <ele>798</ele>
        <time>2018-05-24T12:33:51Z</time>
      </trkpt>
      <trkpt lat="45.17773" lon="3.94948">
        <ele>799</ele>
        <time>2018-05-24T12:33:57Z</time>
      </trkpt>
      <trkpt lat="45.17776" lon="3.94952">
        <ele>799</ele>
        <time>2018-05-24T12:34:00Z</time>
      </trkpt>
      <trkpt lat="45.1778" lon="3.94993">
        <ele>800</ele>
        <time>2018-05-24T12:34:20Z</time>
      </trkpt>
      <trkpt lat="45.17791" lon="3.95015">
        <ele>802</ele>
        <time>2018-05-24T12:34:34Z</time>
      </trkpt>
      <trkpt lat="45.17797" lon="3.95021">
        <ele>802</ele>
        <time>2018-05-24T12:34:39Z</time>
      </trkpt>
      <trkpt lat="45.17815" lon="3.95039">
        <ele>801</ele>
        <time>2018-05-24T12:34:55Z</time>
      </trkpt>
      <trkpt lat="45.17826" lon="3.95054">
        <ele>801</ele>
        <time>2018-05-24T12:35:04Z</time>
      </trkpt>
      <trkpt lat="45.17842" lon="3.95068">
        <ele>792</ele>
        <time>2018-05-24T12:35:19Z</time>
      </trkpt>
      <trkpt lat="45.17847" lon="3.95073">
        <ele>792</ele>
        <time>2018-05-24T12:35:25Z</time>
      </trkpt>
      <trkpt lat="45.17848" lon="3.95076">
        <ele>792</ele>
        <time>2018-05-24T12:35:27Z</time>
      </trkpt>
      <trkpt lat="45.17853" lon="3.95092">
        <ele>790</ele>
        <time>2018-05-24T12:35:39Z</time>
      </trkpt>
      <trkpt lat="45.1786" lon="3.95111">
        <ele>787</ele>
        <time>2018-05-24T12:35:53Z</time>
      </trkpt>
      <trkpt lat="45.17863" lon="3.95124">
        <ele>786</ele>
        <time>2018-05-24T12:36:01Z</time>
      </trkpt>
      <trkpt lat="45.17864" lon="3.95131">
        <ele>785</ele>
        <time>2018-05-24T12:36:05Z</time>
      </trkpt>
      <trkpt lat="45.1786" lon="3.9514">
        <ele>786</ele>
        <time>2018-05-24T12:36:09Z</time>
      </trkpt>
      <trkpt lat="45.17849" lon="3.95165">
        <ele>788</ele>
        <time>2018-05-24T12:36:23Z</time>
      </trkpt>
      <trkpt lat="45.17845" lon="3.9517">
        <ele>787</ele>
        <time>2018-05-24T12:36:28Z</time>
      </trkpt>
      <trkpt lat="45.17843" lon="3.95181">
        <ele>785</ele>
        <time>2018-05-24T12:36:35Z</time>
      </trkpt>
      <trkpt lat="45.17841" lon="3.95184">
        <ele>785</ele>
        <time>2018-05-24T12:36:39Z</time>
      </trkpt>
      <trkpt lat="45.1784" lon="3.95186">
        <ele>785</ele>
        <time>2018-05-24T12:36:41Z</time>
      </trkpt>
      <trkpt lat="45.17831" lon="3.95199">
        <ele>795</ele>
        <time>2018-05-24T12:36:52Z</time>
      </trkpt>
      <trkpt lat="45.17828" lon="3.95203">
        <ele>795</ele>
        <time>2018-05-24T12:36:55Z</time>
      </trkpt>
      <trkpt lat="45.17817" lon="3.95222">
        <ele>794</ele>
        <time>2018-05-24T12:37:05Z</time>
      </trkpt>
      <trkpt lat="45.17804" lon="3.95239">
        <ele>794</ele>
        <time>2018-05-24T12:37:23Z</time>
      </trkpt>
      <trkpt lat="45.17797" lon="3.95258">
        <ele>792</ele>
        <time>2018-05-24T12:37:39Z</time>
      </trkpt>
      <trkpt lat="45.17796" lon="3.95306">
        <ele>792</ele>
        <time>2018-05-24T12:37:58Z</time>
      </trkpt>
      <trkpt lat="45.17794" lon="3.95313">
        <ele>792</ele>
        <time>2018-05-24T12:38:01Z</time>
      </trkpt>
      <trkpt lat="45.17791" lon="3.95337">
        <ele>791</ele>
        <time>2018-05-24T12:38:19Z</time>
      </trkpt>
      <trkpt lat="45.17808" lon="3.9536">
        <ele>789</ele>
        <time>2018-05-24T12:38:38Z</time>
      </trkpt>
      <trkpt lat="45.17814" lon="3.95362">
        <ele>788</ele>
        <time>2018-05-24T12:38:44Z</time>
      </trkpt>
      <trkpt lat="45.17828" lon="3.95353">
        <ele>787</ele>
        <time>2018-05-24T12:38:55Z</time>
      </trkpt>
      <trkpt lat="45.17834" lon="3.95333">
        <ele>783</ele>
        <time>2018-05-24T12:39:11Z</time>
      </trkpt>
      <trkpt lat="45.17859" lon="3.95324">
        <ele>784</ele>
        <time>2018-05-24T12:39:29Z</time>
      </trkpt>
      <trkpt lat="45.17874" lon="3.95325">
        <ele>785</ele>
        <time>2018-05-24T12:39:42Z</time>
      </trkpt>
      <trkpt lat="45.17893" lon="3.9532">
        <ele>787</ele>
        <time>2018-05-24T12:40:00Z</time>
      </trkpt>
      <trkpt lat="45.179" lon="3.95318">
        <ele>788</ele>
        <time>2018-05-24T12:40:20Z</time>
      </trkpt>
      <trkpt lat="45.17914" lon="3.95317">
        <ele>789</ele>
        <time>2018-05-24T12:40:36Z</time>
      </trkpt>
      <trkpt lat="45.17937" lon="3.95308">
        <ele>793</ele>
        <time>2018-05-24T12:40:57Z</time>
      </trkpt>
      <trkpt lat="45.17942" lon="3.95302">
        <ele>793</ele>
        <time>2018-05-24T12:41:01Z</time>
      </trkpt>
      <trkpt lat="45.17963" lon="3.95291">
        <ele>793</ele>
        <time>2018-05-24T12:41:19Z</time>
      </trkpt>
      <trkpt lat="45.17992" lon="3.95266">
        <ele>792</ele>
        <time>2018-05-24T12:41:35Z</time>
      </trkpt>
      <trkpt lat="45.18015" lon="3.95248">
        <ele>788</ele>
        <time>2018-05-24T12:41:46Z</time>
      </trkpt>
      <trkpt lat="45.1803" lon="3.95239">
        <ele>787</ele>
        <time>2018-05-24T12:41:57Z</time>
      </trkpt>
      <trkpt lat="45.18039" lon="3.95232">
        <ele>786</ele>
        <time>2018-05-24T12:42:05Z</time>
      </trkpt>
      <trkpt lat="45.18049" lon="3.95223">
        <ele>786</ele>
        <time>2018-05-24T12:42:14Z</time>
      </trkpt>
      <trkpt lat="45.18077" lon="3.95222">
        <ele>788</ele>
        <time>2018-05-24T12:42:31Z</time>
      </trkpt>
      <trkpt lat="45.18104" lon="3.95224">
        <ele>793</ele>
        <time>2018-05-24T12:42:48Z</time>
      </trkpt>
      <trkpt lat="45.18132" lon="3.95229">
        <ele>794</ele>
        <time>2018-05-24T12:43:05Z</time>
      </trkpt>
      <trkpt lat="45.18154" lon="3.95229">
        <ele>795</ele>
        <time>2018-05-24T12:43:18Z</time>
      </trkpt>
      <trkpt lat="45.18177" lon="3.95244">
        <ele>798</ele>
        <time>2018-05-24T12:43:37Z</time>
      </trkpt>
      <trkpt lat="45.18186" lon="3.95257">
        <ele>802</ele>
        <time>2018-05-24T12:43:51Z</time>
      </trkpt>
      <trkpt lat="45.18186" lon="3.95259">
        <ele>802</ele>
        <time>2018-05-24T12:43:55Z</time>
      </trkpt>
      <trkpt lat="45.18181" lon="3.95266">
        <ele>802</ele>
        <time>2018-05-24T12:44:01Z</time>
      </trkpt>
      <trkpt lat="45.18169" lon="3.95279">
        <ele>804</ele>
        <time>2018-05-24T12:44:12Z</time>
      </trkpt>
      <trkpt lat="45.18162" lon="3.95288">
        <ele>806</ele>
        <time>2018-05-24T12:44:20Z</time>
      </trkpt>
      <trkpt lat="45.18158" lon="3.95298">
        <ele>807</ele>
        <time>2018-05-24T12:44:27Z</time>
      </trkpt>
      <trkpt lat="45.18156" lon="3.95302">
        <ele>807</ele>
        <time>2018-05-24T12:44:30Z</time>
      </trkpt>
      <trkpt lat="45.18155" lon="3.95304">
        <ele>807</ele>
        <time>2018-05-24T12:44:32Z</time>
      </trkpt>
      <trkpt lat="45.18144" lon="3.95325">
        <ele>809</ele>
        <time>2018-05-24T12:44:50Z</time>
      </trkpt>
      <trkpt lat="45.18142" lon="3.95329">
        <ele>809</ele>
        <time>2018-05-24T12:44:58Z</time>
      </trkpt>
      <trkpt lat="45.1815" lon="3.95332">
        <ele>810</ele>
        <time>2018-05-24T12:45:04Z</time>
      </trkpt>
      <trkpt lat="45.18154" lon="3.95341">
        <ele>815</ele>
        <time>2018-05-24T12:45:10Z</time>
      </trkpt>
      <trkpt lat="45.18172" lon="3.95351">
        <ele>814</ele>
        <time>2018-05-24T12:45:25Z</time>
      </trkpt>
      <trkpt lat="45.18173" lon="3.95351">
        <ele>814</ele>
        <time>2018-05-24T12:45:26Z</time>
      </trkpt>
      <trkpt lat="45.18176" lon="3.95352">
        <ele>814</ele>
        <time>2018-05-24T12:45:28Z</time>
      </trkpt>
      <trkpt lat="45.18194" lon="3.95365">
        <ele>814</ele>
        <time>2018-05-24T12:45:43Z</time>
      </trkpt>
      <trkpt lat="45.18198" lon="3.9537">
        <ele>814</ele>
        <time>2018-05-24T12:45:47Z</time>
      </trkpt>
      <trkpt lat="45.18207" lon="3.9538">
        <ele>815</ele>
        <time>2018-05-24T12:45:57Z</time>
      </trkpt>
      <trkpt lat="45.18225" lon="3.95403">
        <ele>815</ele>
        <time>2018-05-24T12:46:14Z</time>
      </trkpt>
      <trkpt lat="45.18231" lon="3.95409">
        <ele>816</ele>
        <time>2018-05-24T12:46:20Z</time>
      </trkpt>
      <trkpt lat="45.18245" lon="3.95422">
        <ele>818</ele>
        <time>2018-05-24T12:46:31Z</time>
      </trkpt>
      <trkpt lat="45.18245" lon="3.95423">
        <ele>818</ele>
        <time>2018-05-24T12:46:33Z</time>
      </trkpt>
      <trkpt lat="45.18251" lon="3.95428">
        <ele>817</ele>
        <time>2018-05-24T12:46:37Z</time>
      </trkpt>
      <trkpt lat="45.18257" lon="3.95433">
        <ele>816</ele>
        <time>2018-05-24T12:46:43Z</time>
      </trkpt>
      <trkpt lat="45.1826" lon="3.95438">
        <ele>816</ele>
        <time>2018-05-24T12:46:46Z</time>
      </trkpt>
      <trkpt lat="45.18264" lon="3.95456">
        <ele>817</ele>
        <time>2018-05-24T12:46:57Z</time>
      </trkpt>
      <trkpt lat="45.18265" lon="3.95467">
        <ele>818</ele>
        <time>2018-05-24T12:47:05Z</time>
      </trkpt>
      <trkpt lat="45.18271" lon="3.95482">
        <ele>818</ele>
        <time>2018-05-24T12:47:15Z</time>
      </trkpt>
      <trkpt lat="45.18284" lon="3.95499">
        <ele>818</ele>
        <time>2018-05-24T12:47:27Z</time>
      </trkpt>
      <trkpt lat="45.18299" lon="3.95512">
        <ele>822</ele>
        <time>2018-05-24T12:47:37Z</time>
      </trkpt>
      <trkpt lat="45.18301" lon="3.95514">
        <ele>822</ele>
        <time>2018-05-24T12:47:39Z</time>
      </trkpt>
      <trkpt lat="45.18316" lon="3.95528">
        <ele>822</ele>
        <time>2018-05-24T12:47:52Z</time>
      </trkpt>
      <trkpt lat="45.18336" lon="3.95548">
        <ele>817</ele>
        <time>2018-05-24T12:48:09Z</time>
      </trkpt>
      <trkpt lat="45.18355" lon="3.95565">
        <ele>817</ele>
        <time>2018-05-24T12:48:23Z</time>
      </trkpt>
      <trkpt lat="45.18372" lon="3.95582">
        <ele>816</ele>
        <time>2018-05-24T12:48:39Z</time>
      </trkpt>
      <trkpt lat="45.18388" lon="3.95607">
        <ele>821</ele>
        <time>2018-05-24T12:48:56Z</time>
      </trkpt>
      <trkpt lat="45.18402" lon="3.95622">
        <ele>821</ele>
        <time>2018-05-24T12:49:11Z</time>
      </trkpt>
      <trkpt lat="45.18416" lon="3.95635">
        <ele>821</ele>
        <time>2018-05-24T12:49:26Z</time>
      </trkpt>
      <trkpt lat="45.18426" lon="3.95645">
        <ele>817</ele>
        <time>2018-05-24T12:49:45Z</time>
      </trkpt>
      <trkpt lat="45.18426" lon="3.9567">
        <ele>822</ele>
        <time>2018-05-24T12:50:02Z</time>
      </trkpt>
      <trkpt lat="45.18425" lon="3.95673">
        <ele>822</ele>
        <time>2018-05-24T12:50:04Z</time>
      </trkpt>
      <trkpt lat="45.18412" lon="3.95706">
        <ele>828</ele>
        <time>2018-05-24T12:50:22Z</time>
      </trkpt>
      <trkpt lat="45.18407" lon="3.95731">
        <ele>829</ele>
        <time>2018-05-24T12:50:37Z</time>
      </trkpt>
      <trkpt lat="45.18407" lon="3.95734">
        <ele>829</ele>
        <time>2018-05-24T12:50:39Z</time>
      </trkpt>
      <trkpt lat="45.18396" lon="3.95759">
        <ele>834</ele>
        <time>2018-05-24T12:50:57Z</time>
      </trkpt>
      <trkpt lat="45.18384" lon="3.95784">
        <ele>837</ele>
        <time>2018-05-24T12:51:15Z</time>
      </trkpt>
      <trkpt lat="45.18375" lon="3.95797">
        <ele>839</ele>
        <time>2018-05-24T12:51:28Z</time>
      </trkpt>
      <trkpt lat="45.18355" lon="3.95791">
        <ele>839</ele>
        <time>2018-05-24T12:51:44Z</time>
      </trkpt>
      <trkpt lat="45.18337" lon="3.95787">
        <ele>840</ele>
        <time>2018-05-24T12:51:58Z</time>
      </trkpt>
      <trkpt lat="45.18318" lon="3.95791">
        <ele>848</ele>
        <time>2018-05-24T12:52:15Z</time>
      </trkpt>
      <trkpt lat="45.18307" lon="3.95803">
        <ele>849</ele>
        <time>2018-05-24T12:52:28Z</time>
      </trkpt>
      <trkpt lat="45.18293" lon="3.9581">
        <ele>850</ele>
        <time>2018-05-24T12:52:43Z</time>
      </trkpt>
      <trkpt lat="45.18291" lon="3.9582">
        <ele>850</ele>
        <time>2018-05-24T12:52:56Z</time>
      </trkpt>
      <trkpt lat="45.18288" lon="3.9582">
        <ele>851</ele>
        <time>2018-05-24T12:53:16Z</time>
      </trkpt>
      <trkpt lat="45.18286" lon="3.9582">
        <ele>851</ele>
        <time>2018-05-24T12:53:39Z</time>
      </trkpt>
      <trkpt lat="45.18285" lon="3.95822">
        <ele>851</ele>
        <time>2018-05-24T12:54:00Z</time>
      </trkpt>
      <trkpt lat="45.18284" lon="3.95822">
        <ele>851</ele>
        <time>2018-05-24T12:54:22Z</time>
      </trkpt>
      <trkpt lat="45.18283" lon="3.95821">
        <ele>851</ele>
        <time>2018-05-24T12:54:45Z</time>
      </trkpt>
      <trkpt lat="45.1828" lon="3.95821">
        <ele>852</ele>
        <time>2018-05-24T12:55:02Z</time>
      </trkpt>
      <trkpt lat="45.18269" lon="3.95819">
        <ele>853</ele>
        <time>2018-05-24T12:55:11Z</time>
      </trkpt>
      <trkpt lat="45.18247" lon="3.9582">
        <ele>858</ele>
        <time>2018-05-24T12:55:32Z</time>
      </trkpt>
      <trkpt lat="45.18234" lon="3.95824">
        <ele>858</ele>
        <time>2018-05-24T12:55:49Z</time>
      </trkpt>
      <trkpt lat="45.18232" lon="3.95824">
        <ele>858</ele>
        <time>2018-05-24T12:56:01Z</time>
      </trkpt>
      <trkpt lat="45.18235" lon="3.95838">
        <ele>862</ele>
        <time>2018-05-24T12:56:12Z</time>
      </trkpt>
      <trkpt lat="45.18235" lon="3.95849">
        <ele>863</ele>
        <time>2018-05-24T12:56:18Z</time>
      </trkpt>
      <trkpt lat="45.18238" lon="3.95856">
        <ele>864</ele>
        <time>2018-05-24T12:56:23Z</time>
      </trkpt>
      <trkpt lat="45.18241" lon="3.95886">
        <ele>865</ele>
        <time>2018-05-24T12:56:39Z</time>
      </trkpt>
      <trkpt lat="45.18238" lon="3.95911">
        <ele>865</ele>
        <time>2018-05-24T12:56:55Z</time>
      </trkpt>
      <trkpt lat="45.18241" lon="3.9594">
        <ele>870</ele>
        <time>2018-05-24T12:57:12Z</time>
      </trkpt>
      <trkpt lat="45.18238" lon="3.95965">
        <ele>872</ele>
        <time>2018-05-24T12:57:26Z</time>
      </trkpt>
      <trkpt lat="45.18241" lon="3.95992">
        <ele>871</ele>
        <time>2018-05-24T12:57:40Z</time>
      </trkpt>
      <trkpt lat="45.18242" lon="3.96022">
        <ele>874</ele>
        <time>2018-05-24T12:57:55Z</time>
      </trkpt>
      <trkpt lat="45.18243" lon="3.9604">
        <ele>874</ele>
        <time>2018-05-24T12:58:07Z</time>
      </trkpt>
      <trkpt lat="45.18238" lon="3.9607">
        <ele>872</ele>
        <time>2018-05-24T12:58:23Z</time>
      </trkpt>
      <trkpt lat="45.18233" lon="3.9609">
        <ele>871</ele>
        <time>2018-05-24T12:58:35Z</time>
      </trkpt>
      <trkpt lat="45.18227" lon="3.96108">
        <ele>873</ele>
        <time>2018-05-24T12:58:47Z</time>
      </trkpt>
      <trkpt lat="45.18219" lon="3.96131">
        <ele>874</ele>
        <time>2018-05-24T12:59:03Z</time>
      </trkpt>
      <trkpt lat="45.18217" lon="3.9614">
        <ele>874</ele>
        <time>2018-05-24T12:59:09Z</time>
      </trkpt>
      <trkpt lat="45.18209" lon="3.96155">
        <ele>876</ele>
        <time>2018-05-24T12:59:23Z</time>
      </trkpt>
      <trkpt lat="45.18203" lon="3.96169">
        <ele>879</ele>
        <time>2018-05-24T12:59:36Z</time>
      </trkpt>
      <trkpt lat="45.18199" lon="3.96195">
        <ele>880</ele>
        <time>2018-05-24T12:59:54Z</time>
      </trkpt>
      <trkpt lat="45.18196" lon="3.96211">
        <ele>881</ele>
        <time>2018-05-24T13:00:08Z</time>
      </trkpt>
      <trkpt lat="45.18189" lon="3.96241">
        <ele>884</ele>
        <time>2018-05-24T13:00:24Z</time>
      </trkpt>
      <trkpt lat="45.18183" lon="3.96273">
        <ele>889</ele>
        <time>2018-05-24T13:00:42Z</time>
      </trkpt>
      <trkpt lat="45.18182" lon="3.963">
        <ele>890</ele>
        <time>2018-05-24T13:00:57Z</time>
      </trkpt>
      <trkpt lat="45.18178" lon="3.96314">
        <ele>892</ele>
        <time>2018-05-24T13:01:06Z</time>
      </trkpt>
      <trkpt lat="45.18152" lon="3.96326">
        <ele>901</ele>
        <time>2018-05-24T13:01:17Z</time>
      </trkpt>
      <trkpt lat="45.18151" lon="3.96326">
        <ele>901</ele>
        <time>2018-05-24T13:01:18Z</time>
      </trkpt>
      <trkpt lat="45.18151" lon="3.96334">
        <ele>903</ele>
        <time>2018-05-24T13:01:27Z</time>
      </trkpt>
      <trkpt lat="45.18139" lon="3.96346">
        <ele>906</ele>
        <time>2018-05-24T13:01:36Z</time>
      </trkpt>
      <trkpt lat="45.18137" lon="3.96349">
        <ele>907</ele>
        <time>2018-05-24T13:01:39Z</time>
      </trkpt>
      <trkpt lat="45.18133" lon="3.96362">
        <ele>908</ele>
        <time>2018-05-24T13:01:56Z</time>
      </trkpt>
      <trkpt lat="45.18132" lon="3.9637">
        <ele>908</ele>
        <time>2018-05-24T13:02:04Z</time>
      </trkpt>
      <trkpt lat="45.18117" lon="3.96391">
        <ele>910</ele>
        <time>2018-05-24T13:02:23Z</time>
      </trkpt>
      <trkpt lat="45.18112" lon="3.96404">
        <ele>911</ele>
        <time>2018-05-24T13:02:42Z</time>
      </trkpt>
      <trkpt lat="45.181" lon="3.96422">
        <ele>918</ele>
        <time>2018-05-24T13:03:00Z</time>
      </trkpt>
      <trkpt lat="45.18086" lon="3.96429">
        <ele>918</ele>
        <time>2018-05-24T13:03:19Z</time>
      </trkpt>
      <trkpt lat="45.18083" lon="3.9643">
        <ele>918</ele>
        <time>2018-05-24T13:03:26Z</time>
      </trkpt>
      <trkpt lat="45.18078" lon="3.9644">
        <ele>919</ele>
        <time>2018-05-24T13:03:41Z</time>
      </trkpt>
      <trkpt lat="45.18079" lon="3.96443">
        <ele>919</ele>
        <time>2018-05-24T13:04:04Z</time>
      </trkpt>
      <trkpt lat="45.18077" lon="3.96447">
        <ele>920</ele>
        <time>2018-05-24T13:04:16Z</time>
      </trkpt>
      <trkpt lat="45.18071" lon="3.96463">
        <ele>921</ele>
        <time>2018-05-24T13:04:34Z</time>
      </trkpt>
      <trkpt lat="45.18068" lon="3.96466">
        <ele>921</ele>
        <time>2018-05-24T13:04:52Z</time>
      </trkpt>
      <trkpt lat="45.18066" lon="3.96457">
        <ele>920</ele>
        <time>2018-05-24T13:05:11Z</time>
      </trkpt>
      <trkpt lat="45.18068" lon="3.96462">
        <ele>921</ele>
        <time>2018-05-24T13:05:28Z</time>
      </trkpt>
      <trkpt lat="45.18076" lon="3.96487">
        <ele>923</ele>
        <time>2018-05-24T13:05:44Z</time>
      </trkpt>
      <trkpt lat="45.18076" lon="3.96489">
        <ele>923</ele>
        <time>2018-05-24T13:05:45Z</time>
      </trkpt>
      <trkpt lat="45.18084" lon="3.9651">
        <ele>928</ele>
        <time>2018-05-24T13:05:55Z</time>
      </trkpt>
      <trkpt lat="45.18093" lon="3.96529">
        <ele>932</ele>
        <time>2018-05-24T13:06:10Z</time>
      </trkpt>
      <trkpt lat="45.18095" lon="3.96541">
        <ele>933</ele>
        <time>2018-05-24T13:06:28Z</time>
      </trkpt>
      <trkpt lat="45.18103" lon="3.9654">
        <ele>934</ele>
        <time>2018-05-24T13:06:47Z</time>
      </trkpt>
      <trkpt lat="45.18118" lon="3.96549">
        <ele>936</ele>
        <time>2018-05-24T13:07:09Z</time>
      </trkpt>
      <trkpt lat="45.18123" lon="3.96543">
        <ele>936</ele>
        <time>2018-05-24T13:07:35Z</time>
      </trkpt>
      <trkpt lat="45.18126" lon="3.96544">
        <ele>936</ele>
        <time>2018-05-24T13:07:57Z</time>
      </trkpt>
      <trkpt lat="45.18131" lon="3.96546">
        <ele>937</ele>
        <time>2018-05-24T13:08:17Z</time>
      </trkpt>
      <trkpt lat="45.18135" lon="3.96551">
        <ele>938</ele>
        <time>2018-05-24T13:08:35Z</time>
      </trkpt>
      <trkpt lat="45.18138" lon="3.96572">
        <ele>941</ele>
        <time>2018-05-24T13:08:58Z</time>
      </trkpt>
      <trkpt lat="45.18139" lon="3.9658">
        <ele>942</ele>
        <time>2018-05-24T13:09:14Z</time>
      </trkpt>
      <trkpt lat="45.18138" lon="3.96581">
        <ele>942</ele>
        <time>2018-05-24T13:09:20Z</time>
      </trkpt>
      <trkpt lat="45.18157" lon="3.96583">
        <ele>949</ele>
        <time>2018-05-24T13:09:42Z</time>
      </trkpt>
      <trkpt lat="45.18172" lon="3.96589">
        <ele>956</ele>
        <time>2018-05-24T13:09:58Z</time>
      </trkpt>
      <trkpt lat="45.18186" lon="3.96599">
        <ele>956</ele>
        <time>2018-05-24T13:10:16Z</time>
      </trkpt>
      <trkpt lat="45.18199" lon="3.96599">
        <ele>957</ele>
        <time>2018-05-24T13:10:22Z</time>
      </trkpt>
      <trkpt lat="45.18217" lon="3.96603">
        <ele>958</ele>
        <time>2018-05-24T13:10:37Z</time>
      </trkpt>
      <trkpt lat="45.18236" lon="3.96609">
        <ele>959</ele>
        <time>2018-05-24T13:10:51Z</time>
      </trkpt>
      <trkpt lat="45.18248" lon="3.96613">
        <ele>959</ele>
        <time>2018-05-24T13:11:05Z</time>
      </trkpt>
      <trkpt lat="45.18248" lon="3.96615">
        <ele>959</ele>
        <time>2018-05-24T13:11:24Z</time>
      </trkpt>
      <trkpt lat="45.18249" lon="3.96617">
        <ele>959</ele>
        <time>2018-05-24T13:11:42Z</time>
      </trkpt>
      <trkpt lat="45.18249" lon="3.96617">
        <ele>959</ele>
        <time>2018-05-24T13:12:06Z</time>
      </trkpt>
      <trkpt lat="45.18246" lon="3.96617">
        <ele>959</ele>
        <time>2018-05-24T13:12:43Z</time>
      </trkpt>
      <trkpt lat="45.18245" lon="3.96621">
        <ele>959</ele>
        <time>2018-05-24T13:13:09Z</time>
      </trkpt>
      <trkpt lat="45.18246" lon="3.96623">
        <ele>959</ele>
        <time>2018-05-24T13:13:25Z</time>
      </trkpt>
      <trkpt lat="45.18246" lon="3.96624">
        <ele>959</ele>
        <time>2018-05-24T13:13:33Z</time>
      </trkpt>
      <trkpt lat="45.18263" lon="3.96638">
        <ele>956</ele>
        <time>2018-05-24T13:13:50Z</time>
      </trkpt>
      <trkpt lat="45.18265" lon="3.96647">
        <ele>957</ele>
        <time>2018-05-24T13:14:08Z</time>
      </trkpt>
      <trkpt lat="45.18267" lon="3.96653">
        <ele>957</ele>
        <time>2018-05-24T13:14:29Z</time>
      </trkpt>
      <trkpt lat="45.18268" lon="3.96655">
        <ele>957</ele>
        <time>2018-05-24T13:14:41Z</time>
      </trkpt>
      <trkpt lat="45.18268" lon="3.96656">
        <ele>957</ele>
        <time>2018-05-24T13:15:02Z</time>
      </trkpt>
      <trkpt lat="45.18268" lon="3.96658">
        <ele>957</ele>
        <time>2018-05-24T13:15:24Z</time>
      </trkpt>
      <trkpt lat="45.18268" lon="3.9666">
        <ele>958</ele>
        <time>2018-05-24T13:15:52Z</time>
      </trkpt>
      <trkpt lat="45.18269" lon="3.9666">
        <ele>957</ele>
        <time>2018-05-24T13:16:16Z</time>
      </trkpt>
      <trkpt lat="45.18269" lon="3.9666">
        <ele>957</ele>
        <time>2018-05-24T13:16:22Z</time>
      </trkpt>
      <trkpt lat="45.18277" lon="3.96665">
        <ele>956</ele>
        <time>2018-05-24T13:16:38Z</time>
      </trkpt>
      <trkpt lat="45.18275" lon="3.96678">
        <ele>949</ele>
        <time>2018-05-24T13:16:56Z</time>
      </trkpt>
      <trkpt lat="45.18284" lon="3.96683">
        <ele>946</ele>
        <time>2018-05-24T13:17:13Z</time>
      </trkpt>
      <trkpt lat="45.18288" lon="3.96686">
        <ele>945</ele>
        <time>2018-05-24T13:17:27Z</time>
      </trkpt>
      <trkpt lat="45.18294" lon="3.96686">
        <ele>944</ele>
        <time>2018-05-24T13:17:37Z</time>
      </trkpt>
      <trkpt lat="45.18309" lon="3.9669">
        <ele>943</ele>
        <time>2018-05-24T13:17:53Z</time>
      </trkpt>
      <trkpt lat="45.18312" lon="3.96694">
        <ele>942</ele>
        <time>2018-05-24T13:18:13Z</time>
      </trkpt>
      <trkpt lat="45.18312" lon="3.96693">
        <ele>943</ele>
        <time>2018-05-24T13:18:43Z</time>
      </trkpt>
      <trkpt lat="45.18313" lon="3.96693">
        <ele>943</ele>
        <time>2018-05-24T13:19:09Z</time>
      </trkpt>
      <trkpt lat="45.18312" lon="3.96696">
        <ele>942</ele>
        <time>2018-05-24T13:19:30Z</time>
      </trkpt>
      <trkpt lat="45.18312" lon="3.96698">
        <ele>942</ele>
        <time>2018-05-24T13:19:53Z</time>
      </trkpt>
      <trkpt lat="45.18313" lon="3.96702">
        <ele>941</ele>
        <time>2018-05-24T13:20:16Z</time>
      </trkpt>
      <trkpt lat="45.18314" lon="3.96703">
        <ele>941</ele>
        <time>2018-05-24T13:20:34Z</time>
      </trkpt>
      <trkpt lat="45.18318" lon="3.96696">
        <ele>942</ele>
        <time>2018-05-24T13:20:48Z</time>
      </trkpt>
      <trkpt lat="45.18331" lon="3.96698">
        <ele>942</ele>
        <time>2018-05-24T13:21:06Z</time>
      </trkpt>
      <trkpt lat="45.1833" lon="3.96714">
        <ele>939</ele>
        <time>2018-05-24T13:21:25Z</time>
      </trkpt>
      <trkpt lat="45.18324" lon="3.96731">
        <ele>936</ele>
        <time>2018-05-24T13:21:49Z</time>
      </trkpt>
      <trkpt lat="45.18324" lon="3.9673">
        <ele>936</ele>
        <time>2018-05-24T13:22:14Z</time>
      </trkpt>
      <trkpt lat="45.18338" lon="3.96741">
        <ele>932</ele>
        <time>2018-05-24T13:22:33Z</time>
      </trkpt>
      <trkpt lat="45.18356" lon="3.96751">
        <ele>927</ele>
        <time>2018-05-24T13:22:50Z</time>
      </trkpt>
      <trkpt lat="45.1836" lon="3.96753">
        <ele>927</ele>
        <time>2018-05-24T13:23:16Z</time>
      </trkpt>
      <trkpt lat="45.1836" lon="3.96756">
        <ele>927</ele>
        <time>2018-05-24T13:23:39Z</time>
      </trkpt>
      <trkpt lat="45.1836" lon="3.96753">
        <ele>927</ele>
        <time>2018-05-24T13:24:02Z</time>
      </trkpt>
      <trkpt lat="45.18359" lon="3.96754">
        <ele>927</ele>
        <time>2018-05-24T13:24:18Z</time>
      </trkpt>
      <trkpt lat="45.18359" lon="3.96756">
        <ele>927</ele>
        <time>2018-05-24T13:24:40Z</time>
      </trkpt>
      <trkpt lat="45.1836" lon="3.9676">
        <ele>926</ele>
        <time>2018-05-24T13:24:57Z</time>
      </trkpt>
      <trkpt lat="45.18353" lon="3.96766">
        <ele>926</ele>
        <time>2018-05-24T13:25:14Z</time>
      </trkpt>
      <trkpt lat="45.18351" lon="3.9678">
        <ele>924</ele>
        <time>2018-05-24T13:25:30Z</time>
      </trkpt>
      <trkpt lat="45.18352" lon="3.96785">
        <ele>923</ele>
        <time>2018-05-24T13:25:43Z</time>
      </trkpt>
      <trkpt lat="45.18352" lon="3.96786">
        <ele>923</ele>
        <time>2018-05-24T13:25:58Z</time>
      </trkpt>
      <trkpt lat="45.18349" lon="3.96786">
        <ele>922</ele>
        <time>2018-05-24T13:26:18Z</time>
      </trkpt>
      <trkpt lat="45.18333" lon="3.96791">
        <ele>910</ele>
        <time>2018-05-24T13:26:36Z</time>
      </trkpt>
      <trkpt lat="45.1833" lon="3.96797">
        <ele>909</ele>
        <time>2018-05-24T13:26:50Z</time>
      </trkpt>
      <trkpt lat="45.18328" lon="3.96807">
        <ele>906</ele>
        <time>2018-05-24T13:27:07Z</time>
      </trkpt>
      <trkpt lat="45.18329" lon="3.96813">
        <ele>905</ele>
        <time>2018-05-24T13:27:24Z</time>
      </trkpt>
      <trkpt lat="45.18328" lon="3.96814">
        <ele>905</ele>
        <time>2018-05-24T13:27:46Z</time>
      </trkpt>
      <trkpt lat="45.18327" lon="3.96815">
        <ele>905</ele>
        <time>2018-05-24T13:28:12Z</time>
      </trkpt>
      <trkpt lat="45.18325" lon="3.96814">
        <ele>905</ele>
        <time>2018-05-24T13:28:34Z</time>
      </trkpt>
      <trkpt lat="45.18323" lon="3.96816">
        <ele>904</ele>
        <time>2018-05-24T13:28:46Z</time>
      </trkpt>
      <trkpt lat="45.18322" lon="3.96822">
        <ele>903</ele>
        <time>2018-05-24T13:29:00Z</time>
      </trkpt>
      <trkpt lat="45.18319" lon="3.96836">
        <ele>887</ele>
        <time>2018-05-24T13:29:17Z</time>
      </trkpt>
      <trkpt lat="45.18315" lon="3.96836">
        <ele>885</ele>
        <time>2018-05-24T13:29:21Z</time>
      </trkpt>
      <trkpt lat="45.18307" lon="3.96837">
        <ele>880</ele>
        <time>2018-05-24T13:29:27Z</time>
      </trkpt>
      <trkpt lat="45.18289" lon="3.96861">
        <ele>871</ele>
        <time>2018-05-24T13:29:42Z</time>
      </trkpt>
      <trkpt lat="45.1829" lon="3.9687">
        <ele>870</ele>
        <time>2018-05-24T13:30:05Z</time>
      </trkpt>
      <trkpt lat="45.18286" lon="3.96853">
        <ele>872</ele>
        <time>2018-05-24T13:30:29Z</time>
      </trkpt>
      <trkpt lat="45.18271" lon="3.96854">
        <ele>870</ele>
        <time>2018-05-24T13:30:46Z</time>
      </trkpt>
      <trkpt lat="45.18254" lon="3.96854">
        <ele>869</ele>
        <time>2018-05-24T13:31:04Z</time>
      </trkpt>
      <trkpt lat="45.1823" lon="3.9686">
        <ele>857</ele>
        <time>2018-05-24T13:31:20Z</time>
      </trkpt>
      <trkpt lat="45.1822" lon="3.96854">
        <ele>857</ele>
        <time>2018-05-24T13:31:31Z</time>
      </trkpt>
      <trkpt lat="45.18201" lon="3.96848">
        <ele>856</ele>
        <time>2018-05-24T13:31:46Z</time>
      </trkpt>
      <trkpt lat="45.18186" lon="3.96838">
        <ele>857</ele>
        <time>2018-05-24T13:32:02Z</time>
      </trkpt>
      <trkpt lat="45.18164" lon="3.96833">
        <ele>861</ele>
        <time>2018-05-24T13:32:18Z</time>
      </trkpt>
      <trkpt lat="45.18154" lon="3.96841">
        <ele>856</ele>
        <time>2018-05-24T13:32:26Z</time>
      </trkpt>
      <trkpt lat="45.18135" lon="3.96855">
        <ele>854</ele>
        <time>2018-05-24T13:32:43Z</time>
      </trkpt>
      <trkpt lat="45.18126" lon="3.96857">
        <ele>854</ele>
        <time>2018-05-24T13:32:49Z</time>
      </trkpt>
      <trkpt lat="45.18101" lon="3.96858">
        <ele>854</ele>
        <time>2018-05-24T13:33:07Z</time>
      </trkpt>
      <trkpt lat="45.18079" lon="3.96848">
        <ele>854</ele>
        <time>2018-05-24T13:33:23Z</time>
      </trkpt>
      <trkpt lat="45.18055" lon="3.96861">
        <ele>851</ele>
        <time>2018-05-24T13:33:43Z</time>
      </trkpt>
      <trkpt lat="45.18047" lon="3.96865">
        <ele>850</ele>
        <time>2018-05-24T13:34:02Z</time>
      </trkpt>
      <trkpt lat="45.18046" lon="3.96866">
        <ele>850</ele>
        <time>2018-05-24T13:34:22Z</time>
      </trkpt>
      <trkpt lat="45.1804" lon="3.96863">
        <ele>850</ele>
        <time>2018-05-24T13:34:40Z</time>
      </trkpt>
      <trkpt lat="45.18012" lon="3.96856">
        <ele>850</ele>
        <time>2018-05-24T13:35:00Z</time>
      </trkpt>
      <trkpt lat="45.17982" lon="3.96845">
        <ele>846</ele>
        <time>2018-05-24T13:35:18Z</time>
      </trkpt>
      <trkpt lat="45.17956" lon="3.96825">
        <ele>852</ele>
        <time>2018-05-24T13:35:36Z</time>
      </trkpt>
      <trkpt lat="45.17934" lon="3.96804">
        <ele>851</ele>
        <time>2018-05-24T13:35:54Z</time>
      </trkpt>
      <trkpt lat="45.17932" lon="3.96802">
        <ele>852</ele>
        <time>2018-05-24T13:35:56Z</time>
      </trkpt>
      <trkpt lat="45.17919" lon="3.96783">
        <ele>853</ele>
        <time>2018-05-24T13:36:13Z</time>
      </trkpt>
      <trkpt lat="45.17898" lon="3.96765">
        <ele>851</ele>
        <time>2018-05-24T13:36:32Z</time>
      </trkpt>
      <trkpt lat="45.17896" lon="3.96765">
        <ele>850</ele>
        <time>2018-05-24T13:36:33Z</time>
      </trkpt>
      <trkpt lat="45.1788" lon="3.96768">
        <ele>850</ele>
        <time>2018-05-24T13:36:46Z</time>
      </trkpt>
      <trkpt lat="45.17867" lon="3.96774">
        <ele>850</ele>
        <time>2018-05-24T13:37:00Z</time>
      </trkpt>
      <trkpt lat="45.17861" lon="3.96775">
        <ele>850</ele>
        <time>2018-05-24T13:37:05Z</time>
      </trkpt>
      <trkpt lat="45.17848" lon="3.96778">
        <ele>850</ele>
        <time>2018-05-24T13:37:21Z</time>
      </trkpt>
      <trkpt lat="45.17843" lon="3.96783">
        <ele>850</ele>
        <time>2018-05-24T13:37:27Z</time>
      </trkpt>
      <trkpt lat="45.17828" lon="3.96803">
        <ele>846</ele>
        <time>2018-05-24T13:37:44Z</time>
      </trkpt>
      <trkpt lat="45.17822" lon="3.96807">
        <ele>846</ele>
        <time>2018-05-24T13:37:49Z</time>
      </trkpt>
      <trkpt lat="45.17812" lon="3.96817">
        <ele>845</ele>
        <time>2018-05-24T13:38:06Z</time>
      </trkpt>
      <trkpt lat="45.17806" lon="3.96825">
        <ele>845</ele>
        <time>2018-05-24T13:38:11Z</time>
      </trkpt>
      <trkpt lat="45.17782" lon="3.96844">
        <ele>839</ele>
        <time>2018-05-24T13:38:30Z</time>
      </trkpt>
      <trkpt lat="45.1777" lon="3.96848">
        <ele>839</ele>
        <time>2018-05-24T13:38:36Z</time>
      </trkpt>
      <trkpt lat="45.17768" lon="3.96858">
        <ele>838</ele>
        <time>2018-05-24T13:38:42Z</time>
      </trkpt>
      <trkpt lat="45.17772" lon="3.96881">
        <ele>837</ele>
        <time>2018-05-24T13:38:58Z</time>
      </trkpt>
      <trkpt lat="45.17773" lon="3.96907">
        <ele>836</ele>
        <time>2018-05-24T13:39:13Z</time>
      </trkpt>
      <trkpt lat="45.17773" lon="3.9691">
        <ele>836</ele>
        <time>2018-05-24T13:39:16Z</time>
      </trkpt>
      <trkpt lat="45.17773" lon="3.96935">
        <ele>833</ele>
        <time>2018-05-24T13:39:27Z</time>
      </trkpt>
      <trkpt lat="45.17768" lon="3.96969">
        <ele>832</ele>
        <time>2018-05-24T13:39:44Z</time>
      </trkpt>
      <trkpt lat="45.17759" lon="3.96993">
        <ele>831</ele>
        <time>2018-05-24T13:40:00Z</time>
      </trkpt>
      <trkpt lat="45.17746" lon="3.97023">
        <ele>825</ele>
        <time>2018-05-24T13:40:18Z</time>
      </trkpt>
      <trkpt lat="45.17735" lon="3.97049">
        <ele>823</ele>
        <time>2018-05-24T13:40:34Z</time>
      </trkpt>
      <trkpt lat="45.1773" lon="3.97058">
        <ele>822</ele>
        <time>2018-05-24T13:40:40Z</time>
      </trkpt>
      <trkpt lat="45.17725" lon="3.97066">
        <ele>822</ele>
        <time>2018-05-24T13:40:46Z</time>
      </trkpt>
      <trkpt lat="45.17722" lon="3.97097">
        <ele>818</ele>
        <time>2018-05-24T13:41:02Z</time>
      </trkpt>
      <trkpt lat="45.17717" lon="3.97131">
        <ele>816</ele>
        <time>2018-05-24T13:41:18Z</time>
      </trkpt>
      <trkpt lat="45.17711" lon="3.97156">
        <ele>815</ele>
        <time>2018-05-24T13:41:32Z</time>
      </trkpt>
      <trkpt lat="45.17709" lon="3.97179">
        <ele>812</ele>
        <time>2018-05-24T13:41:44Z</time>
      </trkpt>
      <trkpt lat="45.17712" lon="3.9719">
        <ele>812</ele>
        <time>2018-05-24T13:41:50Z</time>
      </trkpt>
      <trkpt lat="45.17723" lon="3.97217">
        <ele>812</ele>
        <time>2018-05-24T13:42:05Z</time>
      </trkpt>
      <trkpt lat="45.17727" lon="3.97226">
        <ele>812</ele>
        <time>2018-05-24T13:42:09Z</time>
      </trkpt>
      <trkpt lat="45.17742" lon="3.97247">
        <ele>811</ele>
        <time>2018-05-24T13:42:23Z</time>
      </trkpt>
      <trkpt lat="45.17747" lon="3.97252">
        <ele>811</ele>
        <time>2018-05-24T13:42:28Z</time>
      </trkpt>
      <trkpt lat="45.17756" lon="3.97261">
        <ele>809</ele>
        <time>2018-05-24T13:42:35Z</time>
      </trkpt>
      <trkpt lat="45.17764" lon="3.97265">
        <ele>809</ele>
        <time>2018-05-24T13:42:41Z</time>
      </trkpt>
      <trkpt lat="45.17777" lon="3.9728">
        <ele>807</ele>
        <time>2018-05-24T13:42:53Z</time>
      </trkpt>
      <trkpt lat="45.17793" lon="3.97297">
        <ele>806</ele>
        <time>2018-05-24T13:43:07Z</time>
      </trkpt>
      <trkpt lat="45.17798" lon="3.973">
        <ele>806</ele>
        <time>2018-05-24T13:43:12Z</time>
      </trkpt>
      <trkpt lat="45.17803" lon="3.97306">
        <ele>805</ele>
        <time>2018-05-24T13:43:16Z</time>
      </trkpt>
      <trkpt lat="45.17815" lon="3.97311">
        <ele>804</ele>
        <time>2018-05-24T13:43:24Z</time>
      </trkpt>
      <trkpt lat="45.1782" lon="3.97315">
        <ele>803</ele>
        <time>2018-05-24T13:43:28Z</time>
      </trkpt>
      <trkpt lat="45.17826" lon="3.97315">
        <ele>802</ele>
        <time>2018-05-24T13:43:32Z</time>
      </trkpt>
      <trkpt lat="45.17832" lon="3.97321">
        <ele>801</ele>
        <time>2018-05-24T13:43:38Z</time>
      </trkpt>
      <trkpt lat="45.17834" lon="3.97324">
        <ele>798</ele>
        <time>2018-05-24T13:43:40Z</time>
      </trkpt>
      <trkpt lat="45.17846" lon="3.97337">
        <ele>791</ele>
        <time>2018-05-24T13:43:51Z</time>
      </trkpt>
      <trkpt lat="45.17853" lon="3.9735">
        <ele>787</ele>
        <time>2018-05-24T13:43:59Z</time>
      </trkpt>
      <trkpt lat="45.17863" lon="3.9736">
        <ele>785</ele>
        <time>2018-05-24T13:44:07Z</time>
      </trkpt>
      <trkpt lat="45.17869" lon="3.97361">
        <ele>784</ele>
        <time>2018-05-24T13:44:11Z</time>
      </trkpt>
      <trkpt lat="45.17884" lon="3.97364">
        <ele>783</ele>
        <time>2018-05-24T13:44:27Z</time>
      </trkpt>
      <trkpt lat="45.17903" lon="3.97361">
        <ele>783</ele>
        <time>2018-05-24T13:44:43Z</time>
      </trkpt>
      <trkpt lat="45.17921" lon="3.9736">
        <ele>778</ele>
        <time>2018-05-24T13:44:58Z</time>
      </trkpt>
      <trkpt lat="45.17925" lon="3.97363">
        <ele>777</ele>
        <time>2018-05-24T13:45:02Z</time>
      </trkpt>
      <trkpt lat="45.17934" lon="3.97371">
        <ele>775</ele>
        <time>2018-05-24T13:45:08Z</time>
      </trkpt>
      <trkpt lat="45.17957" lon="3.97386">
        <ele>772</ele>
        <time>2018-05-24T13:45:22Z</time>
      </trkpt>
      <trkpt lat="45.17983" lon="3.97396">
        <ele>769</ele>
        <time>2018-05-24T13:45:41Z</time>
      </trkpt>
      <trkpt lat="45.17999" lon="3.97409">
        <ele>765</ele>
        <time>2018-05-24T13:45:58Z</time>
      </trkpt>
      <trkpt lat="45.18011" lon="3.9742">
        <ele>759</ele>
        <time>2018-05-24T13:46:10Z</time>
      </trkpt>
      <trkpt lat="45.18018" lon="3.97424">
        <ele>758</ele>
        <time>2018-05-24T13:46:23Z</time>
      </trkpt>
      <trkpt lat="45.18023" lon="3.97424">
        <ele>758</ele>
        <time>2018-05-24T13:46:29Z</time>
      </trkpt>
      <trkpt lat="45.1802" lon="3.97419">
        <ele>758.3</ele>
      </trkpt>
      <trkpt lat="45.18015" lon="3.97424">
        <ele>758.6</ele>
      </trkpt>
      <trkpt lat="45.18012" lon="3.97427">
        <ele>758.7</ele>
      </trkpt>
      <trkpt lat="45.18" lon="3.97437">
        <ele>758.5</ele>
      </trkpt>
      <trkpt lat="45.17997" lon="3.97439">
        <ele>758.2</ele>
      </trkpt>
      <trkpt lat="45.17983" lon="3.97449">
        <ele>756.9</ele>
      </trkpt>
      <trkpt lat="45.17972" lon="3.97455">
        <ele>756.2</ele>
      </trkpt>
      <trkpt lat="45.17962" lon="3.97459">
        <ele>755.9</ele>
      </trkpt>
      <trkpt lat="45.17955" lon="3.97461">
        <ele>755.8</ele>
      </trkpt>
      <trkpt lat="45.17943" lon="3.97462">
        <ele>755.7</ele>
      </trkpt>
      <trkpt lat="45.1793" lon="3.97463">
        <ele>755.6</ele>
      </trkpt>
      <trkpt lat="45.1791" lon="3.97467">
        <ele>759.2</ele>
      </trkpt>
      <trkpt lat="45.17879" lon="3.97479">
        <ele>760.5</ele>
      </trkpt>
      <trkpt lat="45.17867" lon="3.97485">
        <ele>761.1</ele>
      </trkpt>
      <trkpt lat="45.17855" lon="3.97495">
        <ele>761.3</ele>
      </trkpt>
      <trkpt lat="45.17844" lon="3.97514">
        <ele>755.3</ele>
      </trkpt>
      <trkpt lat="45.17836" lon="3.97537">
        <ele>752.6</ele>
      </trkpt>
      <trkpt lat="45.17832" lon="3.97548">
        <ele>761</ele>
      </trkpt>
      <trkpt lat="45.17828" lon="3.97567">
        <ele>758.2</ele>
      </trkpt>
      <trkpt lat="45.17827" lon="3.9758">
        <ele>755</ele>
      </trkpt>
      <trkpt lat="45.17826" lon="3.97598">
        <ele>755</ele>
      </trkpt>
      <trkpt lat="45.17827" lon="3.97618">
        <ele>756.1</ele>
      </trkpt>
      <trkpt lat="45.17828" lon="3.97637">
        <ele>756</ele>
      </trkpt>
      <trkpt lat="45.17831" lon="3.9766">
        <ele>754.2</ele>
      </trkpt>
      <trkpt lat="45.17832" lon="3.97672">
        <ele>753.6</ele>
      </trkpt>
      <trkpt lat="45.17832" lon="3.97681">
        <ele>754.3</ele>
      </trkpt>
      <trkpt lat="45.17831" lon="3.97691">
        <ele>754.6</ele>
      </trkpt>
      <trkpt lat="45.17829" lon="3.97698">
        <ele>754.8</ele>
      </trkpt>
      <trkpt lat="45.17828" lon="3.97702">
        <ele>754.8</ele>
      </trkpt>
      <trkpt lat="45.17823" lon="3.97714">
        <ele>754.8</ele>
      </trkpt>
      <trkpt lat="45.17815" lon="3.97729">
        <ele>754.6</ele>
      </trkpt>
      <trkpt lat="45.17808" lon="3.97741">
        <ele>754.6</ele>
      </trkpt>
      <trkpt lat="45.178" lon="3.9775">
        <ele>755</ele>
      </trkpt>
      <trkpt lat="45.17791" lon="3.9776">
        <ele>752.4</ele>
      </trkpt>
      <trkpt lat="45.17782" lon="3.97767">
        <ele>752.6</ele>
      </trkpt>
      <trkpt lat="45.17772" lon="3.97772">
        <ele>752.8</ele>
      </trkpt>
      <trkpt lat="45.17756" lon="3.97777">
        <ele>753.1</ele>
      </trkpt>
      <trkpt lat="45.17741" lon="3.97784">
        <ele>754.8</ele>
      </trkpt>
      <trkpt lat="45.17729" lon="3.97788">
        <ele>754.6</ele>
      </trkpt>
      <trkpt lat="45.17723" lon="3.97793">
        <ele>754.5</ele>
      </trkpt>
      <trkpt lat="45.17718" lon="3.97796">
        <ele>754.4</ele>
      </trkpt>
      <trkpt lat="45.17713" lon="3.97803">
        <ele>754.3</ele>
      </trkpt>
      <trkpt lat="45.17704" lon="3.97821">
        <ele>754</ele>
      </trkpt>
      <trkpt lat="45.17692" lon="3.97846">
        <ele>750.5</ele>
      </trkpt>
      <trkpt lat="45.1768" lon="3.97869">
        <ele>749.7</ele>
      </trkpt>
      <trkpt lat="45.17674" lon="3.9788">
        <ele>749.3</ele>
      </trkpt>
      <trkpt lat="45.17668" lon="3.97888">
        <ele>749</ele>
      </trkpt>
      <trkpt lat="45.17661" lon="3.97897">
        <ele>749.8</ele>
      </trkpt>
      <trkpt lat="45.17655" lon="3.97902">
        <ele>749.5</ele>
      </trkpt>
      <trkpt lat="45.17641" lon="3.97913">
        <ele>749.6</ele>
      </trkpt>
      <trkpt lat="45.17631" lon="3.97921">
        <ele>745.5</ele>
      </trkpt>
      <trkpt lat="45.17623" lon="3.97929">
        <ele>745.3</ele>
      </trkpt>
      <trkpt lat="45.17617" lon="3.97934">
        <ele>745.1</ele>
      </trkpt>
      <trkpt lat="45.17611" lon="3.97937">
        <ele>745.1</ele>
      </trkpt>
      <trkpt lat="45.17621" lon="3.97944">
        <ele>744.8</ele>
      </trkpt>
      <trkpt lat="45.17629" lon="3.97948">
        <ele>744.6</ele>
      </trkpt>
      <trkpt lat="45.17636" lon="3.97954">
        <ele>744.4</ele>
      </trkpt>
      <trkpt lat="45.17648" lon="3.97958">
        <ele>744.2</ele>
      </trkpt>
      <trkpt lat="45.17667" lon="3.97963">
        <ele>742.7</ele>
      </trkpt>
      <trkpt lat="45.17688" lon="3.97969">
        <ele>742.3</ele>
      </trkpt>
      <trkpt lat="45.17704" lon="3.97972">
        <ele>742.1</ele>
      </trkpt>
      <trkpt lat="45.1772" lon="3.97973">
        <ele>741.8</ele>
      </trkpt>
      <trkpt lat="45.17739" lon="3.97975">
        <ele>741.3</ele>
      </trkpt>
      <trkpt lat="45.17764" lon="3.97975">
        <ele>739.4</ele>
      </trkpt>
      <trkpt lat="45.17787" lon="3.97973">
        <ele>739</ele>
      </trkpt>
      <trkpt lat="45.17816" lon="3.97973">
        <ele>738.4</ele>
      </trkpt>
      <trkpt lat="45.17827" lon="3.97975">
        <ele>738.1</ele>
      </trkpt>
      <trkpt lat="45.17845" lon="3.97974">
        <ele>734.7</ele>
      </trkpt>
      <trkpt lat="45.17861" lon="3.97972">
        <ele>734.1</ele>
      </trkpt>
      <trkpt lat="45.17875" lon="3.97969">
        <ele>733.5</ele>
      </trkpt>
      <trkpt lat="45.17889" lon="3.97965">
        <ele>732.9</ele>
      </trkpt>
      <trkpt lat="45.17912" lon="3.97957">
        <ele>732.5</ele>
      </trkpt>
      <trkpt lat="45.17932" lon="3.9795">
        <ele>727.4</ele>
      </trkpt>
      <trkpt lat="45.17957" lon="3.97945">
        <ele>726.1</ele>
      </trkpt>
      <trkpt lat="45.17981" lon="3.97938">
        <ele>724.7</ele>
      </trkpt>
      <trkpt lat="45.18" lon="3.97936">
        <ele>723.8</ele>
      </trkpt>
      <trkpt lat="45.18001" lon="3.97936">
        <ele>720.7</ele>
      </trkpt>
      <trkpt lat="45.18014" lon="3.97935">
        <ele>720.4</ele>
      </trkpt>
      <trkpt lat="45.18027" lon="3.97937">
        <ele>719.9</ele>
      </trkpt>
      <trkpt lat="45.18037" lon="3.9794">
        <ele>719.6</ele>
      </trkpt>
      <trkpt lat="45.18035" lon="3.97942">
        <ele>719.6</ele>
      </trkpt>
      <trkpt lat="45.18037" lon="3.9794">
        <ele>720</ele>
      </trkpt>
      <trkpt lat="45.18043" lon="3.97936">
        <ele>719.3</ele>
      </trkpt>
      <trkpt lat="45.18056" lon="3.97932">
        <ele>718.7</ele>
      </trkpt>
      <trkpt lat="45.18067" lon="3.97931">
        <ele>718.1</ele>
      </trkpt>
      <trkpt lat="45.1807" lon="3.97931">
        <ele>718</ele>
      </trkpt>
      <trkpt lat="45.18079" lon="3.97929">
        <ele>717.5</ele>
      </trkpt>
      <trkpt lat="45.18087" lon="3.97928">
        <ele>718.1</ele>
      </trkpt>
      <trkpt lat="45.18094" lon="3.97923">
        <ele>718.2</ele>
      </trkpt>
      <trkpt lat="45.18111" lon="3.97907">
        <ele>717</ele>
      </trkpt>
      <trkpt lat="45.18116" lon="3.97902">
        <ele>717.1</ele>
      </trkpt>
      <trkpt lat="45.18119" lon="3.97899">
        <ele>717.2</ele>
      </trkpt>
      <trkpt lat="45.18119" lon="3.97915">
        <ele>717.3</ele>
      </trkpt>
      <trkpt lat="45.18115" lon="3.9795">
        <ele>721.2</ele>
      </trkpt>
      <trkpt lat="45.18114" lon="3.97968">
        <ele>721.7</ele>
      </trkpt>
      <trkpt lat="45.18115" lon="3.97981">
        <ele>722</ele>
      </trkpt>
      <trkpt lat="45.1812" lon="3.97999">
        <ele>722.8</ele>
      </trkpt>
      <trkpt lat="45.18128" lon="3.98016">
        <ele>728.3</ele>
      </trkpt>
      <trkpt lat="45.18142" lon="3.98041">
        <ele>730.3</ele>
      </trkpt>
      <trkpt lat="45.18152" lon="3.98056">
        <ele>732.2</ele>
      </trkpt>
      <trkpt lat="45.18156" lon="3.98058">
        <ele>732.7</ele>
      </trkpt>
      <trkpt lat="45.18166" lon="3.98058">
        <ele>733.3</ele>
      </trkpt>
      <trkpt lat="45.18181" lon="3.98055">
        <ele>740.5</ele>
      </trkpt>
      <trkpt lat="45.18192" lon="3.98053">
        <ele>741</ele>
      </trkpt>
      <trkpt lat="45.18203" lon="3.98054">
        <ele>741.7</ele>
      </trkpt>
      <trkpt lat="45.18209" lon="3.98054">
        <ele>742.2</ele>
      </trkpt>
      <trkpt lat="45.18218" lon="3.98058">
        <ele>743</ele>
      </trkpt>
      <trkpt lat="45.18225" lon="3.98064">
        <ele>744</ele>
      </trkpt>
      <trkpt lat="45.18236" lon="3.98076">
        <ele>746.6</ele>
      </trkpt>
      <trkpt lat="45.18243" lon="3.98083">
        <ele>748.7</ele>
      </trkpt>
      <trkpt lat="45.18259" lon="3.9809">
        <ele>753</ele>
      </trkpt>
      <trkpt lat="45.18254" lon="3.98092">
        <ele>752.8</ele>
      </trkpt>
      <trkpt lat="45.18253" lon="3.98092">
        <ele>752.8</ele>
      </trkpt>
      <trkpt lat="45.18254" lon="3.98092">
        <ele>753</ele>
      </trkpt>
      <trkpt lat="45.18259" lon="3.9809">
        <ele>753</ele>
      </trkpt>
      <trkpt lat="45.18262" lon="3.98089">
        <ele>753.3</ele>
      </trkpt>
      <trkpt lat="45.1828" lon="3.98084">
        <ele>754.7</ele>
      </trkpt>
      <trkpt lat="45.18291" lon="3.98081">
        <ele>750.1</ele>
      </trkpt>
      <trkpt lat="45.18294" lon="3.9808">
        <ele>750.2</ele>
      </trkpt>
      <trkpt lat="45.18298" lon="3.98079">
        <ele>750.3</ele>
      </trkpt>
      <trkpt lat="45.18301" lon="3.98079">
        <ele>750.5</ele>
      </trkpt>
      <trkpt lat="45.18307" lon="3.98082">
        <ele>750.8</ele>
      </trkpt>
      <trkpt lat="45.18315" lon="3.98095">
        <ele>755.5</ele>
      </trkpt>
      <trkpt lat="45.18324" lon="3.98108">
        <ele>756.1</ele>
      </trkpt>
      <trkpt lat="45.18329" lon="3.98109">
        <ele>756.2</ele>
      </trkpt>
      <trkpt lat="45.18336" lon="3.98108">
        <ele>758.5</ele>
      </trkpt>
      <trkpt lat="45.18349" lon="3.98107">
        <ele>758.9</ele>
      </trkpt>
      <trkpt lat="45.18356" lon="3.98105">
        <ele>759.2</ele>
      </trkpt>
      <trkpt lat="45.18364" lon="3.98103">
        <ele>759.5</ele>
      </trkpt>
      <trkpt lat="45.18368" lon="3.98101">
        <ele>759.6</ele>
      </trkpt>
      <trkpt lat="45.18388" lon="3.98089">
        <ele>759.7</ele>
      </trkpt>
      <trkpt lat="45.18407" lon="3.98076">
        <ele>756</ele>
      </trkpt>
      <trkpt lat="45.18422" lon="3.98064">
        <ele>760.1</ele>
      </trkpt>
      <trkpt lat="45.1843" lon="3.98057">
        <ele>760.7</ele>
      </trkpt>
      <trkpt lat="45.1844" lon="3.98042">
        <ele>760.9</ele>
      </trkpt>
      <trkpt lat="45.18443" lon="3.98037">
        <ele>760.9</ele>
      </trkpt>
      <trkpt lat="45.18444" lon="3.98035">
        <ele>760.9</ele>
      </trkpt>
      <trkpt lat="45.18446" lon="3.98034">
        <ele>760.9</ele>
      </trkpt>
      <trkpt lat="45.18454" lon="3.9803">
        <ele>761</ele>
        <time>2018-05-24T14:09:13Z</time>
      </trkpt>
      <trkpt lat="45.18457" lon="3.98025">
        <ele>762</ele>
        <time>2018-05-24T14:09:19Z</time>
      </trkpt>
      <trkpt lat="45.1846" lon="3.98022">
        <ele>762</ele>
        <time>2018-05-24T14:09:34Z</time>
      </trkpt>
      <trkpt lat="45.1846" lon="3.98021">
        <ele>762</ele>
        <time>2018-05-24T14:09:47Z</time>
      </trkpt>
      <trkpt lat="45.18459" lon="3.98023">
        <ele>762</ele>
        <time>2018-05-24T14:10:06Z</time>
      </trkpt>
      <trkpt lat="45.18461" lon="3.98021">
        <ele>762</ele>
        <time>2018-05-24T14:10:23Z</time>
      </trkpt>
      <trkpt lat="45.18461" lon="3.9802">
        <ele>762</ele>
        <time>2018-05-24T14:10:38Z</time>
      </trkpt>
      <trkpt lat="45.18464" lon="3.98014">
        <ele>762</ele>
        <time>2018-05-24T14:10:43Z</time>
      </trkpt>
      <trkpt lat="45.18467" lon="3.98007">
        <ele>762</ele>
        <time>2018-05-24T14:10:47Z</time>
      </trkpt>
      <trkpt lat="45.18477" lon="3.9799">
        <ele>757</ele>
        <time>2018-05-24T14:11:01Z</time>
      </trkpt>
      <trkpt lat="45.1849" lon="3.97973">
        <ele>756</ele>
        <time>2018-05-24T14:11:14Z</time>
      </trkpt>
      <trkpt lat="45.18499" lon="3.97969">
        <ele>756</ele>
        <time>2018-05-24T14:11:23Z</time>
      </trkpt>
      <trkpt lat="45.18524" lon="3.97966">
        <ele>760</ele>
        <time>2018-05-24T14:11:43Z</time>
      </trkpt>
      <trkpt lat="45.18544" lon="3.97963">
        <ele>760</ele>
        <time>2018-05-24T14:12:01Z</time>
      </trkpt>
      <trkpt lat="45.18545" lon="3.97962">
        <ele>760</ele>
        <time>2018-05-24T14:12:02Z</time>
      </trkpt>
      <trkpt lat="45.18557" lon="3.97961">
        <ele>760</ele>
        <time>2018-05-24T14:12:09Z</time>
      </trkpt>
      <trkpt lat="45.18571" lon="3.97951">
        <ele>759</ele>
        <time>2018-05-24T14:12:24Z</time>
      </trkpt>
      <trkpt lat="45.18596" lon="3.97951">
        <ele>760</ele>
        <time>2018-05-24T14:12:44Z</time>
      </trkpt>
      <trkpt lat="45.18622" lon="3.97933">
        <ele>759</ele>
        <time>2018-05-24T14:13:04Z</time>
      </trkpt>
      <trkpt lat="45.18646" lon="3.97919">
        <ele>757</ele>
        <time>2018-05-24T14:13:21Z</time>
      </trkpt>
      <trkpt lat="45.18666" lon="3.97922">
        <ele>755</ele>
        <time>2018-05-24T14:13:38Z</time>
      </trkpt>
      <trkpt lat="45.18695" lon="3.97928">
        <ele>758</ele>
        <time>2018-05-24T14:14:00Z</time>
      </trkpt>
      <trkpt lat="45.18718" lon="3.97932">
        <ele>759</ele>
        <time>2018-05-24T14:14:19Z</time>
      </trkpt>
      <trkpt lat="45.18739" lon="3.97943">
        <ele>759</ele>
        <time>2018-05-24T14:14:35Z</time>
      </trkpt>
      <trkpt lat="45.18755" lon="3.97947">
        <ele>760</ele>
        <time>2018-05-24T14:14:53Z</time>
      </trkpt>
      <trkpt lat="45.18764" lon="3.97952">
        <ele>761</ele>
        <time>2018-05-24T14:14:59Z</time>
      </trkpt>
      <trkpt lat="45.1879" lon="3.97946">
        <ele>761</ele>
        <time>2018-05-24T14:15:12Z</time>
      </trkpt>
      <trkpt lat="45.18794" lon="3.97946">
        <ele>761</ele>
        <time>2018-05-24T14:15:17Z</time>
      </trkpt>
      <trkpt lat="45.18803" lon="3.97948">
        <ele>762</ele>
        <time>2018-05-24T14:15:26Z</time>
      </trkpt>
      <trkpt lat="45.18818" lon="3.9795">
        <ele>762</ele>
        <time>2018-05-24T14:15:37Z</time>
      </trkpt>
      <trkpt lat="45.18832" lon="3.97951">
        <ele>762</ele>
        <time>2018-05-24T14:15:46Z</time>
      </trkpt>
      <trkpt lat="45.18849" lon="3.97955">
        <ele>762</ele>
        <time>2018-05-24T14:15:58Z</time>
      </trkpt>
      <trkpt lat="45.18859" lon="3.97956">
        <ele>762</ele>
        <time>2018-05-24T14:16:09Z</time>
      </trkpt>
      <trkpt lat="45.18874" lon="3.97958">
        <ele>762</ele>
        <time>2018-05-24T14:16:21Z</time>
      </trkpt>
      <trkpt lat="45.18887" lon="3.9796">
        <ele>762</ele>
        <time>2018-05-24T14:16:28Z</time>
      </trkpt>
      <trkpt lat="45.18902" lon="3.97961">
        <ele>762</ele>
        <time>2018-05-24T14:16:39Z</time>
      </trkpt>
      <trkpt lat="45.18904" lon="3.97962">
        <ele>762</ele>
        <time>2018-05-24T14:16:41Z</time>
      </trkpt>
      <trkpt lat="45.18918" lon="3.97975">
        <ele>760</ele>
        <time>2018-05-24T14:16:52Z</time>
      </trkpt>
      <trkpt lat="45.18921" lon="3.97978">
        <ele>761</ele>
        <time>2018-05-24T14:16:56Z</time>
      </trkpt>
      <trkpt lat="45.18942" lon="3.97986">
        <ele>760</ele>
        <time>2018-05-24T14:17:10Z</time>
      </trkpt>
      <trkpt lat="45.18958" lon="3.97998">
        <ele>758</ele>
        <time>2018-05-24T14:17:22Z</time>
      </trkpt>
      <trkpt lat="45.18972" lon="3.9801">
        <ele>765</ele>
        <time>2018-05-24T14:17:30Z</time>
      </trkpt>
      <trkpt lat="45.18995" lon="3.98015">
        <ele>763</ele>
        <time>2018-05-24T14:17:45Z</time>
      </trkpt>
      <trkpt lat="45.19013" lon="3.98018">
        <ele>755</ele>
        <time>2018-05-24T14:17:59Z</time>
      </trkpt>
      <trkpt lat="45.19036" lon="3.9803">
        <ele>753</ele>
        <time>2018-05-24T14:18:14Z</time>
      </trkpt>
      <trkpt lat="45.19057" lon="3.98041">
        <ele>752</ele>
        <time>2018-05-24T14:18:28Z</time>
      </trkpt>
      <trkpt lat="45.19066" lon="3.98055">
        <ele>752</ele>
        <time>2018-05-24T14:18:43Z</time>
      </trkpt>
      <trkpt lat="45.1907" lon="3.98076">
        <ele>752</ele>
        <time>2018-05-24T14:18:56Z</time>
      </trkpt>
      <trkpt lat="45.19073" lon="3.98098">
        <ele>758</ele>
        <time>2018-05-24T14:19:12Z</time>
      </trkpt>
      <trkpt lat="45.19078" lon="3.98102">
        <ele>758</ele>
        <time>2018-05-24T14:19:29Z</time>
      </trkpt>
      <trkpt lat="45.19082" lon="3.98106">
        <ele>758</ele>
        <time>2018-05-24T14:19:44Z</time>
      </trkpt>
      <trkpt lat="45.19083" lon="3.98109">
        <ele>759</ele>
        <time>2018-05-24T14:19:48Z</time>
      </trkpt>
      <trkpt lat="45.19085" lon="3.98113">
        <ele>751</ele>
        <time>2018-05-24T14:19:51Z</time>
      </trkpt>
      <trkpt lat="45.19088" lon="3.98124">
        <ele>752</ele>
        <time>2018-05-24T14:19:58Z</time>
      </trkpt>
      <trkpt lat="45.19091" lon="3.98137">
        <ele>753</ele>
        <time>2018-05-24T14:20:06Z</time>
      </trkpt>
      <trkpt lat="45.191" lon="3.98173">
        <ele>759</ele>
        <time>2018-05-24T14:20:24Z</time>
      </trkpt>
      <trkpt lat="45.19105" lon="3.98193">
        <ele>760</ele>
        <time>2018-05-24T14:20:39Z</time>
      </trkpt>
      <trkpt lat="45.19106" lon="3.98202">
        <ele>760</ele>
        <time>2018-05-24T14:20:45Z</time>
      </trkpt>
      <trkpt lat="45.19112" lon="3.98229">
        <ele>762</ele>
        <time>2018-05-24T14:20:59Z</time>
      </trkpt>
      <trkpt lat="45.19116" lon="3.98258">
        <ele>770</ele>
        <time>2018-05-24T14:21:14Z</time>
      </trkpt>
      <trkpt lat="45.19116" lon="3.98268">
        <ele>771</ele>
        <time>2018-05-24T14:21:20Z</time>
      </trkpt>
      <trkpt lat="45.1913" lon="3.98293">
        <ele>771</ele>
        <time>2018-05-24T14:21:34Z</time>
      </trkpt>
      <trkpt lat="45.19145" lon="3.98315">
        <ele>771</ele>
        <time>2018-05-24T14:21:50Z</time>
      </trkpt>
      <trkpt lat="45.19161" lon="3.98326">
        <ele>769</ele>
        <time>2018-05-24T14:22:03Z</time>
      </trkpt>
      <trkpt lat="45.19167" lon="3.98327">
        <ele>766</ele>
        <time>2018-05-24T14:22:07Z</time>
      </trkpt>
      <trkpt lat="45.19186" lon="3.98308">
        <ele>760</ele>
        <time>2018-05-24T14:22:27Z</time>
      </trkpt>
      <trkpt lat="45.19194" lon="3.98293">
        <ele>758</ele>
        <time>2018-05-24T14:22:35Z</time>
      </trkpt>
      <trkpt lat="45.19201" lon="3.98277">
        <ele>756</ele>
        <time>2018-05-24T14:22:45Z</time>
      </trkpt>
      <trkpt lat="45.19207" lon="3.98262">
        <ele>755</ele>
        <time>2018-05-24T14:22:56Z</time>
      </trkpt>
      <trkpt lat="45.19208" lon="3.98257">
        <ele>755</ele>
        <time>2018-05-24T14:22:59Z</time>
      </trkpt>
      <trkpt lat="45.19205" lon="3.9824">
        <ele>749</ele>
        <time>2018-05-24T14:23:13Z</time>
      </trkpt>
      <trkpt lat="45.19207" lon="3.98239">
        <ele>749</ele>
        <time>2018-05-24T14:23:15Z</time>
      </trkpt>
      <trkpt lat="45.19214" lon="3.9823">
        <ele>748</ele>
        <time>2018-05-24T14:23:21Z</time>
      </trkpt>
      <trkpt lat="45.1923" lon="3.98208">
        <ele>747</ele>
        <time>2018-05-24T14:23:38Z</time>
      </trkpt>
      <trkpt lat="45.19232" lon="3.98205">
        <ele>746</ele>
        <time>2018-05-24T14:23:52Z</time>
      </trkpt>
      <trkpt lat="45.19232" lon="3.98205">
        <ele>746</ele>
        <time>2018-05-24T14:24:17Z</time>
      </trkpt>
      <trkpt lat="45.19231" lon="3.98203">
        <ele>746</ele>
        <time>2018-05-24T14:24:47Z</time>
      </trkpt>
      <trkpt lat="45.19231" lon="3.98204">
        <ele>746</ele>
        <time>2018-05-24T14:25:07Z</time>
      </trkpt>
      <trkpt lat="45.19227" lon="3.98211">
        <ele>747</ele>
        <time>2018-05-24T14:25:27Z</time>
      </trkpt>
      <trkpt lat="45.19225" lon="3.98216">
        <ele>747</ele>
        <time>2018-05-24T14:25:49Z</time>
      </trkpt>
      <trkpt lat="45.19226" lon="3.98216">
        <ele>747</ele>
        <time>2018-05-24T14:26:14Z</time>
      </trkpt>
      <trkpt lat="45.19228" lon="3.98209">
        <ele>747</ele>
        <time>2018-05-24T14:26:38Z</time>
      </trkpt>
      <trkpt lat="45.1923" lon="3.98208">
        <ele>747</ele>
        <time>2018-05-24T14:27:07Z</time>
      </trkpt>
      <trkpt lat="45.19229" lon="3.98212">
        <ele>747</ele>
        <time>2018-05-24T14:27:31Z</time>
      </trkpt>
      <trkpt lat="45.19226" lon="3.98214">
        <ele>747</ele>
        <time>2018-05-24T14:27:51Z</time>
      </trkpt>
      <trkpt lat="45.19225" lon="3.98215">
        <ele>747</ele>
        <time>2018-05-24T14:28:20Z</time>
      </trkpt>
      <trkpt lat="45.1923" lon="3.98206">
        <ele>746</ele>
        <time>2018-05-24T14:28:45Z</time>
      </trkpt>
      <trkpt lat="45.19232" lon="3.98203">
        <ele>746</ele>
        <time>2018-05-24T14:29:14Z</time>
      </trkpt>
      <trkpt lat="45.19234" lon="3.982">
        <ele>746</ele>
        <time>2018-05-24T14:29:35Z</time>
      </trkpt>
      <trkpt lat="45.19236" lon="3.98196">
        <ele>745</ele>
        <time>2018-05-24T14:29:46Z</time>
      </trkpt>
      <trkpt lat="45.19242" lon="3.9819">
        <ele>744</ele>
        <time>2018-05-24T14:30:05Z</time>
      </trkpt>
      <trkpt lat="45.19243" lon="3.98189">
        <ele>744</ele>
        <time>2018-05-24T14:30:06Z</time>
      </trkpt>
      <trkpt lat="45.19255" lon="3.98173">
        <ele>740</ele>
        <time>2018-05-24T14:30:21Z</time>
      </trkpt>
      <trkpt lat="45.19264" lon="3.98164">
        <ele>737</ele>
        <time>2018-05-24T14:30:31Z</time>
      </trkpt>
      <trkpt lat="45.19278" lon="3.98134">
        <ele>735</ele>
        <time>2018-05-24T14:30:48Z</time>
      </trkpt>
      <trkpt lat="45.19288" lon="3.98114">
        <ele>734</ele>
        <time>2018-05-24T14:31:02Z</time>
      </trkpt>
      <trkpt lat="45.19294" lon="3.98113">
        <ele>733</ele>
        <time>2018-05-24T14:31:06Z</time>
      </trkpt>
      <trkpt lat="45.19314" lon="3.98121">
        <ele>734</ele>
        <time>2018-05-24T14:31:22Z</time>
      </trkpt>
      <trkpt lat="45.1933" lon="3.98122">
        <ele>733</ele>
        <time>2018-05-24T14:31:36Z</time>
      </trkpt>
      <trkpt lat="45.1935" lon="3.98114">
        <ele>733</ele>
        <time>2018-05-24T14:31:52Z</time>
      </trkpt>
      <trkpt lat="45.19366" lon="3.98105">
        <ele>733</ele>
        <time>2018-05-24T14:32:07Z</time>
      </trkpt>
      <trkpt lat="45.19367" lon="3.98105">
        <ele>733</ele>
        <time>2018-05-24T14:32:12Z</time>
      </trkpt>
      <trkpt lat="45.19372" lon="3.98101">
        <ele>733</ele>
        <time>2018-05-24T14:32:16Z</time>
      </trkpt>
      <trkpt lat="45.19393" lon="3.98089">
        <ele>732</ele>
        <time>2018-05-24T14:32:34Z</time>
      </trkpt>
      <trkpt lat="45.19414" lon="3.98074">
        <ele>728</ele>
        <time>2018-05-24T14:32:52Z</time>
      </trkpt>
      <trkpt lat="45.19443" lon="3.98065">
        <ele>725</ele>
        <time>2018-05-24T14:33:12Z</time>
      </trkpt>
      <trkpt lat="45.19469" lon="3.9805">
        <ele>724</ele>
        <time>2018-05-24T14:33:31Z</time>
      </trkpt>
      <trkpt lat="45.19475" lon="3.98041">
        <ele>724</ele>
        <time>2018-05-24T14:33:37Z</time>
      </trkpt>
      <trkpt lat="45.19489" lon="3.98025">
        <ele>723</ele>
        <time>2018-05-24T14:33:52Z</time>
      </trkpt>
      <trkpt lat="45.19502" lon="3.98006">
        <ele>720</ele>
        <time>2018-05-24T14:34:06Z</time>
      </trkpt>
      <trkpt lat="45.19515" lon="3.97988">
        <ele>714</ele>
        <time>2018-05-24T14:34:17Z</time>
      </trkpt>
      <trkpt lat="45.1952" lon="3.97982">
        <ele>713</ele>
        <time>2018-05-24T14:34:26Z</time>
      </trkpt>
      <trkpt lat="45.19529" lon="3.97976">
        <ele>711</ele>
        <time>2018-05-24T14:34:31Z</time>
      </trkpt>
      <trkpt lat="45.19534" lon="3.97963">
        <ele>710</ele>
        <time>2018-05-24T14:34:40Z</time>
      </trkpt>
      <trkpt lat="45.19553" lon="3.97946">
        <ele>708</ele>
        <time>2018-05-24T14:34:52Z</time>
      </trkpt>
      <trkpt lat="45.19565" lon="3.97937">
        <ele>706</ele>
        <time>2018-05-24T14:35:04Z</time>
      </trkpt>
      <trkpt lat="45.19579" lon="3.97915">
        <ele>698</ele>
        <time>2018-05-24T14:35:21Z</time>
      </trkpt>
      <trkpt lat="45.19588" lon="3.97897">
        <ele>691</ele>
        <time>2018-05-24T14:35:31Z</time>
      </trkpt>
      <trkpt lat="45.19601" lon="3.97872">
        <ele>686</ele>
        <time>2018-05-24T14:35:46Z</time>
      </trkpt>
      <trkpt lat="45.19621" lon="3.97873">
        <ele>685</ele>
        <time>2018-05-24T14:36:02Z</time>
      </trkpt>
      <trkpt lat="45.19647" lon="3.97875">
        <ele>684</ele>
        <time>2018-05-24T14:36:21Z</time>
      </trkpt>
      <trkpt lat="45.19653" lon="3.97879">
        <ele>684</ele>
        <time>2018-05-24T14:36:25Z</time>
      </trkpt>
      <trkpt lat="45.19673" lon="3.97892">
        <ele>675</ele>
        <time>2018-05-24T14:36:40Z</time>
      </trkpt>
      <trkpt lat="45.19682" lon="3.97901">
        <ele>675</ele>
        <time>2018-05-24T14:36:56Z</time>
      </trkpt>
      <trkpt lat="45.19697" lon="3.97883">
        <ele>670</ele>
        <time>2018-05-24T14:37:05Z</time>
      </trkpt>
      <trkpt lat="45.19711" lon="3.97853">
        <ele>666</ele>
        <time>2018-05-24T14:37:22Z</time>
      </trkpt>
      <trkpt lat="45.19715" lon="3.97858">
        <ele>666</ele>
        <time>2018-05-24T14:37:31Z</time>
      </trkpt>
      <trkpt lat="45.19716" lon="3.97863">
        <ele>666</ele>
        <time>2018-05-24T14:37:34Z</time>
      </trkpt>
      <trkpt lat="45.19723" lon="3.97894">
        <ele>667</ele>
        <time>2018-05-24T14:37:52Z</time>
      </trkpt>
      <trkpt lat="45.19732" lon="3.97899">
        <ele>666</ele>
        <time>2018-05-24T14:38:01Z</time>
      </trkpt>
      <trkpt lat="45.19734" lon="3.97901">
        <ele>665</ele>
        <time>2018-05-24T14:38:03Z</time>
      </trkpt>
      <trkpt lat="45.19763" lon="3.97913">
        <ele>654</ele>
        <time>2018-05-24T14:38:22Z</time>
      </trkpt>
      <trkpt lat="45.19782" lon="3.97924">
        <ele>650</ele>
        <time>2018-05-24T14:38:42Z</time>
      </trkpt>
      <trkpt lat="45.19784" lon="3.97923">
        <ele>649</ele>
        <time>2018-05-24T14:38:44Z</time>
      </trkpt>
      <trkpt lat="45.19791" lon="3.9793">
        <ele>648</ele>
        <time>2018-05-24T14:38:54Z</time>
      </trkpt>
      <trkpt lat="45.198" lon="3.97954">
        <ele>646</ele>
        <time>2018-05-24T14:39:12Z</time>
      </trkpt>
      <trkpt lat="45.19801" lon="3.97963">
        <ele>646</ele>
        <time>2018-05-24T14:39:25Z</time>
      </trkpt>
      <trkpt lat="45.19801" lon="3.97992">
        <ele>646</ele>
        <time>2018-05-24T14:39:42Z</time>
      </trkpt>
      <trkpt lat="45.19803" lon="3.98022">
        <ele>648</ele>
        <time>2018-05-24T14:39:58Z</time>
      </trkpt>
      <trkpt lat="45.19811" lon="3.98051">
        <ele>647</ele>
        <time>2018-05-24T14:40:14Z</time>
      </trkpt>
      <trkpt lat="45.19824" lon="3.98066">
        <ele>644</ele>
        <time>2018-05-24T14:40:26Z</time>
      </trkpt>
      <trkpt lat="45.19838" lon="3.98088">
        <ele>634</ele>
        <time>2018-05-24T14:40:42Z</time>
      </trkpt>
      <trkpt lat="45.19848" lon="3.98119">
        <ele>627</ele>
        <time>2018-05-24T14:41:02Z</time>
      </trkpt>
      <trkpt lat="45.19848" lon="3.9812">
        <ele>627</ele>
        <time>2018-05-24T14:41:03Z</time>
      </trkpt>
      <trkpt lat="45.19851" lon="3.98156">
        <ele>630</ele>
        <time>2018-05-24T14:41:22Z</time>
      </trkpt>
      <trkpt lat="45.19858" lon="3.98183">
        <ele>626</ele>
        <time>2018-05-24T14:41:39Z</time>
      </trkpt>
      <trkpt lat="45.19859" lon="3.98186">
        <ele>625</ele>
        <time>2018-05-24T14:41:41Z</time>
      </trkpt>
      <trkpt lat="45.19869" lon="3.98201">
        <ele>622</ele>
        <time>2018-05-24T14:41:56Z</time>
      </trkpt>
      <trkpt lat="45.19875" lon="3.9819">
        <ele>621</ele>
        <time>2018-05-24T14:42:05Z</time>
      </trkpt>
      <trkpt lat="45.19885" lon="3.98176">
        <ele>619</ele>
        <time>2018-05-24T14:42:18Z</time>
      </trkpt>
      <trkpt lat="45.19897" lon="3.98192">
        <ele>617</ele>
        <time>2018-05-24T14:42:34Z</time>
      </trkpt>
      <trkpt lat="45.19901" lon="3.98229">
        <ele>614</ele>
        <time>2018-05-24T14:42:53Z</time>
      </trkpt>
      <trkpt lat="45.19907" lon="3.98249">
        <ele>609</ele>
        <time>2018-05-24T14:43:11Z</time>
      </trkpt>
      <trkpt lat="45.19907" lon="3.9828">
        <ele>611</ele>
        <time>2018-05-24T14:43:26Z</time>
      </trkpt>
      <trkpt lat="45.19909" lon="3.98283">
        <ele>611</ele>
        <time>2018-05-24T14:43:28Z</time>
      </trkpt>
      <trkpt lat="45.19915" lon="3.98304">
        <ele>609</ele>
        <time>2018-05-24T14:43:40Z</time>
      </trkpt>
      <trkpt lat="45.19921" lon="3.98326">
        <ele>593</ele>
        <time>2018-05-24T14:43:55Z</time>
      </trkpt>
      <trkpt lat="45.19921" lon="3.98327">
        <ele>594</ele>
        <time>2018-05-24T14:43:56Z</time>
      </trkpt>
      <trkpt lat="45.19914" lon="3.98353">
        <ele>607</ele>
        <time>2018-05-24T14:44:11Z</time>
      </trkpt>
      <trkpt lat="45.1992" lon="3.98356">
        <ele>590</ele>
        <time>2018-05-24T14:44:15Z</time>
      </trkpt>
      <trkpt lat="45.19926" lon="3.98352">
        <ele>590</ele>
        <time>2018-05-24T14:44:19Z</time>
      </trkpt>
      <trkpt lat="45.19942" lon="3.98332">
        <ele>586</ele>
        <time>2018-05-24T14:44:36Z</time>
      </trkpt>
      <trkpt lat="45.19958" lon="3.98311">
        <ele>581</ele>
        <time>2018-05-24T14:44:54Z</time>
      </trkpt>
      <trkpt lat="45.19966" lon="3.98301">
        <ele>579</ele>
        <time>2018-05-24T14:45:02Z</time>
      </trkpt>
      <trkpt lat="45.19977" lon="3.9828">
        <ele>577</ele>
        <time>2018-05-24T14:45:17Z</time>
      </trkpt>
      <trkpt lat="45.1999" lon="3.98259">
        <ele>569</ele>
        <time>2018-05-24T14:45:32Z</time>
      </trkpt>
      <trkpt lat="45.20005" lon="3.98227">
        <ele>554</ele>
        <time>2018-05-24T14:45:49Z</time>
      </trkpt>
      <trkpt lat="45.20018" lon="3.98213">
        <ele>551</ele>
        <time>2018-05-24T14:46:04Z</time>
      </trkpt>
      <trkpt lat="45.20017" lon="3.98205">
        <ele>551</ele>
        <time>2018-05-24T14:46:23Z</time>
      </trkpt>
      <trkpt lat="45.20023" lon="3.98193">
        <ele>551</ele>
        <time>2018-05-24T14:46:29Z</time>
      </trkpt>
      <trkpt lat="45.20032" lon="3.98183">
        <ele>550</ele>
        <time>2018-05-24T14:46:37Z</time>
      </trkpt>
      <trkpt lat="45.20038" lon="3.98186">
        <ele>548</ele>
        <time>2018-05-24T14:46:41Z</time>
      </trkpt>
      <trkpt lat="45.2004" lon="3.98207">
        <ele>548</ele>
        <time>2018-05-24T14:46:53Z</time>
      </trkpt>
      <trkpt lat="45.20042" lon="3.98229">
        <ele>547</ele>
        <time>2018-05-24T14:47:03Z</time>
      </trkpt>
      <trkpt lat="45.20044" lon="3.98242">
        <ele>547</ele>
        <time>2018-05-24T14:47:11Z</time>
      </trkpt>
      <trkpt lat="45.20043" lon="3.98256">
        <ele>547</ele>
        <time>2018-05-24T14:47:21Z</time>
      </trkpt>
      <trkpt lat="45.20047" lon="3.98286">
        <ele>547</ele>
        <time>2018-05-24T14:47:30Z</time>
      </trkpt>
      <trkpt lat="45.20049" lon="3.98301">
        <ele>546</ele>
        <time>2018-05-24T14:47:40Z</time>
      </trkpt>
      <trkpt lat="45.20049" lon="3.98316">
        <ele>546</ele>
        <time>2018-05-24T14:47:45Z</time>
      </trkpt>
      <trkpt lat="45.2005" lon="3.98318">
        <ele>546</ele>
        <time>2018-05-24T14:47:49Z</time>
      </trkpt>
      <trkpt lat="45.20067" lon="3.98333">
        <ele>541</ele>
        <time>2018-05-24T14:48:02Z</time>
      </trkpt>
      <trkpt lat="45.20069" lon="3.98338">
        <ele>541</ele>
        <time>2018-05-24T14:48:07Z</time>
      </trkpt>
      <trkpt lat="45.20078" lon="3.9835">
        <ele>541</ele>
        <time>2018-05-24T14:48:13Z</time>
      </trkpt>
      <trkpt lat="45.20082" lon="3.98359">
        <ele>542</ele>
        <time>2018-05-24T14:48:22Z</time>
      </trkpt>
      <trkpt lat="45.20089" lon="3.98381">
        <ele>527</ele>
        <time>2018-05-24T14:48:33Z</time>
      </trkpt>
      <trkpt lat="45.20096" lon="3.98396">
        <ele>527</ele>
        <time>2018-05-24T14:48:40Z</time>
      </trkpt>
      <trkpt lat="45.20101" lon="3.98398">
        <ele>527</ele>
        <time>2018-05-24T14:48:48Z</time>
      </trkpt>
      <trkpt lat="45.20105" lon="3.98396">
        <ele>526</ele>
        <time>2018-05-24T14:49:00Z</time>
      </trkpt>
      <trkpt lat="45.20106" lon="3.98396">
        <ele>526</ele>
        <time>2018-05-24T14:49:02Z</time>
      </trkpt>
      <trkpt lat="45.20106" lon="3.98396">
        <ele>526</ele>
        <time>2018-05-24T14:49:13Z</time>
      </trkpt>
      <trkpt lat="45.20106" lon="3.98397">
        <ele>526</ele>
        <time>2018-05-24T14:49:15Z</time>
      </trkpt>
      <trkpt lat="45.20107" lon="3.984">
        <ele>526</ele>
        <time>2018-05-24T14:49:18Z</time>
      </trkpt>
      <trkpt lat="45.20106" lon="3.98421">
        <ele>527</ele>
        <time>2018-05-24T14:49:28Z</time>
      </trkpt>
      <trkpt lat="45.20106" lon="3.9843">
        <ele>526</ele>
        <time>2018-05-24T14:49:35Z</time>
      </trkpt>
      <trkpt lat="45.20106" lon="3.9844">
        <ele>526</ele>
        <time>2018-05-24T14:49:40Z</time>
      </trkpt>
      <trkpt lat="45.20105" lon="3.9846">
        <ele>526</ele>
        <time>2018-05-24T14:49:48Z</time>
      </trkpt>
      <trkpt lat="45.20105" lon="3.98477">
        <ele>526</ele>
        <time>2018-05-24T14:49:58Z</time>
      </trkpt>
      <trkpt lat="45.20105" lon="3.98489">
        <ele>527</ele>
        <time>2018-05-24T14:50:06Z</time>
      </trkpt>
      <trkpt lat="45.20111" lon="3.98511">
        <ele>527</ele>
        <time>2018-05-24T14:50:17Z</time>
      </trkpt>
      <trkpt lat="45.20116" lon="3.98524">
        <ele>527</ele>
        <time>2018-05-24T14:50:27Z</time>
      </trkpt>
      <trkpt lat="45.20121" lon="3.9853">
        <ele>526</ele>
        <time>2018-05-24T14:50:32Z</time>
      </trkpt>
      <trkpt lat="45.20121" lon="3.98533">
        <ele>526</ele>
        <time>2018-05-24T14:50:43Z</time>
      </trkpt>
      <trkpt lat="45.20121" lon="3.98547">
        <ele>526</ele>
        <time>2018-05-24T14:50:53Z</time>
      </trkpt>
      <trkpt lat="45.20127" lon="3.9857">
        <ele>526</ele>
        <time>2018-05-24T14:51:09Z</time>
      </trkpt>
      <trkpt lat="45.20123" lon="3.98569">
        <ele>527</ele>
        <time>2018-05-24T14:51:28Z</time>
      </trkpt>
      <trkpt lat="45.20128" lon="3.98567">
        <ele>526</ele>
        <time>2018-05-24T14:51:39Z</time>
      </trkpt>
      <trkpt lat="45.2015" lon="3.98564">
        <ele>523</ele>
        <time>2018-05-24T14:51:53Z</time>
      </trkpt>
      <trkpt lat="45.20169" lon="3.98562">
        <ele>518</ele>
        <time>2018-05-24T14:52:06Z</time>
      </trkpt>
      <trkpt lat="45.2018" lon="3.98556">
        <ele>518</ele>
        <time>2018-05-24T14:52:12Z</time>
      </trkpt>
      <trkpt lat="45.20182" lon="3.9856">
        <ele>518</ele>
        <time>2018-05-24T14:52:18Z</time>
      </trkpt>
    </trkseg>
  </trk>
</gpx>